[[{"header":{"parameterUnit":"m.s-1","parameterCategory":1,"la1":30.6,"la2":28.766,"lo1":-90.7593,"lo2":-88.6598,"dx":0.0162,"dy":0.0183,"nx":116,"ny":114,"refTime":"2023-01-29T18:00:00:Z","depth":0,"parameterNumber":2,"parameterNumberName":"U-component_of_WINDS"},"data":[0.0,0.0,0.0,0.0,0.0,0.0,0.0,0.0,0.0,0.0,0.0,0.0,0.0,0.0,0.0,0.0,0.0,0.0,0.0,0.0,0.0,0.0,0.0,0.0,0.0,0.0,0.0,0.0,0.0,0.0,0.0,0.0,0.0,0.0,0.0,0.0,0.0,0.0,0.0,0.0,0.0,0.0,0.0,0.0,0.0,0.0,0.0,0.0,0.0,0.0,0.0,0.0,0.0,0.0,0.0,0.0,0.0,0.0,0.0,0.0,0.0,0.0,0.0,0.0,0.0,0.0,0.0,0.0,0.0,0.0,0.0,0.0,0.0,0.0,0.0,0.0,0.0,0.0,0.0,0.0,0.0,0.0,0.0,0.0,0.0,0.0,0.0,0.0,0.0,0.0,0.0,0.0,0.0,0.0,0.0,0.0,0.0,0.0,0.0,0.0,0.0,0.0,0.0,0.0,0.0,0.0,0.0,0.0,0.0,0.0,0.0,0.0,0.0,0.0,0.0,0.0,0.0,0.0,0.0,0.0,0.0,0.0,0.0,0.0,0.0,0.0,0.0,0.0,0.0,0.0,0.0,0.0,0.0,0.0,0.0,0.0,0.0,0.0,0.0,0.0,0.0,0.0,0.0,0.0,0.0,0.0,0.0,0.0,0.0,0.0,0.0,0.0,0.0,0.0,0.0,0.0,0.0,0.0,0.0,0.0,0.0,0.0,0.0,0.0,0.0,0.0,0.0,0.0,0.0,0.0,0.0,0.0,0.0,0.0,0.0,0.0,0.0,0.0,0.0,0.0,0.0,0.0,0.0,0.0,0.0,0.0,0.0,0.0,0.0,0.0,0.0,0.0,0.0,0.0,0.0,0.0,0.0,0.0,0.0,0.0,0.0,0.0,0.0,0.0,0.0,0.0,0.0,0.0,0.0,0.0,0.0,0.0,0.0,0.0,0.0,0.0,0.0,0.0,0.0,0.0,0.0,0.0,0.0,0.0,0.0,0.0,0.0,0.0,0.0,0.0,0.0,0.0,0.0,0.0,0.0,0.0,0.0,0.0,0.0,0.0,0.0,0.0,0.0,0.0,0.0,0.0,0.0,0.0,0.0,0.0,0.0,0.0,0.0,0.0,0.0,0.0,0.0,0.0,0.0,0.0,0.0,0.0,0.0,0.0,0.0,0.0,0.0,0.0,0.0,0.0,0.0,0.0,0.0,0.0,0.0,0.0,0.0,0.0,0.0,0.0,0.0,0.0,0.0,0.0,0.0,0.0,0.0,0.0,0.0,0.0,0.0,0.0,0.0,0.0,0.0,0.0,0.0,0.0,0.0,0.0,0.0,0.0,0.0,0.0,0.0,0.0,0.0,0.0,0.0,0.0,0.0,0.0,0.0,0.0,0.0,0.0,0.0,0.0,0.0,0.0,0.0,0.0,0.0,0.0,0.0,0.0,0.0,0.0,0.0,0.0,0.0,0.0,0.0,0.0,0.0,0.0,0.0,0.0,0.0,0.0,0.0,0.0,0.0,0.0,0.0,0.0,0.0,0.0,0.0,0.0,0.0,0.0,0.0,0.0,0.0,0.0,0.0,0.0,0.0,0.0,0.0,0.0,0.0,0.0,0.0,0.0,0.0,0.0,0.0,0.0,0.0,0.0,0.0,0.0,0.0,0.0,0.0,0.0,0.0,0.0,0.0,0.0,0.0,0.0,0.0,0.0,0.0,0.0,0.0,0.0,0.0,0.0,0.0,0.0,0.0,0.0,0.0,0.0,0.0,0.0,0.0,0.0,0.0,0.0,0.0,0.0,0.0,0.0,0.0,0.0,0.0,0.0,0.0,0.0,0.0,0.0,0.0,0.0,0.0,0.0,0.0,0.0,0.0,0.0,0.0,0.0,0.0,0.0,0.0,0.0,0.0,0.0,0.0,0.0,0.0,0.0,0.0,0.0,0.0,0.0,0.0,0.0,0.0,0.0,0.0,0.0,0.0,0.0,0.0,0.0,0.0,0.0,0.0,0.0,0.0,0.0,0.0,0.0,0.0,0.0,0.0,0.0,0.0,0.0,0.0,0.0,0.0,0.0,0.0,0.0,0.0,0.0,0.0,0.0,0.0,0.0,0.0,0.0,0.0,0.0,0.0,0.0,0.0,0.0,0.0,0.0,0.0,0.0,0.0,0.0,0.0,0.0,0.0,0.0,0.0,0.0,0.0,0.0,0.0,0.0,0.0,0.0,0.0,0.0,0.0,0.0,0.0,0.0,0.0,0.0,0.0,0.0,0.0,0.0,0.0,0.0,0.0,0.0,0.0,0.0,0.0,0.0,0.0,0.0,0.0,0.0,0.0,0.0,0.0,0.0,0.0,0.0,0.0,0.0,0.0,0.0,0.0,0.0,0.0,0.0,0.0,0.0,0.0,0.0,0.0,0.0,0.0,0.0,0.0,0.0,0.0,0.0,0.0,0.0,0.0,0.0,0.0,0.0,0.0,0.0,0.0,0.0,0.0,0.0,0.0,0.0,0.0,0.0,0.0,0.0,0.0,0.0,0.0,0.0,0.0,0.0,0.0,0.0,0.0,0.0,0.0,0.0,0.0,0.0,0.0,0.0,0.0,0.0,0.0,0.0,0.0,0.0,0.0,0.0,0.0,0.0,0.0,0.0,0.0,0.0,0.0,0.0,0.0,0.0,0.0,0.0,0.0,0.0,0.0,0.0,0.0,0.0,0.0,0.0,0.0,0.0,0.0,0.0,0.0,0.0,0.0,0.0,0.0,0.0,0.0,0.0,0.0,0.0,0.0,0.0,0.0,0.0,0.0,0.0,0.0,0.0,0.0,0.0,0.0,0.0,0.0,0.0,0.0,0.0,0.0,0.0,0.0,0.0,0.0,0.0,0.0,0.0,0.0,0.0,0.0,0.0,0.0,0.0,0.0,0.0,0.0,0.0,0.0,0.0,0.0,0.0,0.0,0.0,0.0,0.0,0.0,0.0,0.0,0.0,0.0,0.0,0.0,0.0,0.0,0.0,0.0,0.0,0.0,0.0,0.0,0.0,0.0,0.0,0.0,0.0,0.0,0.0,0.0,0.0,0.0,0.0,0.0,0.0,0.0,0.0,0.0,0.0,0.0,0.0,0.0,0.0,0.0,0.0,0.0,0.0,0.0,0.0,0.0,0.0,0.0,0.0,0.0,0.0,0.0,0.0,0.0,0.0,0.0,0.0,0.0,0.0,0.0,0.0,0.0,0.0,0.0,0.0,0.0,0.0,0.0,0.0,0.0,0.0,0.0,0.0,0.0,0.0,0.0,0.0,0.0,0.0,0.0,0.0,0.0,0.0,0.0,0.0,0.0,0.0,0.0,0.0,0.0,0.0,0.0,0.0,0.0,0.0,0.0,0.0,0.0,0.0,0.0,0.0,0.0,0.0,0.0,0.0,0.0,0.0,0.0,0.0,0.0,0.0,0.0,0.0,0.0,0.0,0.0,0.0,0.0,0.0,0.0,0.0,0.0,0.0,0.0,0.0,0.0,0.0,0.0,0.0,0.0,0.0,0.0,0.0,0.0,0.0,0.0,0.0,0.0,0.0,0.0,0.0,0.0,0.0,0.0,0.0,0.0,0.0,0.0,0.0,0.0,0.0,0.0,0.0,0.0,0.0,0.0,0.0,0.0,0.0,0.0,0.0,0.0,0.0,0.0,0.0,0.0,0.0,0.0,0.0,0.0,0.0,0.0,0.0,0.0,0.0,0.0,0.0,0.0,0.0,0.0,0.0,0.0,0.0,0.0,0.0,0.0,0.0,0.0,0.0,0.0,0.0,0.0,0.0,0.0,0.0,0.0,0.0,0.0,0.0,0.0,0.0,0.0,0.0,0.0,0.0,0.0,0.0,0.0,0.0,0.0,0.0,0.0,0.0,0.0,0.0,0.0,0.0,0.0,0.0,0.0,0.0,0.0,0.0,0.0,0.0,0.0,0.0,0.0,0.0,0.0,0.0,0.0,0.0,0.0,0.0,0.0,0.0,0.0,0.0,0.0,0.0,0.0,0.0,0.0,0.0,0.0,0.0,0.0,0.0,0.0,0.0,0.0,0.0,0.0,0.0,0.0,0.0,0.0,0.0,0.0,0.0,0.0,0.0,0.0,0.0,0.0,0.0,0.0,0.0,0.0,0.0,0.0,0.0,0.0,0.0,0.0,0.0,0.0,0.0,0.0,0.0,0.0,0.0,0.0,0.0,0.0,0.0,0.0,0.0,0.0,0.0,0.0,0.0,0.0,0.0,0.0,0.0,0.0,0.0,0.0,0.0,0.0,0.0,0.0,0.0,0.0,0.0,0.0,0.0,0.0,0.0,0.0,0.0,0.0,0.0,0.0,0.0,0.0,0.0,0.0,0.0,0.0,0.0,0.0,0.0,0.0,0.0,0.0,0.0,0.0,0.0,0.0,0.0,0.0,0.0,0.0,0.0,0.0,0.0,0.0,0.0,0.0,0.0,0.0,0.0,0.0,0.0,0.0,0.0,0.0,0.0,0.0,0.0,0.0,0.0,0.0,0.0,0.0,0.0,0.0,0.0,0.0,0.0,0.0,0.0,0.0,0.0,0.0,0.0,0.0,0.0,0.0,0.0,0.0,0.0,0.0,0.0,0.0,0.0,0.0,0.0,0.0,0.0,0.0,0.0,0.0,0.0,0.0,0.0,0.0,0.0,0.0,0.0,0.0,0.0,0.0,0.0,0.0,0.0,0.0,0.0,0.0,0.0,0.0,0.0,0.0,0.0,0.0,0.0,0.0,0.0,0.0,0.0,0.0,0.0,0.0,0.0,0.0,0.0,0.0,0.0,0.0,0.0,0.0,0.0,0.0,0.0,0.0,0.0,0.0,0.0,0.0,0.0,0.0,0.0,0.0,0.0,0.0,0.0,0.0,0.0,0.0,0.0,0.0,0.0,0.0,0.0,0.0,0.0,0.0,0.0,0.0,0.0,0.0,0.0,0.0,0.0,0.0,0.0,0.0,0.0,0.0,0.0,0.0,0.0,0.0,0.0,0.0,0.0,0.0,0.0,0.0,0.0,0.0,0.0,0.0,0.0,0.0,0.0,0.0,0.0,0.0,0.0,0.0,0.0,0.0,0.0,0.0,0.0,0.0,0.0,0.0,0.0,0.0,0.0,0.0,0.0,0.0,0.0,0.0,0.0,0.0,0.0,0.0,0.0,0.0,0.0,0.0,0.0,0.0,0.0,0.0,0.0,0.0,0.0,0.0,0.0,0.0,0.0,0.0,0.0,0.0,0.0,0.0,0.0,0.0,0.0,0.0,0.0,0.0,0.0,0.0,0.0,0.0,0.0,0.0,0.0,0.0,0.0,0.0,0.0,0.0,0.0,0.0,0.0,0.0,0.0,0.0,0.0,0.0,0.0,0.0,0.0,0.0,0.0,0.0,0.0,0.0,0.0,0.0,0.0,0.0,0.0,0.0,0.0,0.0,0.0,0.0,0.0,0.0,0.0,0.0,0.0,0.0,0.0,0.0,0.0,0.0,0.0,0.0,0.0,0.0,0.0,0.0,0.0,0.0,0.0,0.0,0.0,0.0,0.0,0.0,0.0,0.0,0.0,0.0,0.0,0.0,0.0,0.0,0.0,0.0,0.0,0.0,0.0,0.0,0.0,0.0,0.0,0.0,0.0,0.0,0.0,0.0,0.0,0.0,0.0,0.0,0.0,0.0,0.0,0.0,0.0,0.0,0.0,0.0,0.0,0.0,0.0,0.0,0.0,0.0,0.0,0.0,0.0,0.0,0.0,0.0,0.0,0.0,0.0,0.0,0.0,0.0,0.0,0.0,0.0,0.0,0.0,0.0,0.0,0.0,0.0,0.0,0.0,0.0,0.0,0.0,0.0,0.0,0.0,0.0,0.0,0.0,0.0,0.0,0.0,0.0,0.0,0.0,0.0,0.0,0.0,0.0,0.0,0.0,0.0,0.0,0.0,0.0,0.0,0.0,0.0,0.0,0.0,0.0,0.0,0.0,0.0,0.0,0.0,0.0,0.0,0.0,0.0,0.0,0.0,0.0,0.0,0.0,0.0,0.0,0.0,0.0,0.0,0.0,0.0,0.0,0.0,0.0,0.0,0.0,0.0,-2.3696,0.0,0.0,0.0,0.0,0.0,0.0,0.0,0.0,0.0,0.0,0.0,0.0,0.0,0.0,0.0,0.0,0.0,0.0,0.0,0.0,0.0,0.0,0.0,0.0,0.0,0.0,0.0,0.0,0.0,0.0,0.0,0.0,0.0,0.0,0.0,0.0,0.0,0.0,0.0,0.0,0.0,0.0,0.0,0.0,0.0,0.0,0.0,0.0,0.0,0.0,0.0,0.0,0.0,0.0,0.0,0.0,0.0,0.0,0.0,0.0,0.0,0.0,0.0,0.0,0.0,0.0,0.0,0.0,0.0,0.0,0.0,0.0,0.0,0.0,0.0,0.0,0.0,0.0,0.0,0.0,0.0,0.0,0.0,0.0,0.0,0.0,0.0,0.0,0.0,0.0,0.0,0.0,0.0,0.0,0.0,0.0,0.0,0.0,0.0,0.0,0.0,0.0,0.0,0.0,0.0,0.0,0.0,0.0,0.0,0.0,0.0,0.0,0.0,0.0,0.0,0.0,-2.3739,0.0,0.0,0.0,0.0,0.0,0.0,0.0,0.0,0.0,0.0,0.0,0.0,0.0,0.0,0.0,0.0,0.0,0.0,0.0,0.0,0.0,0.0,0.0,0.0,0.0,0.0,0.0,0.0,0.0,0.0,0.0,0.0,0.0,0.0,0.0,0.0,0.0,0.0,0.0,0.0,0.0,0.0,0.0,0.0,0.0,0.0,0.0,0.0,0.0,0.0,0.0,0.0,0.0,0.0,0.0,0.0,0.0,0.0,0.0,0.0,0.0,0.0,0.0,0.0,0.0,0.0,0.0,0.0,0.0,0.0,0.0,0.0,0.0,0.0,0.0,0.0,0.0,0.0,0.0,0.0,0.0,0.0,0.0,0.0,0.0,0.0,0.0,0.0,0.0,0.0,0.0,0.0,0.0,0.0,0.0,0.0,0.0,0.0,0.0,0.0,0.0,0.0,0.0,0.0,0.0,0.0,0.0,0.0,-2.5317,-2.5355,-2.5363,-2.5262,-2.5177,-2.5138,-2.4566,-2.4211,-2.4067,-2.3726,0.0,0.0,0.0,0.0,0.0,0.0,0.0,0.0,0.0,0.0,0.0,0.0,0.0,0.0,0.0,0.0,0.0,0.0,0.0,0.0,0.0,0.0,0.0,0.0,0.0,0.0,0.0,0.0,0.0,0.0,0.0,0.0,0.0,0.0,0.0,0.0,0.0,0.0,0.0,0.0,0.0,0.0,0.0,0.0,0.0,0.0,0.0,0.0,0.0,0.0,0.0,0.0,0.0,0.0,0.0,0.0,0.0,0.0,0.0,0.0,0.0,0.0,0.0,0.0,0.0,0.0,0.0,0.0,0.0,0.0,0.0,0.0,0.0,0.0,0.0,0.0,0.0,0.0,0.0,0.0,0.0,0.0,0.0,0.0,0.0,0.0,-2.4934,-2.4934,0.0,0.0,0.0,0.0,0.0,0.0,0.0,0.0,0.0,0.0,0.0,0.0,0.0,-2.5138,-2.5309,-2.5339,-2.5432,-2.5532,-2.5605,-2.5634,-2.5567,-2.5589,-2.5522,-2.5339,-2.5201,0.0,-2.4416,-2.4067,0.0,0.0,0.0,0.0,0.0,0.0,0.0,0.0,0.0,0.0,0.0,0.0,0.0,0.0,0.0,0.0,0.0,0.0,0.0,0.0,0.0,0.0,0.0,0.0,0.0,0.0,0.0,0.0,0.0,0.0,0.0,0.0,0.0,0.0,0.0,0.0,0.0,0.0,0.0,0.0,0.0,0.0,0.0,0.0,0.0,0.0,0.0,0.0,0.0,0.0,0.0,0.0,0.0,0.0,0.0,0.0,0.0,0.0,0.0,0.0,0.0,0.0,0.0,0.0,0.0,0.0,0.0,0.0,0.0,0.0,0.0,0.0,0.0,0.0,0.0,0.0,0.0,0.0,0.0,0.0,0.0,0.0,0.0,0.0,0.0,-2.4886,-2.5076,-2.5076,-2.5076,-2.5029,0.0,0.0,0.0,0.0,0.0,0.0,0.0,0.0,0.0,-2.5254,-2.5347,-2.5424,-2.5559,-2.5642,-2.5704,-2.5749,-2.5807,-2.5799,-2.577,-2.5799,-2.5762,-2.5659,-2.5524,-2.5256,-2.4894,-2.4449,-2.4109,-2.3789,0.0,0.0,0.0,0.0,-2.2402,-2.2324,0.0,0.0,0.0,0.0,0.0,0.0,0.0,0.0,0.0,0.0,0.0,0.0,0.0,0.0,0.0,-1.1823,0.0,0.0,0.0,0.0,0.0,0.0,0.0,0.0,0.0,0.0,0.0,0.0,0.0,0.0,0.0,0.0,0.0,0.0,0.0,0.0,0.0,0.0,0.0,0.0,0.0,0.0,0.0,0.0,0.0,0.0,0.0,0.0,0.0,0.0,0.0,0.0,0.0,0.0,0.0,0.0,0.0,0.0,0.0,0.0,0.0,0.0,0.0,0.0,0.0,0.0,0.0,0.0,0.0,0.0,0.0,0.0,0.0,0.0,0.0,0.0,0.0,-2.4958,-2.5068,-2.5099,-2.5099,-2.5099,0.0,0.0,0.0,0.0,0.0,0.0,-2.5371,-2.5402,-2.5432,-2.5546,-2.5629,-2.5749,-2.5828,-2.5926,-2.6007,-2.6035,-2.6035,-2.6035,-2.6035,-2.6035,-2.5998,-2.5979,-2.5749,-2.5562,-2.5333,-2.4814,-2.4434,-2.4128,-2.3754,-2.3443,-2.3209,-2.2889,-2.2761,-2.2646,0.0,0.0,0.0,0.0,0.0,0.0,0.0,0.0,0.0,0.0,0.0,0.0,0.0,0.0,-1.1272,-1.1673,-1.2076,-1.2382,0.0,0.0,0.0,0.0,0.0,0.0,0.0,0.0,0.0,0.0,0.0,0.0,0.0,0.0,0.0,0.0,0.0,0.0,0.0,0.0,0.0,0.0,0.0,0.0,0.0,0.0,0.0,0.0,0.0,0.0,0.0,0.0,0.0,0.0,0.0,0.0,0.0,0.0,0.0,0.0,0.0,0.0,0.0,0.0,0.0,0.0,0.0,0.0,0.0,0.0,0.0,0.0,0.0,0.0,0.0,0.0,0.0,0.0,0.0,0.0,0.0,-2.5099,-2.5099,0.0,0.0,0.0,0.0,-2.5294,-2.5355,-2.547,-2.5578,-2.565,-2.5746,-2.5889,-2.5889,-2.5979,-2.6168,-2.6168,-2.6283,-2.6459,-2.6459,-2.6459,-2.6459,-2.6347,-2.625,-2.6176,-2.597,-2.5787,-2.5532,-2.5131,-2.4718,-2.4268,-2.4067,-2.3789,-2.3508,-2.3209,-2.2986,-2.2852,0.0,0.0,0.0,0.0,0.0,0.0,0.0,0.0,0.0,0.0,0.0,0.0,0.0,-1.1124,-1.1372,-1.1673,-1.2076,-1.2377,-1.2627,0.0,0.0,0.0,0.0,0.0,0.0,0.0,0.0,0.0,0.0,0.0,0.0,0.0,0.0,0.0,0.0,0.0,0.0,0.0,0.0,0.0,0.0,0.0,0.0,0.0,0.0,0.0,0.0,0.0,0.0,0.0,0.0,0.0,0.0,0.0,0.0,0.0,0.0,0.0,0.0,0.0,0.0,0.0,0.0,0.0,0.0,0.0,0.0,0.0,0.0,0.0,0.0,0.0,0.0,0.0,0.0,0.0,0.0,0.0,0.0,-2.5099,-2.5193,0.0,-2.5294,-2.5317,-2.5402,-2.5494,-2.5575,-2.5642,-2.5787,-2.5815,-2.5917,-2.6096,-2.6087,-2.6203,-2.638,-2.638,-2.6424,-2.6493,-2.6493,-2.6493,-2.6493,-2.6347,-2.6304,-2.6241,-2.6063,-2.5836,-2.5642,-2.5386,-2.5005,-2.4605,-2.431,-2.4009,-2.3696,-2.3516,-2.3297,-2.3127,0.0,0.0,0.0,0.0,0.0,0.0,0.0,0.0,0.0,0.0,0.0,-1.062,-1.0922,-1.1175,-1.1427,-1.1673,-1.2076,-1.2426,-1.2681,0.0,0.0,0.0,0.0,0.0,0.0,0.0,0.0,0.0,0.0,0.0,0.0,0.0,0.0,0.0,0.0,0.0,0.0,0.0,0.0,0.0,0.0,0.0,-1.7617,0.0,0.0,0.0,0.0,0.0,0.0,0.0,0.0,0.0,0.0,0.0,0.0,0.0,0.0,0.0,0.0,0.0,0.0,0.0,0.0,0.0,0.0,0.0,0.0,0.0,0.0,0.0,0.0,0.0,0.0,0.0,0.0,0.0,0.0,0.0,-2.5029,-2.5099,-2.524,-2.5325,-2.5325,-2.5424,-2.553,-2.5629,-2.5754,-2.5864,-2.6007,-2.6026,-2.6107,-2.6283,-2.6318,-2.6389,-2.652,-2.652,-2.6554,-2.6572,-2.6572,-2.6572,-2.6563,-2.6452,-2.6382,-2.6347,-2.6134,-2.5946,-2.5746,-2.5492,-2.5193,-2.4854,-2.4523,-2.4219,-2.3959,-2.3739,-2.3559,-2.34,0.0,0.0,0.0,0.0,0.0,0.0,0.0,0.0,0.0,0.0,-1.0522,-1.0671,-1.1074,-1.1226,-1.1423,-1.1678,-1.2076,-1.2426,-1.2676,-1.3142,0.0,0.0,0.0,0.0,0.0,0.0,0.0,0.0,0.0,0.0,0.0,0.0,0.0,0.0,0.0,0.0,0.0,0.0,0.0,0.0,0.0,0.0,-1.7726,0.0,0.0,0.0,0.0,0.0,0.0,0.0,0.0,0.0,0.0,0.0,0.0,0.0,0.0,0.0,0.0,0.0,0.0,0.0,0.0,0.0,0.0,0.0,0.0,0.0,0.0,0.0,0.0,0.0,0.0,0.0,0.0,0.0,-2.4742,-2.479,-2.4854,-2.506,-2.5201,-2.5325,-2.5378,-2.5589,-2.5692,-2.5701,-2.5893,-2.6063,-2.6212,-2.6277,-2.6382,-2.6493,-2.6485,-2.652,-2.6606,-2.6606,-2.6632,-2.6691,-2.6691,-2.6691,-2.67,-2.6632,-2.6546,-2.6493,-2.6283,-2.6096,-2.5889,-2.5546,-2.5301,-2.506,-2.4645,-2.4408,-2.4268,-2.3925,-2.3739,-2.3559,0.0,0.0,0.0,0.0,0.0,0.0,0.0,0.0,0.0,0.0,-1.0871,-1.1019,-1.1221,-1.1372,-1.1573,-1.1977,-1.2175,-1.2475,-1.2866,0.0,0.0,0.0,0.0,0.0,0.0,0.0,0.0,0.0,0.0,0.0,0.0,0.0,0.0,0.0,0.0,0.0,0.0,0.0,0.0,0.0,0.0,0.0,-1.7888,0.0,0.0,0.0,0.0,0.0,0.0,0.0,0.0,0.0,0.0,0.0,0.0,0.0,0.0,0.0,0.0,0.0,0.0,0.0,0.0,0.0,0.0,0.0,0.0,0.0,0.0,0.0,0.0,0.0,0.0,0.0,0.0,-2.4291,-2.4539,-2.4701,-2.4822,-2.4894,-2.5131,-2.5325,-2.5378,-2.5589,-2.5775,-2.5901,-2.6071,-2.6187,-2.6277,-2.639,-2.6468,-2.658,-2.658,-2.6598,-2.6674,-2.6674,-2.6666,-2.6691,-2.6691,-2.6691,-2.67,-2.6632,-2.6546,-2.6485,-2.6355,-2.6134,-2.5889,-2.5717,-2.5484,-2.5201,-2.4759,-2.4475,-2.4268,-2.4017,-2.3789,-2.3595,0.0,0.0,0.0,0.0,0.0,0.0,0.0,0.0,0.0,0.0,-1.1221,-1.1322,-1.1473,-1.1623,-1.1828,-1.2076,-1.2377,-1.2715,-1.304,0.0,0.0,0.0,0.0,0.0,0.0,0.0,0.0,0.0,0.0,0.0,0.0,0.0,0.0,0.0,0.0,0.0,0.0,0.0,0.0,0.0,0.0,0.0,-1.7935,-1.7835,-1.788,-1.808,-1.864,-1.8917,-1.9113,-1.9658,0.0,0.0,0.0,0.0,0.0,0.0,0.0,0.0,0.0,0.0,0.0,0.0,0.0,0.0,0.0,0.0,0.0,0.0,0.0,0.0,0.0,0.0,0.0,0.0,-2.4074,-2.4208,-2.4408,-2.4605,-2.4774,-2.4854,-2.5131,-2.5333,-2.547,-2.5688,-2.5873,-2.6079,-2.6187,-2.6285,-2.6417,-2.6503,-2.6572,-2.6623,-2.6657,-2.6649,-2.6691,-2.6691,-2.6691,-2.6691,-2.6691,-2.6691,-2.6691,-2.6649,-2.6598,-2.6493,-2.6434,-2.6206,-2.5889,-2.5717,-2.5538,0.0,0.0,0.0,0.0,0.0,-2.3839,-2.3602,0.0,0.0,0.0,0.0,0.0,0.0,0.0,0.0,0.0,0.0,0.0,-1.1623,-1.1723,-1.1972,-1.2126,-1.218,-1.2622,-1.3007,0.0,0.0,0.0,0.0,0.0,0.0,0.0,0.0,0.0,0.0,0.0,0.0,0.0,0.0,0.0,0.0,0.0,0.0,0.0,0.0,0.0,0.0,0.0,0.0,-1.7916,-1.7916,-1.774,-1.7596,-1.8173,-1.839,-1.8507,-1.9087,0.0,0.0,0.0,0.0,0.0,0.0,0.0,0.0,0.0,0.0,0.0,0.0,0.0,0.0,0.0,0.0,0.0,0.0,0.0,0.0,0.0,0.0,0.0,0.0,-2.3982,-2.4067,-2.431,-2.4467,-2.467,-2.4934,-2.5178,-2.5371,-2.56,-2.586,-2.6094,-2.6328,-2.6485,-2.6659,-2.6824,0.0,0.0,0.0,0.0,-2.6911,-2.6818,-2.6818,-2.6776,-2.6691,-2.6691,-2.6691,-2.6691,-2.6691,-2.6615,-2.6493,-2.6493,-2.6266,-2.5889,-2.568,-2.547,-2.5209,-2.4894,-2.4686,-2.4467,-2.4143,-2.3839,-2.3602,0.0,0.0,0.0,0.0,0.0,0.0,0.0,0.0,0.0,-1.1673,-1.1773,-1.1873,-1.2026,-1.218,-1.2377,-1.273,-1.2895,-1.3314,0.0,0.0,0.0,0.0,0.0,0.0,0.0,0.0,0.0,0.0,0.0,0.0,0.0,0.0,0.0,0.0,0.0,0.0,0.0,0.0,0.0,0.0,0.0,0.0,-1.7962,-1.7909,-1.774,-1.7555,-1.8044,-1.8065,-1.7925,-1.8312,-1.8378,-1.8313,-1.8195,0.0,0.0,0.0,0.0,0.0,0.0,0.0,0.0,0.0,0.0,0.0,0.0,0.0,0.0,0.0,0.0,0.0,0.0,0.0,0.0,-2.3975,-2.3982,-2.4116,-2.4408,-2.4556,-2.4678,-2.4814,-2.5092,-2.5394,-2.568,-2.633,-2.6879,-2.713,-2.7835,-2.8288,-2.8353,-2.8471,-2.8543,-2.8535,-2.8543,-2.823,-2.757,-2.7604,-2.73,-2.6691,0.0,0.0,-2.6691,-2.6691,-2.6615,-2.6493,-2.6493,-2.6266,-2.5889,-2.5746,-2.537,-2.4894,-2.4726,-2.4426,-2.4109,-2.4024,-2.3839,-2.3602,0.0,0.0,0.0,0.0,0.0,0.0,0.0,0.0,0.0,0.0,-1.2175,-1.2229,-1.2274,-1.248,-1.2681,-1.2881,-1.3291,0.0,0.0,0.0,0.0,0.0,0.0,0.0,0.0,0.0,0.0,0.0,0.0,0.0,0.0,0.0,0.0,0.0,0.0,0.0,0.0,0.0,0.0,0.0,0.0,0.0,-1.7862,-1.7794,-1.7666,-1.7515,-1.7662,-1.7652,-1.7623,-1.7746,-1.7809,-1.7798,-1.7739,-1.7787,-1.7925,0.0,0.0,0.0,0.0,0.0,0.0,0.0,0.0,0.0,0.0,0.0,0.0,0.0,0.0,-2.3502,0.0,0.0,-2.3696,-2.3975,-2.3982,-2.4223,-2.4898,-2.516,-2.5158,-2.4966,-2.5512,-2.601,-2.63,-2.7161,-2.7789,-2.8043,-2.8498,-2.8782,-2.8893,-2.8975,-2.9019,-2.9019,-2.9019,-2.8797,-2.8399,-2.8399,-2.801,-2.7258,-2.7258,-2.7063,-2.6691,-2.6683,-2.6606,-2.6485,-2.638,-2.6159,-2.5889,-2.5613,-2.5185,-2.4686,-2.4638,-2.4343,-2.3982,-2.3982,-2.3839,-2.3602,0.0,0.0,0.0,0.0,0.0,0.0,0.0,0.0,0.0,0.0,0.0,-1.2578,-1.2578,-1.2822,-1.3017,0.0,0.0,0.0,0.0,0.0,0.0,0.0,0.0,0.0,0.0,0.0,0.0,0.0,0.0,0.0,0.0,0.0,0.0,0.0,0.0,0.0,0.0,0.0,0.0,0.0,0.0,0.0,-1.7672,-1.7631,-1.7536,-1.7407,-1.7225,-1.724,-1.7271,-1.719,-1.7239,-1.727,-1.7264,-1.7338,-1.7525,-1.7633,-1.8076,0.0,0.0,0.0,0.0,0.0,0.0,0.0,0.0,0.0,-2.3209,-2.3422,-2.3466,-2.3502,-2.3566,-2.3602,-2.3696,-2.3975,-2.4139,-2.4533,-2.5404,-2.5876,-2.6016,-2.5624,-2.6254,-2.6855,-2.7183,-2.805,-2.8713,-2.8896,-2.9089,-2.9286,-2.9406,-2.9414,-2.9414,-2.9414,-2.9414,-2.9347,-2.9203,-2.9203,-2.8814,-2.8044,-2.7857,-2.7503,-2.6911,-2.6699,-2.6546,-2.6493,-2.6239,-2.597,-2.577,-2.5402,-2.5005,-2.4597,-2.4549,-2.4302,-2.3982,-2.3982,-2.3839,-2.3602,0.0,0.0,0.0,0.0,0.0,0.0,0.0,0.0,0.0,0.0,0.0,0.0,0.0,0.0,0.0,0.0,0.0,0.0,0.0,0.0,0.0,0.0,0.0,0.0,0.0,0.0,0.0,0.0,0.0,0.0,0.0,0.0,0.0,0.0,0.0,0.0,0.0,0.0,0.0,0.0,0.0,0.0,-1.7482,-1.7323,-1.7249,-1.7225,-1.7091,-1.6846,-1.658,-1.6417,-1.6247,-1.6153,-1.606,-1.62,-1.6392,-1.6552,0.0,-1.8045,-1.8382,-1.9809,-2.1302,-2.1756,-2.2364,-2.2904,0.0,0.0,-2.3275,-2.3327,-2.3414,-2.3509,-2.3502,-2.3574,-2.3696,-2.3975,-2.4577,-2.5213,-2.5617,-2.6411,-2.7037,-2.729,-2.747,-2.7664,-2.7856,-2.8784,-2.9478,-2.9674,-3.0339,-3.0819,-3.0954,-3.0945,-3.0945,-3.0945,-3.0945,-3.0632,-2.9989,-2.9981,-2.96,-2.8848,-2.8154,-2.7747,-2.7637,-2.6935,-2.6546,-2.6485,-2.5974,-2.5634,-2.5416,-2.5162,-2.4839,-2.4589,-2.4385,-2.4185,-2.3982,-2.3982,-2.3839,-2.3602,0.0,0.0,0.0,0.0,0.0,0.0,0.0,0.0,0.0,0.0,0.0,0.0,0.0,0.0,0.0,0.0,0.0,0.0,0.0,0.0,0.0,0.0,0.0,0.0,0.0,0.0,0.0,0.0,0.0,0.0,0.0,0.0,0.0,0.0,0.0,0.0,0.0,0.0,0.0,0.0,0.0,0.0,-1.7317,-1.7157,-1.6999,-1.6899,-1.6744,-1.6571,0.0,0.0,-1.5997,-1.5899,-1.5922,-1.6077,-1.6354,-1.6598,-1.7138,0.0,-1.8697,-1.9915,0.0,0.0,-2.2542,-2.3135,-2.3194,-2.3282,-2.3319,-2.3319,-2.3319,-2.3414,-2.3509,-2.3538,-2.3752,0.0,-2.494,-2.5618,-2.6823,-2.7498,-2.8142,-2.8801,-2.9146,-2.9198,-2.8916,-2.9746,-3.0388,-3.049,-3.0895,-3.1151,-3.119,-3.119,-3.119,-3.119,-3.119,-3.1047,-3.0742,-3.0742,-3.037,-2.9626,-2.8856,-2.8228,-2.7693,-2.6916,-2.6407,-2.6115,-2.5778,-2.5462,-2.5216,-2.5045,-2.4806,-2.4531,-2.4351,-2.4185,-2.3982,-2.3932,-2.3746,-2.3602,0.0,0.0,0.0,0.0,0.0,0.0,0.0,0.0,0.0,0.0,0.0,0.0,0.0,0.0,0.0,0.0,0.0,0.0,0.0,0.0,0.0,0.0,0.0,0.0,0.0,0.0,0.0,0.0,0.0,0.0,0.0,0.0,0.0,0.0,0.0,0.0,0.0,0.0,0.0,0.0,0.0,0.0,-1.7122,-1.696,-1.6844,-1.6701,-1.656,-1.6431,0.0,0.0,-1.5943,-1.5852,-1.5954,-1.6188,-1.6495,-1.6822,-1.7242,-1.7888,-1.9058,0.0,0.0,-2.183,-2.2673,-2.3319,-2.3319,-2.3275,-2.3231,-2.3231,-2.3231,-2.329,-2.3414,-2.3494,-2.3842,-2.487,-2.5356,-2.6143,-2.7719,-2.8495,-2.9113,-2.984,-3.0258,-3.0369,-2.9935,-3.0521,-3.0944,-3.0984,-3.1103,-3.119,-3.119,-3.119,-3.119,-3.119,-3.119,-3.119,-3.119,-3.119,-3.0928,-3.0395,-2.9394,-2.8606,-2.7969,-2.6904,-2.6195,-2.5836,-2.5629,-2.5363,-2.5068,-2.4958,-2.4726,-2.4449,-2.4276,-2.4101,-2.3932,-2.3789,-2.3696,-2.3602,0.0,0.0,0.0,0.0,0.0,0.0,0.0,0.0,0.0,0.0,0.0,0.0,0.0,0.0,0.0,0.0,0.0,0.0,0.0,0.0,0.0,0.0,0.0,0.0,0.0,0.0,0.0,0.0,0.0,0.0,0.0,0.0,0.0,0.0,0.0,0.0,0.0,0.0,0.0,0.0,0.0,0.0,-1.696,-1.6761,-1.6723,-1.6701,-1.656,0.0,0.0,0.0,-1.6008,-1.5991,-1.5996,-1.6225,0.0,-1.6808,-1.7502,0.0,0.0,0.0,-2.1289,-2.2015,-2.2731,-2.3319,-2.3319,-2.3201,-2.3134,-2.3134,-2.3134,-2.3171,-2.3275,-2.348,-2.3957,-2.5017,-2.604,-2.7008,-2.7939,-2.9042,-2.9873,-3.0138,-3.035,-3.0634,0.0,-3.0958,-3.1015,-3.1015,-3.1103,-3.119,-3.119,-3.119,-3.119,-3.119,-3.119,-3.119,-3.119,-3.119,-3.1182,-3.114,-2.9555,-2.8802,-2.8698,-2.7003,-2.6043,-2.5692,-2.5484,-2.527,-2.4966,-2.4718,-2.4467,-2.431,-2.4109,-2.3932,-2.3789,-2.3645,-2.3602,-2.3602,0.0,0.0,0.0,0.0,0.0,0.0,0.0,0.0,0.0,0.0,0.0,0.0,0.0,0.0,0.0,0.0,0.0,0.0,0.0,0.0,0.0,0.0,0.0,0.0,0.0,0.0,0.0,0.0,0.0,0.0,0.0,0.0,0.0,0.0,0.0,0.0,0.0,0.0,0.0,0.0,0.0,0.0,-1.6797,-1.6742,-1.6637,-1.6582,0.0,0.0,0.0,0.0,0.0,0.0,-1.6249,0.0,0.0,-1.7557,0.0,0.0,0.0,0.0,-2.1905,-2.2322,-2.294,-2.3414,-2.3319,-2.3209,-2.3082,-2.2992,-2.2992,-2.303,-2.3275,-2.3451,-2.4035,-2.5612,-2.6342,-2.7232,-2.8825,-2.9636,-3.0138,-3.035,-3.0642,0.0,0.0,0.0,0.0,-3.1112,-3.119,-3.119,-3.119,-3.119,-3.119,-3.119,-3.119,-3.119,-3.119,-3.119,-3.1151,-3.1047,-2.9403,-2.8056,-2.7061,-2.6249,-2.5799,-2.5637,-2.5278,-2.5045,-2.4854,-2.4515,-2.431,-2.4208,-2.3975,-2.3839,-2.3789,-2.3645,-2.3602,-2.3602,0.0,0.0,0.0,0.0,0.0,0.0,0.0,0.0,0.0,0.0,0.0,0.0,0.0,0.0,0.0,0.0,0.0,0.0,0.0,0.0,0.0,0.0,0.0,0.0,0.0,0.0,0.0,0.0,0.0,0.0,0.0,0.0,0.0,0.0,0.0,0.0,0.0,0.0,0.0,0.0,0.0,0.0,-1.6731,-1.688,-1.6905,0.0,0.0,0.0,0.0,0.0,0.0,0.0,0.0,0.0,0.0,0.0,0.0,0.0,0.0,-2.1525,-2.2391,-2.2782,-2.3154,-2.3414,-2.3319,-2.312,-2.2962,-2.2864,-2.2864,-2.2947,-2.3179,-2.34,-2.4154,-2.5992,-2.6593,-2.7502,-2.9331,-2.9973,-3.0367,-3.0568,-3.0855,-3.1095,0.0,0.0,0.0,-3.119,-3.119,-3.119,-3.119,-3.119,-3.119,-3.119,-3.119,-3.119,-3.1112,-3.1112,-3.0794,-3.0099,-2.9007,-2.764,-2.6123,-2.5807,-2.5584,-2.5456,-2.5131,-2.4894,-2.4661,-2.4392,-2.4234,-2.4124,-2.3882,-2.3789,-2.3703,-2.361,-2.3566,-2.3566,0.0,0.0,0.0,0.0,0.0,0.0,0.0,0.0,0.0,0.0,0.0,0.0,0.0,0.0,0.0,0.0,0.0,0.0,0.0,0.0,0.0,0.0,0.0,0.0,0.0,0.0,0.0,0.0,0.0,0.0,0.0,0.0,0.0,0.0,0.0,0.0,0.0,0.0,0.0,0.0,0.0,0.0,-1.6813,-1.7269,0.0,0.0,0.0,0.0,0.0,0.0,0.0,0.0,0.0,0.0,0.0,0.0,0.0,-2.0201,-2.162,-2.2269,-2.2686,-2.3353,-2.3414,-2.3319,-2.3275,-2.3045,-2.2802,-2.2802,-2.2802,-2.2879,0.0,0.0,-2.4204,-2.611,-2.6792,-2.7715,-2.9488,-3.0119,-3.0493,0.0,0.0,0.0,0.0,0.0,0.0,-3.123,0.0,-3.119,-3.119,-3.119,-3.119,-3.119,-3.119,-3.1112,-3.1015,-3.0975,-3.0157,-2.8472,-2.8412,-2.7527,-2.5982,-2.5712,-2.5494,-2.5256,-2.5053,-2.4774,-2.4498,-2.4351,-2.4185,-2.3982,-2.3839,-2.3696,-2.361,-2.3538,-2.3509,-2.3509,0.0,0.0,0.0,0.0,0.0,0.0,0.0,0.0,0.0,0.0,0.0,0.0,0.0,0.0,0.0,0.0,0.0,0.0,0.0,0.0,0.0,0.0,0.0,0.0,0.0,0.0,0.0,0.0,0.0,0.0,0.0,0.0,0.0,0.0,0.0,0.0,0.0,0.0,0.0,0.0,0.0,0.0,-1.7817,0.0,0.0,0.0,0.0,0.0,0.0,0.0,0.0,0.0,0.0,0.0,-1.952,0.0,0.0,-2.1533,-2.2102,-2.2714,-2.3301,-2.3472,-2.3414,-2.3275,-2.3157,-2.2962,-2.2802,-2.2802,-2.2802,-2.2879,0.0,0.0,0.0,-2.611,-2.6871,0.0,-2.9648,-3.0316,0.0,0.0,0.0,-3.1321,-3.1423,-3.1351,0.0,0.0,-3.1221,-3.119,-3.119,-3.119,-3.119,-3.119,-3.1103,-3.1015,-3.1015,-3.0765,-2.9879,-2.8412,-2.8193,-2.7273,-2.572,-2.5516,-2.5317,-2.5053,-2.4799,-2.4556,-2.4359,-2.4143,-2.3975,-2.3839,-2.3696,-2.361,-2.3538,-2.3509,-2.3458,-2.3319,0.0,0.0,0.0,0.0,0.0,0.0,0.0,0.0,0.0,0.0,0.0,0.0,0.0,0.0,0.0,0.0,0.0,0.0,0.0,0.0,0.0,0.0,0.0,0.0,0.0,0.0,0.0,0.0,0.0,0.0,0.0,0.0,0.0,0.0,0.0,0.0,0.0,0.0,0.0,0.0,0.0,0.0,0.0,0.0,0.0,0.0,0.0,0.0,0.0,0.0,0.0,-1.91,-1.9405,-1.9765,-2.0227,-2.0811,0.0,-2.2184,-2.2613,-2.3125,-2.3538,-2.3509,-2.3414,-2.3231,-2.306,-2.285,-2.2689,-2.2636,-2.2682,0.0,0.0,0.0,0.0,0.0,0.0,0.0,-2.9813,-3.0443,-3.0814,0.0,-3.1299,0.0,-3.1529,-3.1445,-3.1406,0.0,-3.126,-3.119,-3.119,-3.1143,-3.1103,-3.1103,-3.1024,-3.0895,-3.0765,-3.056,-2.984,-2.859,-2.8094,-2.7201,-2.5984,-2.5461,-2.5115,-2.4894,0.0,-2.4392,-2.4242,-2.4024,-2.3882,-2.3789,-2.3617,-2.3538,-2.3466,-2.3385,-2.3238,-2.3083,0.0,0.0,0.0,0.0,0.0,0.0,0.0,0.0,0.0,0.0,0.0,0.0,0.0,0.0,0.0,0.0,0.0,0.0,0.0,0.0,0.0,0.0,0.0,0.0,0.0,0.0,0.0,0.0,0.0,0.0,0.0,0.0,0.0,0.0,0.0,0.0,0.0,0.0,0.0,0.0,0.0,0.0,0.0,0.0,0.0,0.0,0.0,0.0,0.0,0.0,-2.0066,-1.9416,-1.991,-2.024,-2.0651,-2.1503,-2.2026,-2.2511,-2.3135,-2.3436,-2.3566,-2.3494,-2.3371,-2.3231,-2.2949,-2.2737,-2.2562,-2.2417,0.0,0.0,-2.2852,0.0,-2.4247,-2.6272,0.0,-2.7989,-2.9933,-3.0526,-3.0855,-3.119,-3.1393,-3.1546,-3.1579,-3.1538,-3.1479,-3.147,-3.1277,-3.119,-3.119,-3.1063,-3.0975,-3.0935,-3.0863,-3.0733,-3.0476,-3.0359,-2.9828,-2.8884,-2.8045,-2.7211,-2.6391,-2.5409,-2.4894,-2.4742,-2.4441,-2.4234,-2.4124,-2.389,-2.3789,-2.3754,-2.3545,-2.3466,-2.3422,-2.3164,-2.2971,-2.2866,0.0,0.0,0.0,0.0,0.0,0.0,0.0,0.0,0.0,0.0,0.0,0.0,0.0,0.0,0.0,0.0,0.0,0.0,0.0,0.0,0.0,0.0,0.0,0.0,0.0,0.0,0.0,0.0,0.0,0.0,0.0,0.0,0.0,0.0,0.0,0.0,0.0,0.0,0.0,0.0,0.0,0.0,0.0,0.0,0.0,0.0,0.0,0.0,0.0,0.0,-2.0715,-2.076,-2.1165,-2.1536,-2.1935,-2.2316,-2.2759,-2.3135,-2.329,-2.3436,-2.3559,-2.34,-2.3319,-2.3238,-2.2872,-2.2721,0.0,0.0,0.0,-2.2646,-2.2852,-2.3282,0.0,-2.6272,0.0,0.0,0.0,0.0,-3.1032,0.0,0.0,0.0,0.0,0.0,0.0,0.0,0.0,-3.1015,-3.1015,-3.1015,-3.0887,-3.0609,-3.0568,-3.0485,-3.0231,-3.0035,-2.9548,-2.8816,-2.7795,-2.6882,-2.6067,-2.5217,-2.4653,-2.4392,-2.431,0.0,-2.3882,-2.3832,-2.3711,-2.3553,-2.3502,-2.3378,-2.3171,-2.3001,-2.2881,-2.2781,0.0,0.0,0.0,0.0,0.0,0.0,0.0,0.0,0.0,0.0,0.0,0.0,0.0,0.0,0.0,0.0,0.0,0.0,0.0,0.0,0.0,0.0,0.0,0.0,0.0,0.0,0.0,0.0,0.0,0.0,0.0,0.0,0.0,0.0,0.0,0.0,0.0,0.0,0.0,0.0,0.0,0.0,0.0,0.0,0.0,0.0,0.0,0.0,0.0,0.0,-2.0944,-2.1089,-2.1561,-2.1942,-2.2231,-2.2516,-2.2881,-2.3209,-2.3209,-2.3327,-2.3392,-2.3246,-2.3209,-2.312,-2.2766,0.0,0.0,0.0,0.0,-2.2646,-2.2852,0.0,0.0,0.0,0.0,0.0,0.0,0.0,0.0,0.0,0.0,0.0,0.0,0.0,0.0,0.0,0.0,-3.1015,-3.1015,-3.0846,-3.0651,-3.0443,-3.0316,-3.0181,-2.9992,-2.9826,-2.9488,-2.893,-2.7723,-2.6862,-2.6337,-2.508,-2.4434,-2.4302,-2.4135,-2.3959,-2.3789,-2.3739,-2.3617,-2.3509,-2.3414,-2.3231,-2.2963,-2.2888,-2.2721,-2.2438,0.0,0.0,0.0,0.0,0.0,0.0,0.0,0.0,0.0,0.0,0.0,0.0,0.0,0.0,0.0,0.0,0.0,0.0,0.0,0.0,0.0,0.0,0.0,0.0,0.0,0.0,0.0,0.0,0.0,0.0,0.0,0.0,0.0,0.0,0.0,0.0,0.0,0.0,0.0,0.0,0.0,0.0,0.0,0.0,0.0,0.0,0.0,0.0,0.0,0.0,-2.099,-2.1089,-2.1609,-2.1942,-2.2231,-2.2516,-2.2843,-2.3075,-2.3082,-2.3201,-2.3282,-2.312,-2.3082,-2.2985,-2.2654,-2.2562,0.0,0.0,-2.2417,-2.2646,-2.2852,0.0,0.0,0.0,0.0,0.0,0.0,0.0,0.0,0.0,0.0,0.0,0.0,0.0,0.0,0.0,0.0,-3.0887,-3.0887,-3.0601,-3.0401,-3.0266,-3.006,-2.987,-2.9669,-2.9621,-2.9412,-2.9059,-2.7619,-2.6863,-2.6598,-2.5018,-2.4268,-2.4177,-2.3917,-2.3789,-2.3739,-2.361,-2.353,-2.3458,-2.3275,-2.309,-2.2866,-2.2728,-2.2484,-2.2177,0.0,0.0,0.0,0.0,0.0,0.0,0.0,0.0,0.0,0.0,0.0,0.0,0.0,0.0,0.0,0.0,0.0,0.0,0.0,0.0,0.0,0.0,0.0,0.0,0.0,0.0,0.0,0.0,0.0,0.0,0.0,0.0,0.0,0.0,0.0,0.0,0.0,0.0,0.0,0.0,0.0,0.0,0.0,0.0,0.0,0.0,0.0,0.0,0.0,0.0,0.0,-2.1089,-2.1609,-2.1895,-2.2084,-2.2516,0.0,0.0,-2.3082,-2.3201,-2.3282,-2.312,-2.3016,-2.2852,-2.2654,0.0,0.0,0.0,-2.2417,-2.2646,-2.2852,-2.3282,0.0,0.0,0.0,0.0,0.0,0.0,0.0,0.0,0.0,0.0,0.0,0.0,0.0,0.0,0.0,-3.0568,-3.0568,-3.035,-3.0095,-2.9845,-2.9845,-2.9677,-2.9342,-2.9213,-2.9075,-2.8896,-2.732,-2.6497,-2.6385,-2.4906,-2.4074,-2.3832,-2.3832,-2.3739,0.0,-2.3538,-2.3407,-2.3275,-2.3031,-2.2881,-2.2742,-2.2385,-2.2231,-2.213,0.0,0.0,0.0,0.0,0.0,0.0,0.0,0.0,0.0,0.0,0.0,0.0,0.0,0.0,0.0,0.0,0.0,0.0,0.0,0.0,0.0,0.0,0.0,0.0,0.0,0.0,0.0,0.0,0.0,0.0,0.0,0.0,0.0,0.0,0.0,0.0,0.0,0.0,0.0,0.0,0.0,0.0,0.0,0.0,0.0,0.0,0.0,0.0,0.0,0.0,0.0,0.0,-2.1657,-2.1942,0.0,0.0,-2.2706,-2.2857,-2.294,-2.303,-2.3068,-2.2985,-2.2902,-2.2812,-2.2661,0.0,0.0,-2.2324,-2.2463,-2.2692,-2.2986,-2.3341,-2.3985,0.0,0.0,0.0,0.0,0.0,0.0,0.0,0.0,0.0,0.0,0.0,0.0,0.0,-3.03,-3.007,-3.007,-2.9984,-2.987,-2.9746,-2.9515,-2.9289,-2.9167,-2.9006,-2.8607,-2.7961,-2.6962,-2.611,-2.5519,-2.445,-2.389,-2.3789,-2.3696,-2.3617,0.0,-2.3502,-2.3378,-2.3157,-2.2986,-2.2776,-2.2537,-2.2278,-2.199,-2.1705,0.0,0.0,0.0,0.0,0.0,0.0,0.0,0.0,0.0,0.0,0.0,0.0,0.0,0.0,0.0,0.0,0.0,0.0,0.0,0.0,0.0,0.0,0.0,0.0,0.0,0.0,0.0,0.0,0.0,0.0,0.0,0.0,0.0,0.0,0.0,0.0,0.0,0.0,0.0,0.0,0.0,0.0,0.0,0.0,0.0,0.0,0.0,0.0,0.0,0.0,0.0,0.0,0.0,0.0,0.0,0.0,-2.2675,-2.2795,-2.2857,-2.2895,-2.2895,-2.2895,-2.2872,-2.2749,0.0,0.0,-2.2463,-2.2417,-2.2523,-2.2752,-2.3046,-2.3377,-2.3917,0.0,0.0,0.0,0.0,0.0,0.0,0.0,0.0,0.0,0.0,0.0,0.0,0.0,-2.9897,-2.9677,-2.9589,-2.9536,-2.9552,-2.9502,-2.9213,-2.9029,-2.8943,-2.8568,-2.8038,-2.7342,-2.6412,-2.561,-2.4902,-2.4141,-2.3789,-2.3739,-2.3645,-2.3574,0.0,-2.3458,-2.329,-2.3023,-2.2866,-2.2632,-2.2324,-2.2084,-2.1642,-2.1159,0.0,0.0,0.0,0.0,0.0,0.0,0.0,0.0,0.0,0.0,0.0,0.0,0.0,0.0,0.0,0.0,0.0,0.0,0.0,0.0,0.0,0.0,0.0,0.0,0.0,0.0,0.0,0.0,0.0,0.0,0.0,0.0,0.0,0.0,0.0,0.0,0.0,0.0,0.0,0.0,0.0,0.0,0.0,0.0,0.0,0.0,0.0,0.0,0.0,0.0,0.0,0.0,0.0,0.0,0.0,0.0,-2.2675,-2.2795,-2.2857,-2.2895,-2.2895,-2.2895,-2.2872,-2.2749,0.0,0.0,-2.2562,-2.2417,-2.259,-2.2879,-2.3046,-2.3377,-2.3739,-2.4227,0.0,0.0,0.0,0.0,0.0,0.0,0.0,0.0,0.0,0.0,0.0,0.0,-2.9641,0.0,-2.9129,-2.8959,-2.8967,-2.9083,-2.8967,-2.8834,-2.8629,-2.7798,-2.7357,-2.7162,-2.5727,-2.4932,-2.4798,-2.4091,-2.3739,-2.3602,-2.3602,-2.3574,0.0,-2.3363,-2.3127,-2.2897,-2.2685,-2.2417,-2.213,-2.1752,-2.1185,-2.0548,0.0,0.0,0.0,0.0,0.0,0.0,0.0,0.0,0.0,0.0,0.0,0.0,0.0,0.0,0.0,0.0,0.0,0.0,0.0,0.0,0.0,0.0,0.0,0.0,0.0,0.0,0.0,0.0,0.0,0.0,0.0,0.0,0.0,0.0,0.0,0.0,0.0,0.0,0.0,0.0,0.0,0.0,0.0,0.0,0.0,0.0,0.0,0.0,0.0,0.0,0.0,0.0,0.0,0.0,0.0,0.0,0.0,0.0,-2.2857,-2.2895,-2.2895,-2.2895,-2.2872,-2.2802,-2.2749,0.0,-2.2615,-2.2644,-2.2759,-2.2918,-2.3179,-2.3523,-2.3875,-2.4219,-2.541,0.0,0.0,0.0,0.0,0.0,0.0,0.0,0.0,0.0,0.0,-2.947,-2.9235,-2.9005,-2.8834,-2.8661,-2.8676,-2.8881,-2.8684,-2.8301,-2.7767,-2.7363,-2.6603,-2.5546,-2.5077,-2.4535,-2.3945,-2.3743,-2.3645,-2.3602,-2.353,-2.3451,-2.3363,-2.3127,-2.2963,-2.2819,-2.247,-2.2177,-2.1846,-2.115,-2.0604,-2.012,0.0,0.0,0.0,0.0,0.0,0.0,0.0,0.0,0.0,0.0,0.0,0.0,0.0,0.0,0.0,0.0,0.0,0.0,0.0,0.0,0.0,0.0,0.0,0.0,0.0,0.0,0.0,0.0,0.0,0.0,0.0,0.0,0.0,0.0,0.0,0.0,0.0,0.0,0.0,0.0,0.0,0.0,0.0,0.0,0.0,0.0,0.0,0.0,0.0,0.0,0.0,0.0,0.0,0.0,0.0,0.0,0.0,0.0,0.0,-2.2895,-2.2895,-2.2895,-2.2864,0.0,0.0,0.0,0.0,-2.2812,-2.2933,-2.3046,-2.3327,-2.3625,-2.3875,-2.417,-2.5189,0.0,0.0,0.0,0.0,0.0,0.0,0.0,0.0,0.0,0.0,-2.9059,-2.8622,-2.8303,-2.8123,-2.771,-2.7524,-2.7666,-2.7817,-2.7531,-2.688,-2.6428,-2.5697,-2.4776,-2.4476,-2.4086,-2.3602,-2.3602,-2.361,-2.3574,-2.3502,-2.3363,0.0,-2.2986,-2.2776,-2.2544,-2.2285,-2.185,-2.1273,-2.0717,-2.002,-1.9226,0.0,0.0,0.0,0.0,0.0,0.0,0.0,0.0,0.0,0.0,0.0,0.0,0.0,0.0,0.0,0.0,0.0,0.0,0.0,0.0,0.0,0.0,0.0,0.0,0.0,0.0,0.0,0.0,-2.3125,-2.3386,-2.352,0.0,0.0,0.0,0.0,0.0,0.0,0.0,0.0,0.0,0.0,0.0,0.0,0.0,0.0,0.0,0.0,0.0,0.0,0.0,0.0,0.0,0.0,0.0,0.0,0.0,0.0,0.0,0.0,0.0,0.0,0.0,0.0,0.0,0.0,0.0,0.0,0.0,0.0,-2.3216,-2.3458,-2.3675,-2.3875,-2.4078,0.0,0.0,0.0,0.0,0.0,0.0,0.0,0.0,0.0,0.0,-2.867,-2.8537,-2.7767,-2.7234,-2.7069,-2.6366,-2.5902,-2.5703,-2.6408,-2.6525,-2.591,-2.5138,-2.4761,-2.4701,-2.3938,-2.3595,-2.3595,-2.3595,-2.3523,0.0,-2.3466,-2.3268,-2.2889,-2.2889,-2.2579,-2.2177,-2.2135,-2.1486,-2.0574,-2.03,-1.9334,-1.8048,0.0,0.0,0.0,0.0,0.0,0.0,0.0,0.0,0.0,0.0,0.0,0.0,0.0,0.0,0.0,0.0,0.0,0.0,0.0,0.0,0.0,0.0,0.0,0.0,0.0,0.0,0.0,-2.3142,-2.3421,-2.3608,-2.3717,-2.3834,0.0,0.0,0.0,0.0,0.0,0.0,0.0,0.0,0.0,0.0,0.0,0.0,0.0,0.0,-2.2177,-2.2278,0.0,0.0,0.0,0.0,0.0,0.0,0.0,0.0,-2.3231,0.0,0.0,0.0,0.0,0.0,0.0,0.0,0.0,0.0,0.0,0.0,0.0,0.0,0.0,0.0,0.0,0.0,0.0,0.0,0.0,0.0,0.0,0.0,0.0,0.0,0.0,0.0,-2.6902,-2.6665,-2.6328,-2.6121,-2.5916,-2.5727,-2.5304,-2.4652,-2.4839,-2.4932,-2.4852,-2.4573,-2.4193,-2.3813,-2.3518,-2.34,-2.3502,-2.3407,-2.3356,-2.3319,-2.3253,-2.306,-2.2889,-2.2632,-2.241,-2.2135,-2.1296,-2.075,-2.0287,-1.9096,-1.8328,-1.7858,0.0,0.0,0.0,0.0,0.0,0.0,0.0,0.0,0.0,0.0,0.0,0.0,0.0,0.0,0.0,0.0,0.0,0.0,0.0,0.0,0.0,0.0,0.0,0.0,0.0,0.0,0.0,0.0,0.0,-2.3951,0.0,0.0,0.0,0.0,0.0,0.0,0.0,0.0,0.0,0.0,0.0,0.0,0.0,0.0,0.0,0.0,-2.2417,-2.2523,0.0,-2.2692,-2.2843,-2.2955,0.0,0.0,0.0,0.0,-2.3371,-2.3407,-2.3436,0.0,0.0,0.0,0.0,0.0,0.0,0.0,0.0,0.0,0.0,0.0,0.0,0.0,0.0,0.0,0.0,0.0,0.0,0.0,0.0,0.0,0.0,0.0,0.0,0.0,-2.6016,-2.5809,-2.5362,-2.5058,-2.4855,-2.4513,-2.4082,-2.3586,-2.3579,-2.3715,-2.3941,-2.3858,-2.3688,-2.3414,-2.3319,-2.3319,-2.3414,-2.3319,-2.3224,-2.3127,-2.3053,-2.2866,-2.2632,-2.2417,-2.2023,-2.1465,-2.0849,-2.0111,-1.9333,-1.8423,-1.7804,-1.7372,0.0,0.0,0.0,0.0,0.0,0.0,0.0,0.0,0.0,0.0,0.0,0.0,0.0,0.0,0.0,0.0,0.0,0.0,0.0,0.0,0.0,0.0,0.0,0.0,0.0,0.0,0.0,0.0,0.0,0.0,0.0,0.0,0.0,0.0,0.0,0.0,0.0,0.0,0.0,0.0,0.0,0.0,0.0,0.0,0.0,0.0,0.0,0.0,0.0,-2.2956,-2.3053,-2.3164,-2.3282,0.0,0.0,0.0,0.0,0.0,-2.361,-2.353,-2.3363,0.0,0.0,0.0,0.0,0.0,0.0,0.0,0.0,0.0,0.0,0.0,0.0,0.0,0.0,0.0,0.0,0.0,0.0,0.0,0.0,0.0,0.0,-2.5515,-2.5339,-2.5097,-2.4456,-2.4002,-2.3839,-2.3201,-2.2754,-2.2618,-2.261,-2.2806,-2.3142,-2.3179,-2.3224,-2.3224,-2.3231,-2.3231,-2.3224,-2.3231,-2.3098,-2.2844,-2.2844,0.0,-2.2229,-2.2037,-2.1463,-2.0617,-2.0356,-1.9429,-1.8242,-1.8,-1.7452,-1.684,0.0,0.0,0.0,0.0,0.0,0.0,0.0,0.0,0.0,0.0,0.0,0.0,0.0,0.0,0.0,0.0,0.0,0.0,0.0,0.0,0.0,0.0,0.0,0.0,0.0,0.0,0.0,0.0,0.0,0.0,-2.4556,-2.4579,-2.4472,0.0,0.0,0.0,0.0,0.0,0.0,0.0,0.0,0.0,0.0,0.0,0.0,0.0,0.0,0.0,0.0,-2.3231,-2.3268,-2.3275,-2.3422,0.0,0.0,0.0,0.0,0.0,-2.3746,-2.3746,-2.3703,0.0,0.0,0.0,0.0,0.0,0.0,0.0,0.0,0.0,0.0,0.0,0.0,0.0,0.0,0.0,0.0,0.0,0.0,0.0,0.0,0.0,-2.3996,-2.3785,-2.357,-2.333,-2.3093,-2.286,-2.2651,-2.2559,-2.2417,-2.2263,-2.227,-2.2363,-2.2555,-2.2646,-2.2776,-2.2942,-2.2902,-2.2902,-2.2942,-2.2902,-2.2773,-2.2646,0.0,-2.2066,-2.145,-2.1132,-2.0553,-1.9785,-1.8976,-1.8444,-1.8039,-1.7348,-1.691,-1.6718,0.0,0.0,0.0,0.0,0.0,0.0,0.0,0.0,0.0,0.0,0.0,0.0,0.0,0.0,0.0,0.0,0.0,0.0,0.0,0.0,0.0,0.0,0.0,0.0,0.0,0.0,0.0,0.0,0.0,-2.4634,-2.4705,-2.4617,-2.4479,-2.4302,0.0,0.0,0.0,0.0,0.0,0.0,0.0,0.0,0.0,0.0,0.0,0.0,0.0,0.0,0.0,0.0,-2.3414,-2.3414,-2.353,0.0,0.0,0.0,0.0,0.0,-2.3789,-2.3932,-2.4024,0.0,0.0,0.0,0.0,0.0,0.0,0.0,0.0,0.0,0.0,0.0,0.0,0.0,0.0,0.0,0.0,0.0,0.0,0.0,0.0,-2.3538,-2.3253,-2.3068,-2.2897,-2.2632,-2.2449,-2.2263,-2.2177,-2.213,-2.2037,-2.199,-2.199,-2.199,-2.2084,-2.213,-2.2363,-2.273,-2.2714,-2.2714,-2.2723,-2.2622,-2.253,-2.2356,0.0,-2.144,-2.0993,-2.0422,-1.9751,-1.897,-1.8435,-1.7915,-1.7437,-1.6978,-1.6712,-1.6577,0.0,0.0,0.0,0.0,0.0,0.0,0.0,0.0,0.0,0.0,0.0,0.0,0.0,0.0,0.0,0.0,0.0,0.0,0.0,0.0,0.0,0.0,0.0,0.0,0.0,0.0,0.0,-2.436,-2.4649,-2.4839,-2.4831,-2.4687,-2.4556,0.0,0.0,0.0,0.0,0.0,0.0,0.0,0.0,0.0,0.0,0.0,0.0,0.0,0.0,0.0,0.0,0.0,0.0,0.0,0.0,0.0,0.0,0.0,-2.3696,-2.3789,-2.3839,-2.4024,-2.4216,0.0,0.0,0.0,0.0,0.0,0.0,0.0,0.0,0.0,0.0,0.0,0.0,0.0,0.0,0.0,0.0,0.0,0.0,0.0,-2.34,-2.3231,-2.2852,-2.2663,-2.248,-2.2278,-2.2037,-2.1895,-2.18,-2.1705,-2.1657,-2.1609,-2.1609,-2.1609,-2.1657,-2.1657,-2.1942,-2.2463,-2.2463,-2.2463,-2.2463,-2.237,-2.2231,-2.2002,-2.1303,-2.0788,-2.0448,-1.9649,-1.8866,-1.8173,-1.7902,-1.7463,-1.6924,-1.6712,-1.6577,-1.6515,0.0,0.0,0.0,0.0,0.0,0.0,0.0,0.0,0.0,0.0,0.0,0.0,0.0,0.0,0.0,0.0,0.0,0.0,0.0,0.0,0.0,0.0,0.0,0.0,0.0,-2.4196,-2.4377,-2.4574,-2.4718,-2.4846,-2.4997,-2.4854,-2.4726,0.0,0.0,0.0,0.0,0.0,0.0,0.0,0.0,0.0,0.0,0.0,0.0,0.0,0.0,0.0,0.0,0.0,0.0,0.0,0.0,0.0,0.0,0.0,-2.3696,-2.3839,-2.3932,-2.4074,-2.4257,-2.4416,0.0,0.0,0.0,0.0,0.0,0.0,0.0,0.0,0.0,0.0,0.0,0.0,0.0,0.0,0.0,0.0,0.0,0.0,-2.3031,-2.2859,-2.2646,-2.237,-2.213,-2.1848,-2.1705,-2.1513,-2.1277,-2.1229,-2.118,-2.1039,-2.1039,-2.1138,-2.1229,-2.1229,-2.1513,-2.2037,-2.2037,-2.2037,-2.2037,-2.2037,-2.1895,-2.163,-2.0926,-2.0222,-1.9539,-1.8583,-1.786,-1.7258,-1.706,-1.6878,-1.6718,-1.6571,-1.6522,-1.6515,0.0,0.0,0.0,0.0,0.0,0.0,0.0,0.0,0.0,0.0,0.0,0.0,0.0,0.0,0.0,0.0,0.0,0.0,0.0,0.0,0.0,0.0,0.0,-2.3975,-2.4101,-2.4317,-2.4482,-2.4589,-2.4806,-2.4934,-2.5013,-2.4862,0.0,0.0,0.0,0.0,0.0,0.0,0.0,0.0,0.0,0.0,0.0,0.0,0.0,0.0,0.0,0.0,0.0,0.0,0.0,0.0,0.0,0.0,0.0,0.0,0.0,-2.3932,-2.3982,-2.4109,0.0,0.0,0.0,0.0,0.0,0.0,0.0,0.0,0.0,0.0,0.0,0.0,0.0,0.0,0.0,0.0,0.0,0.0,-2.3054,-2.2476,-2.2243,-2.1908,-2.1302,-2.095,-2.0833,-2.098,-2.082,-2.0846,-2.1068,-2.1089,-2.1039,-2.099,-2.099,-2.1039,-2.1089,-2.1089,-2.118,-2.1375,-2.1561,-2.1609,-2.1609,-2.1561,-2.1267,-2.0786,-1.9993,-1.9268,-1.8563,-1.7761,-1.7189,-1.6882,-1.6663,-1.6491,-1.6368,-1.6318,-1.6318,-1.6318,0.0,0.0,0.0,0.0,0.0,0.0,0.0,0.0,0.0,0.0,0.0,0.0,0.0,0.0,0.0,0.0,0.0,0.0,0.0,0.0,0.0,0.0,0.0,-2.4116,-2.425,-2.4374,-2.4482,-2.4589,-2.4878,-2.5013,-2.5013,0.0,0.0,0.0,0.0,0.0,0.0,0.0,0.0,0.0,0.0,0.0,0.0,0.0,0.0,0.0,0.0,0.0,0.0,0.0,0.0,0.0,0.0,0.0,0.0,0.0,0.0,0.0,-2.3982,-2.4143,0.0,0.0,0.0,0.0,0.0,0.0,0.0,0.0,0.0,0.0,0.0,0.0,0.0,0.0,0.0,0.0,0.0,0.0,-2.2229,-2.1614,-2.1384,-2.0989,-2.0257,-1.9954,-1.9905,-2.0032,-1.9887,-1.998,-2.0281,-2.0423,-2.0466,-2.0466,-2.0644,-2.0736,-2.0736,-2.0736,-2.0736,-2.0736,-2.0742,-2.0944,-2.1264,-2.0944,-2.0588,-2.0154,-1.9146,-1.8414,-1.7878,-1.7143,-1.6699,-1.6547,-1.6405,-1.6275,-1.62,-1.62,-1.62,-1.62,0.0,0.0,0.0,0.0,0.0,0.0,0.0,0.0,0.0,0.0,0.0,0.0,0.0,0.0,0.0,0.0,0.0,0.0,0.0,0.0,0.0,0.0,0.0,-2.425,-2.431,-2.431,-2.4392,-2.4589,-2.4878,-2.5013,-2.5013,0.0,0.0,0.0,0.0,0.0,0.0,0.0,0.0,0.0,0.0,0.0,0.0,0.0,0.0,0.0,0.0,0.0,0.0,0.0,0.0,0.0,0.0,0.0,0.0,0.0,-2.3789,-2.3982,-2.3982,0.0,0.0,0.0,0.0,0.0,0.0,0.0,0.0,0.0,0.0,0.0,0.0,0.0,0.0,0.0,0.0,0.0,0.0,-2.1598,-2.0963,-2.0522,-2.0429,-2.0208,-1.9721,-1.9677,-1.9492,-1.9119,-1.9015,-1.8943,-1.8818,-1.9188,-1.9381,-1.9381,-1.9925,-2.0163,-2.0163,-2.0163,-2.0163,-2.0156,-1.965,-1.9976,-2.0963,-2.0289,-1.991,-1.9723,-1.8455,-1.7797,-1.7537,-1.6791,-1.6399,-1.62,-1.6194,-1.6194,-1.6194,-1.6194,-1.6194,-1.6194,0.0,0.0,0.0,0.0,0.0,0.0,0.0,0.0,0.0,0.0,0.0,0.0,0.0,0.0,0.0,0.0,0.0,0.0,0.0,0.0,0.0,0.0,0.0,0.0,0.0,0.0,-2.4549,-2.4589,-2.4878,-2.5013,0.0,0.0,0.0,-2.5037,0.0,0.0,0.0,0.0,0.0,0.0,0.0,0.0,0.0,0.0,0.0,0.0,0.0,0.0,0.0,0.0,0.0,0.0,0.0,0.0,0.0,-2.3602,-2.3789,-2.3982,-2.3982,0.0,0.0,0.0,0.0,0.0,0.0,0.0,0.0,0.0,0.0,0.0,0.0,0.0,0.0,0.0,0.0,0.0,-2.1489,-2.1162,-2.0666,-1.9885,-1.96,-1.9218,-1.848,-1.8202,-1.8163,-1.8392,-1.8285,-1.8364,-1.8634,-1.8761,-1.8851,-1.8851,-1.9012,-1.9047,-1.9047,-1.9047,-1.9047,-1.9047,-1.8928,-1.9188,-1.9869,-1.9305,-1.8726,-1.8241,-1.7734,-1.7232,-1.6717,-1.6199,-1.5919,-1.5848,-1.5742,-1.5697,-1.5697,-1.5697,-1.5697,-1.5697,0.0,0.0,0.0,0.0,0.0,0.0,0.0,0.0,0.0,0.0,0.0,0.0,0.0,0.0,0.0,0.0,0.0,0.0,0.0,0.0,0.0,0.0,0.0,0.0,0.0,-2.4597,-2.4686,0.0,0.0,0.0,0.0,0.0,0.0,-2.5193,0.0,0.0,0.0,0.0,0.0,0.0,0.0,0.0,0.0,0.0,0.0,0.0,0.0,0.0,0.0,0.0,0.0,0.0,0.0,0.0,0.0,-2.3602,-2.3739,-2.3932,0.0,0.0,0.0,0.0,0.0,0.0,0.0,0.0,0.0,0.0,0.0,0.0,0.0,0.0,0.0,0.0,0.0,-2.0823,-2.0735,-2.0275,-1.9691,-1.9074,-1.8768,-1.8372,-1.776,-1.7474,-1.7411,-1.7635,-1.7519,-1.7535,-1.783,-1.8015,-1.8136,-1.8136,-1.8306,-1.842,-1.842,-1.842,-1.842,-1.842,-1.8191,-1.8202,-1.8526,-1.8242,-1.7912,-1.7498,-1.7003,-1.6539,-1.6094,-1.5748,-1.5576,-1.5537,-1.5379,-1.5334,-1.5334,-1.5334,-1.5379,-1.543,0.0,0.0,0.0,0.0,0.0,0.0,0.0,0.0,0.0,0.0,0.0,0.0,0.0,0.0,0.0,0.0,0.0,0.0,0.0,0.0,0.0,0.0,0.0,0.0,0.0,0.0,0.0,0.0,0.0,0.0,0.0,0.0,-2.5193,-2.5333,0.0,0.0,0.0,0.0,0.0,0.0,0.0,0.0,0.0,0.0,0.0,0.0,0.0,0.0,0.0,0.0,0.0,0.0,0.0,0.0,0.0,-2.3602,-2.3696,0.0,0.0,0.0,0.0,0.0,0.0,0.0,0.0,0.0,0.0,0.0,0.0,0.0,0.0,0.0,0.0,0.0,-2.105,-2.0004,-1.9965,-1.9091,-1.8439,-1.8202,-1.8003,-1.776,-1.7398,-1.726,-1.7122,-1.696,-1.6803,-1.6682,-1.6675,-1.7074,-1.73,-1.7306,-1.7796,-1.8053,-1.8013,-1.8053,-1.8053,-1.8,-1.7389,-1.7095,-1.7095,-1.7249,-1.7261,-1.7185,-1.6181,-1.5703,-1.5626,-1.5351,-1.5267,-1.5216,-1.5114,-1.5068,-1.5068,-1.5068,-1.5165,-1.5222,0.0,0.0,0.0,0.0,0.0,0.0,0.0,0.0,0.0,0.0,0.0,0.0,0.0,0.0,0.0,0.0,0.0,0.0,0.0,0.0,0.0,0.0,0.0,0.0,0.0,0.0,0.0,0.0,0.0,0.0,0.0,0.0,0.0,-2.5532,0.0,-2.5725,0.0,0.0,0.0,0.0,0.0,0.0,0.0,-2.4638,-2.4426,0.0,0.0,0.0,0.0,0.0,0.0,0.0,0.0,-2.3696,-2.3602,-2.3602,-2.3696,0.0,0.0,0.0,0.0,0.0,0.0,0.0,0.0,0.0,0.0,0.0,0.0,0.0,0.0,0.0,0.0,0.0,-2.024,-1.919,-1.8903,-1.8641,-1.8361,-1.8003,-1.7842,-1.7597,-1.7295,-1.7122,-1.696,-1.6761,-1.6725,-1.6633,-1.6485,-1.656,-1.6585,-1.646,-1.6654,-1.676,-1.6633,-1.6716,-1.6716,-1.6633,-1.6465,-1.641,-1.641,-1.646,-1.6328,-1.6138,-1.5623,-1.5345,-1.5204,-1.5057,-1.4983,-1.4914,-1.4868,-1.4868,-1.4868,-1.4868,-1.4868,-1.4914,0.0,0.0,0.0,0.0,0.0,0.0,0.0,0.0,0.0,0.0,0.0,0.0,0.0,0.0,0.0,0.0,0.0,0.0,0.0,0.0,0.0,0.0,0.0,0.0,0.0,0.0,0.0,0.0,0.0,0.0,0.0,0.0,0.0,-2.5749,0.0,-2.5844,0.0,0.0,0.0,0.0,0.0,0.0,0.0,-2.4839,-2.4638,-2.4426,-2.4426,0.0,0.0,0.0,0.0,0.0,0.0,0.0,-2.3696,-2.3696,0.0,0.0,0.0,0.0,0.0,0.0,0.0,0.0,0.0,0.0,0.0,0.0,0.0,0.0,0.0,0.0,0.0,-2.1136,-1.98,-1.8736,-1.8517,-1.8321,-1.8123,-1.7842,-1.759,-1.7378,-1.7122,-1.6911,-1.6742,-1.662,-1.6504,-1.6411,-1.6318,-1.6318,-1.6281,-1.62,-1.6281,-1.6281,-1.62,-1.6281,-1.6281,-1.62,-1.6063,-1.5975,-1.5881,-1.5969,-1.5792,-1.5474,-1.53,-1.5074,-1.4846,-1.4737,-1.4605,-1.4529,-1.4441,-1.44,-1.44,-1.44,-1.4441,-1.4477,0.0,0.0,0.0,0.0,0.0,0.0,0.0,0.0,0.0,0.0,0.0,0.0,0.0,0.0,0.0,0.0,0.0,0.0,0.0,0.0,0.0,0.0,0.0,0.0,0.0,0.0,0.0,0.0,0.0,0.0,0.0,0.0,0.0,0.0,0.0,0.0,0.0,0.0,0.0,0.0,0.0,0.0,0.0,0.0,-2.4878,-2.467,-2.467,-2.4549,-2.4343,-2.4343,0.0,0.0,0.0,0.0,-2.3789,0.0,0.0,0.0,0.0,0.0,0.0,0.0,0.0,0.0,0.0,0.0,0.0,0.0,0.0,0.0,0.0,0.0,0.0,-2.1005,-1.9568,-1.8478,-1.84,-1.8076,-1.7794,-1.7631,-1.7337,-1.7122,-1.6911,-1.665,-1.6479,-1.6436,-1.6275,-1.615,-1.615,-1.6106,-1.6106,-1.6106,-1.6106,-1.615,-1.615,-1.615,-1.6113,-1.6106,-1.5836,-1.5608,-1.5424,-1.5564,-1.543,-1.5108,-1.5017,-1.484,-1.4529,-1.4384,-1.428,-1.4134,-1.4062,-1.402,-1.402,-1.402,-1.4057,-1.4134,0.0,0.0,0.0,0.0,0.0,0.0,0.0,0.0,0.0,0.0,0.0,0.0,0.0,0.0,0.0,0.0,0.0,0.0,0.0,0.0,0.0,0.0,0.0,0.0,0.0,0.0,0.0,0.0,0.0,0.0,0.0,0.0,0.0,0.0,0.0,0.0,0.0,0.0,0.0,0.0,0.0,0.0,0.0,0.0,-2.5131,-2.4934,-2.4934,-2.4759,-2.4549,-2.4549,-2.4426,0.0,0.0,0.0,0.0,0.0,0.0,0.0,0.0,0.0,0.0,0.0,0.0,0.0,0.0,0.0,0.0,0.0,0.0,0.0,0.0,0.0,0.0,-2.0522,-1.9359,-1.84,-1.8043,-1.7814,-1.7598,-1.7282,-1.7122,-1.6911,-1.6607,-1.6522,-1.6436,-1.6237,-1.6094,-1.5963,-1.5881,-1.5804,-1.576,-1.576,-1.5842,-1.5836,-1.5836,-1.5836,-1.5842,-1.576,-1.5486,-1.53,-1.5153,-1.5051,-1.5051,-1.5062,-1.4651,-1.4471,-1.4425,-1.415,-1.4015,-1.4015,-1.4015,-1.402,-1.402,-1.402,-1.4015,-1.4015,0.0,0.0,0.0,0.0,0.0,0.0,0.0,0.0,0.0,0.0,0.0,0.0,0.0,0.0,0.0,0.0,0.0,0.0,0.0,0.0,0.0,0.0,0.0,0.0,0.0,0.0,0.0,0.0,0.0,0.0,0.0,-2.6867,-2.6495,0.0,0.0,0.0,0.0,0.0,0.0,0.0,0.0,0.0,0.0,0.0,0.0,0.0,-2.517,-2.5037,0.0,0.0,0.0,0.0,0.0,0.0,0.0,0.0,0.0,0.0,0.0,0.0,0.0,0.0,0.0,0.0,0.0,0.0,0.0,0.0,0.0,0.0,0.0,0.0,0.0,-2.0493,-1.944,-1.846,-1.7862,-1.7564,-1.7317,-1.708,-1.6869,-1.6656,-1.6479,-1.6225,-1.605,-1.5969,-1.583,-1.5686,-1.5653,-1.5608,-1.557,-1.557,-1.5608,-1.5647,-1.5647,-1.5647,-1.5564,-1.5345,-1.5153,-1.5028,-1.4897,-1.4702,-1.4645,-1.4697,-1.4471,-1.4285,-1.4051,-1.3962,-1.3821,-1.3768,-1.3768,-1.3768,-1.3768,-1.3768,-1.3768,-1.3768,0.0,0.0,0.0,0.0,0.0,0.0,0.0,0.0,0.0,0.0,0.0,0.0,0.0,0.0,0.0,0.0,0.0,0.0,0.0,0.0,0.0,0.0,0.0,0.0,0.0,0.0,0.0,0.0,0.0,0.0,-2.7687,-2.74,-2.699,0.0,-2.6294,0.0,0.0,0.0,0.0,0.0,0.0,0.0,0.0,0.0,0.0,0.0,0.0,0.0,0.0,0.0,0.0,0.0,0.0,0.0,0.0,0.0,0.0,0.0,0.0,0.0,0.0,0.0,0.0,0.0,0.0,0.0,0.0,0.0,0.0,0.0,0.0,0.0,0.0,-2.0522,-1.9469,-1.8524,-1.7899,-1.7367,-1.6983,-1.6827,-1.6565,-1.6343,-1.6269,-1.5969,-1.5754,-1.5665,-1.5519,-1.5373,-1.5373,-1.5334,-1.534,-1.5373,-1.5373,-1.5367,-1.5379,-1.5367,-1.5238,-1.5028,-1.4869,-1.4743,-1.4684,-1.4436,-1.4291,-1.4239,-1.4239,-1.4098,-1.3815,-1.3768,-1.3668,-1.3615,-1.3615,-1.3615,-1.3615,-1.3615,-1.3615,-1.3615,0.0,0.0,0.0,0.0,0.0,0.0,0.0,0.0,0.0,0.0,0.0,0.0,0.0,0.0,0.0,0.0,0.0,0.0,0.0,0.0,0.0,0.0,0.0,0.0,0.0,0.0,0.0,0.0,0.0,0.0,-2.9268,-2.7909,-2.7292,-2.7226,-2.651,-2.6212,-2.6212,0.0,0.0,0.0,0.0,0.0,0.0,0.0,0.0,0.0,0.0,0.0,0.0,0.0,0.0,0.0,0.0,0.0,0.0,0.0,0.0,0.0,0.0,0.0,0.0,0.0,0.0,0.0,0.0,0.0,0.0,0.0,0.0,0.0,0.0,0.0,0.0,-2.0579,-1.9429,-1.8508,-1.8142,-1.7288,-1.6674,-1.6522,-1.6213,-1.5951,-1.583,-1.5754,-1.5576,-1.5357,-1.5204,-1.5057,-1.4954,-1.4851,-1.4857,-1.4949,-1.4949,-1.5006,-1.5108,-1.5006,-1.488,-1.4828,-1.4529,-1.4419,-1.4425,-1.415,-1.3968,-1.3815,-1.3815,-1.3821,-1.3768,-1.3668,-1.3621,-1.3615,-1.3615,-1.3615,-1.3615,-1.3615,-1.3615,-1.3615,0.0,0.0,0.0,0.0,0.0,0.0,0.0,0.0,0.0,0.0,0.0,0.0,0.0,0.0,0.0,0.0,0.0,0.0,0.0,0.0,0.0,0.0,0.0,0.0,0.0,0.0,0.0,0.0,0.0,-2.997,-2.9392,-2.8431,-2.7765,-2.7284,-2.6535,-2.6212,-2.6212,-2.6212,0.0,0.0,0.0,0.0,0.0,0.0,0.0,0.0,0.0,0.0,0.0,0.0,0.0,0.0,0.0,0.0,0.0,0.0,0.0,0.0,0.0,0.0,0.0,0.0,0.0,0.0,0.0,0.0,0.0,0.0,0.0,0.0,0.0,0.0,0.0,-2.0475,-1.9807,-1.9094,-1.8344,-1.7593,-1.7017,-1.6608,-1.6169,-1.5786,-1.5486,-1.539,-1.5244,-1.5057,-1.4886,-1.4754,-1.4702,-1.4616,-1.4569,-1.4599,-1.4651,-1.4748,-1.4759,-1.4651,-1.4507,-1.4425,-1.4244,-1.415,-1.4156,-1.3962,-1.3868,-1.3815,-1.3721,-1.3663,-1.3668,-1.3615,-1.3615,-1.3615,-1.3615,-1.3663,-1.3721,-1.3721,-1.3768,-1.3868,0.0,0.0,0.0,0.0,0.0,0.0,0.0,0.0,0.0,0.0,0.0,0.0,0.0,0.0,0.0,0.0,0.0,0.0,0.0,0.0,0.0,0.0,0.0,0.0,0.0,0.0,0.0,0.0,0.0,0.0,0.0,0.0,-2.8155,-2.764,-2.6642,0.0,0.0,0.0,0.0,-2.6212,0.0,0.0,-2.6222,0.0,0.0,0.0,0.0,0.0,0.0,0.0,0.0,0.0,0.0,0.0,0.0,0.0,0.0,0.0,0.0,0.0,0.0,0.0,0.0,0.0,0.0,0.0,0.0,0.0,0.0,0.0,0.0,0.0,0.0,-2.048,-1.9994,-1.941,-1.8637,-1.7891,-1.7276,-1.6889,-1.6282,-1.5733,-1.551,-1.5171,-1.488,-1.4731,-1.4558,0.0,-1.4389,-1.4291,-1.4291,-1.4291,-1.4343,-1.4389,-1.4389,-1.4291,-1.4239,-1.414,-1.401,-1.3915,-1.3921,-1.3768,-1.3716,-1.3716,-1.3673,-1.3621,-1.3615,-1.3668,-1.3668,-1.3663,-1.3716,-1.3773,-1.3873,-1.3873,-1.3921,-1.402,0.0,0.0,0.0,0.0,0.0,0.0,0.0,0.0,0.0,0.0,0.0,0.0,0.0,0.0,0.0,0.0,0.0,0.0,0.0,0.0,0.0,0.0,0.0,0.0,0.0,0.0,0.0,0.0,0.0,0.0,0.0,0.0,-2.8373,0.0,-2.6858,-2.6176,-2.6176,0.0,-2.6212,-2.6212,0.0,-2.6295,-2.6295,0.0,0.0,0.0,-2.6339,-2.625,0.0,0.0,0.0,0.0,0.0,0.0,0.0,0.0,0.0,0.0,0.0,0.0,0.0,0.0,0.0,0.0,0.0,0.0,0.0,0.0,0.0,0.0,0.0,0.0,0.0,-2.061,-1.9913,-1.9321,-1.9045,-1.8069,-1.7436,-1.7387,-1.6531,-1.593,-1.5883,-1.5114,-1.4551,-1.44,-1.428,-1.414,-1.402,-1.3973,-1.3973,-1.3973,-1.3968,-1.3968,-1.3968,-1.3968,-1.3968,-1.3973,-1.3868,-1.3768,-1.3773,-1.3668,-1.3621,-1.3615,-1.3768,-1.3716,-1.3615,-1.3763,-1.3821,-1.3821,-1.3968,-1.4015,-1.4015,-1.402,-1.402,-1.402,0.0,0.0,0.0,0.0,0.0,0.0,0.0,0.0,0.0,0.0,0.0,0.0,0.0,0.0,0.0,0.0,0.0,0.0,0.0,0.0,0.0,0.0,0.0,0.0,0.0,0.0,0.0,0.0,0.0,0.0,0.0,0.0,0.0,0.0,-2.664,-2.6007,-2.6071,-2.6168,0.0,0.0,-2.6268,-2.6295,0.0,0.0,0.0,0.0,0.0,-2.6304,0.0,0.0,-2.5754,-2.5513,0.0,0.0,0.0,0.0,0.0,0.0,-2.3319,0.0,0.0,0.0,0.0,0.0,0.0,0.0,0.0,0.0,0.0,0.0,0.0,0.0,0.0,0.0,-1.9934,-1.9579,-1.9181,-1.846,-1.7832,-1.7476,-1.6821,-1.6268,-1.5875,-1.529,-1.4865,0.0,-1.4201,-1.3858,-1.3716,-1.3615,-1.3615,-1.3721,-1.3815,-1.3868,-1.3868,-1.3868,-1.3821,-1.3716,-1.3663,-1.3668,-1.3668,-1.3716,-1.3721,-1.3763,-1.3873,-1.3921,-1.3868,-1.3921,-1.3921,-1.3968,-1.4093,-1.4186,-1.4291,-1.4389,-1.4493,-1.4545,0.0,0.0,0.0,0.0,0.0,0.0,0.0,0.0,0.0,0.0,0.0,0.0,0.0,0.0,0.0,0.0,0.0,0.0,0.0,0.0,0.0,-3.1347,0.0,0.0,0.0,0.0,0.0,0.0,0.0,0.0,0.0,0.0,0.0,0.0,0.0,0.0,0.0,0.0,0.0,0.0,-2.632,0.0,0.0,-2.6521,-2.6598,0.0,0.0,0.0,-2.6312,-2.5998,-2.5733,0.0,0.0,0.0,0.0,0.0,0.0,0.0,0.0,0.0,0.0,0.0,0.0,0.0,-2.2417,-2.2324,-2.2177,0.0,0.0,0.0,0.0,0.0,0.0,0.0,-1.9869,-1.9552,-1.9233,-1.8716,-1.8218,-1.775,-1.7145,-1.6581,-1.612,-1.5582,-1.5155,-1.4919,-1.4328,-1.3871,-1.3525,-1.3367,-1.3362,-1.3415,-1.3568,-1.3615,-1.3615,-1.3673,-1.3668,-1.3615,-1.3615,-1.3621,-1.3673,-1.3768,-1.3815,-1.3868,-1.4057,-1.415,-1.4203,-1.4302,-1.4255,-1.4197,-1.4384,-1.4477,-1.4581,-1.4627,-1.473,-1.4782,0.0,0.0,0.0,0.0,0.0,0.0,0.0,0.0,0.0,0.0,0.0,0.0,0.0,0.0,0.0,0.0,0.0,0.0,0.0,0.0,0.0,-3.1483,-3.1316,-3.119,0.0,0.0,0.0,0.0,0.0,0.0,0.0,0.0,0.0,0.0,0.0,0.0,0.0,0.0,0.0,-2.6212,-2.638,-2.6485,0.0,0.0,-2.6691,0.0,-2.6546,-2.6493,-2.645,-2.6035,-2.5621,0.0,0.0,0.0,0.0,0.0,-2.3832,0.0,0.0,0.0,0.0,0.0,0.0,0.0,-2.2477,-2.2417,-2.2278,-2.1895,-2.18,0.0,0.0,0.0,0.0,0.0,-1.9772,-1.9362,-1.9186,-1.8821,-1.8452,-1.809,-1.7475,-1.6933,-1.6596,-1.5902,-1.5425,-1.529,-1.465,-1.4024,-1.3458,-1.3291,-1.3213,-1.3213,-1.3314,-1.342,-1.3415,-1.3515,-1.3621,-1.3615,-1.3615,-1.3668,-1.3821,-1.3868,-1.3915,-1.4067,-1.4337,-1.4471,-1.4471,-1.4725,-1.4667,-1.4466,-1.4725,-1.4822,-1.4874,-1.4868,-1.4868,-1.4874,0.0,0.0,0.0,0.0,0.0,0.0,0.0,0.0,0.0,0.0,0.0,0.0,0.0,0.0,0.0,0.0,0.0,0.0,0.0,0.0,-3.0711,-3.1483,-3.1316,-3.119,0.0,0.0,0.0,0.0,0.0,0.0,0.0,0.0,0.0,0.0,0.0,0.0,0.0,0.0,0.0,-2.6063,-2.6277,0.0,-2.652,-2.658,-2.6649,-2.67,-2.6546,-2.6493,-2.6407,0.0,-2.553,-2.5248,0.0,0.0,0.0,0.0,0.0,0.0,0.0,0.0,0.0,0.0,0.0,0.0,-2.2735,-2.253,-2.2324,0.0,0.0,0.0,0.0,0.0,0.0,0.0,-1.9772,-1.9316,-1.9093,-1.8774,-1.8404,-1.7816,-1.7622,-1.739,-1.6926,-1.6342,-1.5913,-1.5746,-1.4759,-1.4057,-1.3811,-1.3414,-1.3213,-1.3213,-1.3314,-1.3462,-1.3568,-1.3568,-1.3663,-1.3768,-1.3768,-1.3815,-1.3968,-1.4192,-1.4285,-1.4337,-1.4627,-1.4759,-1.4817,-1.4971,-1.4971,-1.4817,-1.4971,-1.5125,-1.5222,-1.53,-1.5306,-1.5182,0.0,0.0,0.0,0.0,0.0,0.0,0.0,0.0,0.0,0.0,0.0,0.0,0.0,0.0,0.0,0.0,0.0,0.0,0.0,0.0,0.0,0.0,-3.1316,-3.119,0.0,0.0,0.0,0.0,0.0,0.0,0.0,0.0,0.0,0.0,0.0,0.0,0.0,0.0,-2.5783,-2.5954,-2.6178,0.0,-2.6425,-2.6546,-2.6606,-2.6589,-2.6511,-2.6372,-2.6151,-2.5811,-2.553,0.0,0.0,-2.4694,-2.4482,0.0,-2.3932,-2.3839,0.0,0.0,0.0,-2.3246,0.0,0.0,0.0,-2.2654,-2.2417,-2.2177,0.0,0.0,0.0,0.0,0.0,0.0,-1.992,-1.9506,-1.9139,-1.8821,-1.8404,-1.7981,-1.7761,-1.754,-1.72,-1.6811,-1.6344,-1.5948,-1.524,-1.4573,-1.4018,-1.372,-1.3444,-1.3223,-1.3314,-1.3415,-1.3515,-1.3615,-1.3716,-1.3815,-1.3952,-1.4051,-1.4203,-1.443,-1.4564,-1.464,-1.484,-1.5028,-1.5108,-1.5238,-1.5289,-1.5289,-1.5289,-1.534,-1.539,-1.5468,-1.543,-1.5306,0.0,0.0,0.0,0.0,0.0,0.0,0.0,0.0,0.0,0.0,0.0,0.0,0.0,0.0,0.0,0.0,0.0,0.0,0.0,0.0,0.0,0.0,0.0,-3.119,0.0,0.0,0.0,0.0,0.0,0.0,0.0,0.0,0.0,0.0,0.0,0.0,0.0,0.0,0.0,-2.5926,0.0,-2.6222,-2.633,-2.6495,-2.6511,-2.6485,-2.6459,-2.6195,-2.5881,-2.5709,0.0,-2.5256,-2.4894,-2.4686,0.0,0.0,0.0,0.0,0.0,0.0,0.0,0.0,0.0,-2.312,0.0,0.0,0.0,0.0,0.0,0.0,0.0,0.0,0.0,0.0,0.0,0.0,0.0,-1.8922,0.0,-1.8139,-1.7926,-1.7656,-1.7384,-1.72,-1.6804,-1.6145,-1.5771,-1.5206,-1.4323,-1.4038,-1.373,-1.3228,-1.3314,-1.3415,-1.3467,-1.3668,-1.3863,-1.391,-1.414,-1.4321,-1.4512,-1.4662,-1.4794,-1.496,-1.5108,-1.5249,-1.5402,-1.548,-1.5614,-1.5715,-1.5608,-1.5558,-1.5558,-1.5564,-1.5435,-1.5351,0.0,0.0,0.0,0.0,0.0,0.0,0.0,0.0,0.0,0.0,0.0,0.0,0.0,0.0,0.0,0.0,0.0,0.0,-3.1941,0.0,0.0,0.0,0.0,0.0,-3.119,-3.119,0.0,0.0,0.0,0.0,0.0,0.0,0.0,0.0,-2.5746,0.0,0.0,0.0,-2.5605,0.0,-2.5926,-2.6099,0.0,-2.6339,-2.639,-2.6493,-2.6283,-2.6087,-2.5852,0.0,-2.5347,-2.5209,0.0,-2.4589,-2.4549,0.0,0.0,0.0,0.0,0.0,0.0,0.0,-2.3466,0.0,0.0,0.0,0.0,-2.2456,0.0,0.0,0.0,0.0,0.0,0.0,0.0,0.0,-1.9753,-1.9291,-1.8727,-1.8199,-1.8084,-1.7926,-1.7651,-1.7434,-1.7134,-1.6738,-1.6169,-1.555,-1.494,-1.4369,-1.3884,-1.3377,-1.3415,-1.3515,-1.3763,-1.3768,-1.3957,-1.4332,-1.4373,-1.4553,-1.4863,-1.4966,-1.5114,-1.5261,-1.5385,-1.5525,-1.5671,-1.5671,-1.5709,-1.5798,-1.5715,-1.5709,-1.5748,-1.5709,-1.557,-1.5424,0.0,0.0,0.0,0.0,0.0,0.0,0.0,0.0,0.0,0.0,0.0,0.0,0.0,0.0,0.0,0.0,0.0,-3.1873,0.0,0.0,0.0,0.0,0.0,0.0,0.0,0.0,0.0,0.0,-3.0912,0.0,0.0,0.0,0.0,0.0,-2.5561,0.0,-2.5386,0.0,0.0,0.0,0.0,0.0,0.0,-2.626,-2.6339,-2.6355,-2.6151,-2.5998,-2.5852,0.0,-2.5355,0.0,0.0,0.0,0.0,0.0,0.0,0.0,0.0,0.0,0.0,0.0,0.0,0.0,-2.3341,0.0,-2.2852,0.0,0.0,0.0,0.0,0.0,0.0,0.0,-2.0409,0.0,0.0,0.0,-1.9146,0.0,0.0,0.0,-1.786,-1.759,-1.7318,-1.7099,-1.6727,-1.6174,-1.5284,-1.5001,-1.4511,-1.3789,-1.3768,-1.3815,-1.3915,-1.4057,-1.4233,-1.4378,-1.4697,-1.4875,-1.5011,-1.5238,-1.543,-1.5576,-1.5614,-1.5697,-1.5875,-1.5792,-1.5754,-1.5792,-1.5709,-1.5715,-1.5754,-1.5715,-1.5576,-1.5345,0.0,0.0,0.0,0.0,0.0,0.0,0.0,0.0,0.0,0.0,0.0,0.0,-3.0974,-3.1518,0.0,0.0,0.0,-3.2293,0.0,0.0,-3.1603,0.0,0.0,0.0,0.0,0.0,0.0,0.0,0.0,0.0,0.0,0.0,0.0,0.0,0.0,-2.5386,-2.5386,0.0,0.0,-2.5746,-2.5844,-2.5962,-2.6063,-2.6206,-2.6268,-2.6241,-2.6054,-2.5954,-2.5852,-2.5554,-2.5402,0.0,-2.4942,0.0,0.0,0.0,0.0,0.0,-2.4074,0.0,0.0,0.0,0.0,0.0,0.0,0.0,0.0,0.0,0.0,0.0,0.0,0.0,0.0,0.0,0.0,0.0,0.0,0.0,0.0,0.0,0.0,0.0,0.0,-1.7799,-1.759,-1.7484,-1.7125,-1.6515,-1.5596,-1.5373,-1.4889,-1.4047,-1.4062,-1.4062,-1.4109,-1.4337,-1.4518,-1.461,-1.5017,-1.5244,-1.5295,-1.5507,-1.5742,-1.5931,-1.5848,-1.5881,-1.5994,-1.5875,-1.5836,-1.5792,-1.5709,-1.5671,-1.562,-1.5576,-1.5441,-1.521,0.0,-2.8116,0.0,0.0,0.0,0.0,0.0,0.0,0.0,0.0,0.0,0.0,0.0,0.0,0.0,0.0,0.0,-3.2363,-3.2135,0.0,-3.17,0.0,0.0,-3.1274,0.0,0.0,0.0,0.0,0.0,0.0,0.0,0.0,0.0,0.0,0.0,-2.5286,-2.5286,-2.5286,-2.5516,-2.5889,-2.5889,-2.6015,-2.6176,0.0,-2.6212,-2.6176,-2.6063,0.0,0.0,-2.5645,-2.5448,0.0,0.0,0.0,0.0,0.0,0.0,0.0,0.0,0.0,0.0,-2.3839,0.0,0.0,0.0,0.0,-2.3224,0.0,0.0,0.0,0.0,0.0,0.0,0.0,0.0,0.0,0.0,0.0,0.0,0.0,0.0,0.0,0.0,-1.8199,-1.803,-1.7903,-1.7139,-1.6444,-1.5899,-1.5273,-1.465,-1.4036,-1.414,-1.428,-1.4378,-1.461,-1.484,-1.5062,-1.5379,-1.5603,-1.5792,-1.5907,-1.605,-1.62,-1.6194,-1.61,-1.5994,-1.5994,-1.5913,-1.5792,-1.5709,-1.5614,-1.5468,-1.5351,-1.5216,-1.5062,0.0,0.0,0.0,0.0,0.0,0.0,0.0,-2.9479,0.0,0.0,0.0,0.0,0.0,0.0,-3.2674,0.0,0.0,-3.2397,-3.2109,-3.1946,0.0,0.0,0.0,-3.1393,0.0,0.0,0.0,0.0,0.0,0.0,0.0,0.0,0.0,0.0,0.0,-2.5355,0.0,0.0,0.0,0.0,0.0,-2.6079,-2.6212,0.0,-2.6212,-2.6168,-2.6063,-2.5954,0.0,-2.5691,-2.5486,-2.5347,-2.5146,-2.4997,-2.4894,-2.4742,-2.4572,-2.4416,0.0,0.0,-2.4082,-2.3982,0.0,0.0,0.0,0.0,0.0,0.0,0.0,0.0,0.0,0.0,0.0,0.0,0.0,0.0,0.0,0.0,0.0,0.0,0.0,0.0,0.0,0.0,-1.8404,-1.8247,-1.7556,-1.6893,-1.6238,-1.5647,-1.5073,-1.4562,-1.4586,-1.4662,-1.4731,-1.488,-1.5108,-1.5379,-1.5603,-1.5786,-1.5957,-1.605,-1.6231,-1.6318,-1.6237,-1.6188,-1.6144,-1.6044,-1.5875,-1.5709,-1.5614,-1.5424,-1.5244,-1.5204,-1.5062,-1.4915,-2.8536,0.0,0.0,0.0,0.0,0.0,0.0,0.0,0.0,0.0,-3.2442,0.0,-3.3137,0.0,-3.2987,0.0,-3.2583,-3.2432,-3.2222,-3.2053,0.0,-3.1668,-3.16,0.0,0.0,0.0,0.0,0.0,0.0,-3.0459,0.0,0.0,0.0,0.0,0.0,0.0,0.0,0.0,-2.553,0.0,0.0,-2.6123,0.0,0.0,-2.6212,-2.6176,0.0,-2.5998,-2.5917,-2.5749,-2.56,-2.544,-2.5224,-2.5115,-2.4997,-2.4862,-2.4701,-2.458,-2.4539,-2.4423,0.0,-2.4116,-2.3982,0.0,-2.3696,0.0,0.0,0.0,0.0,0.0,0.0,0.0,0.0,0.0,0.0,0.0,0.0,0.0,0.0,0.0,0.0,0.0,0.0,0.0,-1.865,-1.8366,-1.7658,-1.6989,-1.6327,-1.5728,-1.5277,-1.492,-1.4954,-1.5034,-1.5091,-1.5289,-1.5468,-1.5742,-1.5957,-1.6138,-1.6262,-1.6405,-1.6454,-1.6491,-1.6417,-1.6331,-1.6194,-1.61,-1.5925,-1.5671,-1.548,-1.5289,-1.5102,-1.5057,-1.4915,-1.464,0.0,0.0,0.0,0.0,-2.9163,0.0,0.0,0.0,-3.2214,0.0,-3.2936,-3.3375,-3.3321,-3.3167,-3.3055,-3.2925,-3.2739,0.0,-3.2406,-3.2238,0.0,0.0,-3.1668,-3.1528,-3.1297,0.0,0.0,0.0,0.0,0.0,0.0,0.0,0.0,0.0,-2.6131,0.0,-2.5424,-2.5424,-2.5613,-2.5934,-2.6132,-2.6212,-2.6212,-2.6212,-2.6212,-2.6212,-2.6212,-2.6115,-2.5982,-2.5917,-2.5749,-2.557,-2.5371,-2.524,-2.506,-2.4815,-2.4775,-2.4687,-2.4453,-2.4428,-2.4403,-2.4204,-2.4051,0.0,0.0,0.0,-2.3466,0.0,0.0,0.0,0.0,0.0,0.0,0.0,0.0,0.0,0.0,0.0,0.0,0.0,0.0,0.0,0.0,-1.9152,-1.8776,-1.8247,-1.7458,-1.6748,0.0,-1.5591,-1.5255,-1.5108,-1.5255,-1.5396,-1.5507,-1.5697,-1.5969,-1.6237,-1.6399,-1.6577,-1.6725,-1.684,-1.684,-1.6682,-1.6682,-1.6504,-1.62,-1.6194,-1.5975,-1.5665,-1.5402,-1.521,-1.5057,-1.4915,-1.464,-1.428,-2.8795,-2.9284,-2.9667,0.0,-2.976,-3.032,0.0,0.0,0.0,0.0,-3.3282,-3.3375,-3.3321,-3.3187,-3.3036,-3.2907,-3.2811,0.0,0.0,0.0,0.0,-3.1897,-3.1791,-3.1646,-3.1466,-3.1363,0.0,-3.0975,0.0,0.0,-3.046,0.0,0.0,0.0,0.0,0.0,-2.557,-2.557,-2.5675,-2.5934,-2.6132,-2.6212,0.0,0.0,-2.6212,-2.6212,-2.6212,-2.6115,-2.5982,-2.5917,-2.5799,-2.5642,-2.5424,-2.5317,-2.5105,-2.4481,-2.4177,-2.3904,-2.3257,-2.3367,-2.362,-2.3427,-2.3686,-2.3975,0.0,0.0,0.0,0.0,0.0,0.0,0.0,0.0,0.0,0.0,0.0,0.0,0.0,0.0,0.0,0.0,0.0,0.0,-1.9565,-1.9414,-1.9089,-1.8551,-1.7762,-1.7039,-1.6514,0.0,-1.548,-1.5525,-1.5582,-1.5709,-1.5856,-1.6013,-1.6194,-1.6436,-1.6577,-1.6712,-1.684,-1.6882,-1.684,-1.6682,-1.6682,-1.6504,-1.6194,-1.6088,-1.5869,-1.5513,-1.5249,-1.4932,-1.4558,-1.4558,-1.4228,-1.3805,-2.8891,0.0,0.0,-3.1014,0.0,0.0,-3.2273,0.0,0.0,-3.345,-3.3438,0.0,-3.3357,-3.3246,-3.3127,-3.301,-3.2916,0.0,-3.2502,0.0,0.0,-3.2002,-3.1918,-3.1746,-3.1514,-3.1423,0.0,-3.0996,0.0,0.0,-3.0551,0.0,0.0,0.0,0.0,-2.6341,0.0,-2.5712,-2.5787,-2.5934,-2.6132,0.0,0.0,-2.6212,-2.6212,-2.6212,-2.6212,-2.6168,-2.6079,-2.5926,-2.5844,-2.5697,-2.5083,-2.4836,-2.4678,-2.3835,-2.3488,-2.3252,-2.2733,-2.2792,-2.2964,-2.2777,-2.2909,-2.3069,-2.2971,-2.284,-2.2812,0.0,-2.2949,-2.2849,0.0,0.0,0.0,0.0,0.0,0.0,0.0,0.0,0.0,0.0,0.0,0.0,-1.9708,-1.9565,-1.9191,-1.8413,-1.7879,-1.723,-1.646,0.0,-1.583,-1.5937,-1.5975,-1.605,-1.6213,-1.6362,-1.6534,-1.682,-1.6833,-1.6924,-1.7099,-1.7051,-1.6918,-1.6803,-1.6803,-1.654,-1.62,-1.6044,-1.5774,-1.539,-1.4977,-1.4564,-1.4197,-1.4093,-1.3852,-1.3568,0.0,0.0,0.0,0.0,0.0,0.0,0.0,-3.3112,0.0,-3.3515,0.0,-3.3402,-3.3402,-3.3348,-3.3247,-3.3109,0.0,-3.2822,-3.2629,-3.2513,-3.2344,-3.21,-3.2001,-3.1791,-3.1493,-3.1504,0.0,0.0,0.0,0.0,0.0,0.0,0.0,0.0,0.0,0.0,0.0,-2.5799,-2.5889,-2.5934,-2.6096,-2.6168,-2.6212,-2.6212,-2.6212,-2.6212,-2.6212,-2.6212,-2.6176,-2.597,-2.5889,-2.5685,-2.4563,-2.4219,-2.4031,-2.3039,-2.2725,-2.2608,-2.2381,-2.2318,-2.2291,-2.211,-2.2018,-2.1947,-2.1815,-2.1759,-2.1819,-2.2297,-2.2276,-2.2269,-2.2637,0.0,0.0,0.0,0.0,0.0,0.0,0.0,0.0,0.0,0.0,0.0,-1.9591,-1.9564,-1.9089,-1.8111,-1.7832,-1.7263,-1.6293,0.0,-1.6237,-1.6237,-1.6362,-1.6485,-1.6565,-1.6712,-1.6924,-1.7199,-1.7086,-1.7177,-1.7398,-1.7253,-1.708,-1.6882,-1.6876,-1.662,-1.62,-1.605,-1.565,-1.5078,-1.4582,-1.4201,-1.3883,-1.3642,-1.3568,-1.352,0.0,0.0,0.0,0.0,0.0,-3.3584,-3.3551,-3.3569,-3.3588,-3.3579,-3.3475,-3.3402,-3.3402,-3.3348,-3.3264,-3.3094,-3.3024,0.0,0.0,0.0,0.0,-3.2196,-3.2097,-3.1906,-3.1493,-3.1513,-3.1396,0.0,-3.1019,-3.0948,-3.0871,0.0,0.0,0.0,0.0,0.0,-2.5637,-2.5717,0.0,-2.5897,-2.599,-2.6115,-2.6212,-2.6212,-2.6212,-2.6212,-2.6212,-2.6212,-2.6176,-2.597,-2.5889,-2.5721,-2.4697,-2.4309,-2.3927,-2.2496,-2.2,-2.1741,-2.0996,-2.1166,-2.1541,-2.1329,-2.1645,-2.1947,-2.1815,-2.1759,-2.1724,-2.1797,-2.1673,-2.1554,-2.1532,0.0,0.0,0.0,0.0,0.0,0.0,0.0,0.0,0.0,0.0,0.0,0.0,0.0,-1.8851,-1.82,-1.7626,-1.7032,-1.6393,0.0,-1.6399,0.0,-1.6583,-1.6718,0.0,-1.6996,-1.7157,-1.7199,-1.7308,-1.7356,-1.7404,-1.7135,-1.7002,-1.6882,-1.6656,-1.6442,-1.62,-1.5887,-1.5139,-1.4221,-1.4209,-1.3898,-1.3432,-1.3429,-1.3367,-1.3271,0.0,0.0,0.0,0.0,0.0,0.0,0.0,-3.3724,0.0,-3.3597,-3.3155,-3.2816,-3.278,-3.2379,-3.2058,-3.1977,-3.1885,-3.1799,-3.1625,-3.1491,-3.1293,-3.1011,-3.0927,0.0,-3.0979,-3.096,-3.1033,-3.1233,-3.1067,-3.0752,0.0,0.0,0.0,0.0,0.0,-2.6393,0.0,0.0,0.0,-2.5799,-2.5946,-2.6026,-2.6115,-2.6168,-2.6212,-2.6212,-2.6212,-2.6168,-2.6079,-2.5926,-2.5607,-2.5102,-2.4084,-2.3415,-2.277,-2.1616,-2.1153,-2.0937,-2.0508,-2.057,-2.0688,-2.0569,-2.0711,-2.0835,-2.0745,-2.0685,-2.0752,-2.1011,-2.0968,-2.0888,-2.0932,-2.055,0.0,0.0,0.0,0.0,0.0,0.0,0.0,0.0,0.0,0.0,0.0,0.0,0.0,0.0,0.0,-1.708,-1.6566,0.0,-1.662,0.0,0.0,0.0,-1.7038,0.0,-1.733,-1.7358,-1.7391,-1.7404,-1.7404,-1.7135,-1.6918,-1.6803,-1.6614,-1.6306,-1.5951,-1.5236,-1.4344,-1.3491,-1.3406,-1.3281,-1.3099,-1.3011,-1.3052,-1.3152,0.0,-3.2194,0.0,0.0,-3.3798,0.0,-3.3569,-3.3505,-3.3451,-3.3364,-3.2728,-3.2198,-3.1958,-3.1387,-3.0979,-3.0905,-3.0835,-3.0738,-3.0548,-3.0393,-3.0201,-2.9941,-2.9825,-2.9915,-3.0209,-3.0154,-3.0342,0.0,-3.0667,-3.0241,-2.9563,0.0,0.0,0.0,0.0,0.0,0.0,0.0,-2.5709,-2.5738,-2.5901,-2.599,-2.6018,-2.6168,-2.6212,-2.6212,-2.6212,-2.6115,-2.5982,-2.5881,-2.5325,-2.4473,-2.3505,-2.259,-2.1745,-2.0881,-2.0517,-2.0381,-2.0346,-2.0193,-2.0045,-1.9998,-1.9884,-1.9762,-1.9726,-1.9682,-1.9832,-2.0236,-2.0203,-2.0172,-2.0273,-2.0062,0.0,0.0,0.0,0.0,0.0,0.0,0.0,0.0,0.0,0.0,0.0,0.0,0.0,0.0,0.0,-1.7055,-1.6701,-1.6718,-1.6803,-1.6918,-1.7002,-1.708,-1.7199,0.0,-1.7432,-1.7488,-1.7432,-1.7404,-1.7356,-1.7051,-1.684,-1.6633,-1.6442,-1.6021,-1.5413,-1.4528,-1.363,-1.2822,-1.2652,-1.2588,-1.2609,-1.2508,-1.2588,-1.2812,0.0,0.0,0.0,0.0,0.0,0.0,-3.2829,-3.2702,-3.2674,-3.2529,-3.2379,-3.1987,-3.1197,-3.1058,-3.096,-3.0905,-3.0843,-3.0775,-3.0703,-3.0449,-3.0209,-3.0009,-2.9884,-2.9659,-2.9333,-2.9305,-2.9278,0.0,-2.9212,-2.9068,-2.8803,-2.8812,0.0,0.0,0.0,0.0,0.0,-2.5616,-2.5659,-2.5701,-2.5836,-2.5962,-2.6018,-2.6168,-2.6212,-2.6212,-2.6212,-2.6115,-2.5974,-2.5783,-2.5184,-2.4369,-2.347,-2.259,-2.1711,-2.0798,-2.0433,-2.027,-2.015,-2.0088,-1.9998,-1.9841,-1.9805,-1.9762,-1.9726,-1.9682,-1.9712,-1.9685,-1.9427,-1.9165,-1.8994,-1.8722,-1.8594,0.0,0.0,0.0,0.0,0.0,0.0,0.0,0.0,0.0,0.0,-1.6875,0.0,0.0,-1.6653,-1.6627,-1.6688,-1.6797,-1.6924,-1.7002,-1.7122,-1.7199,-1.7199,-1.735,-1.7398,-1.7398,-1.7398,-1.735,-1.7205,-1.6882,-1.6669,-1.6479,-1.605,-1.538,-1.45,-1.4223,-1.3429,-1.2392,-1.2488,-1.2205,-1.1747,-1.19,-1.1957,-1.1969,0.0,0.0,0.0,0.0,0.0,0.0,0.0,-3.1891,-3.167,-3.1115,-3.097,-3.0757,-3.0378,-2.9862,-2.9564,-2.9512,-2.9421,-2.9337,-2.9259,-2.9034,-2.8797,-2.8564,-2.8478,-2.8479,-2.865,-2.857,-2.8704,0.0,0.0,-2.8666,-2.8034,-2.804,-2.742,0.0,0.0,-2.5787,-2.5616,-2.5616,-2.5608,-2.5659,-2.5754,-2.5828,-2.5962,-2.6035,-2.6123,-2.6176,-2.6115,-2.6035,-2.5852,-2.5212,-2.4442,-2.3705,-2.3183,-2.2114,-2.0955,-2.0511,-2.0296,-2.015,-2.0053,-1.9955,-1.9884,-1.9805,-1.9762,-1.9726,-1.9726,-1.9682,-1.9654,-1.9494,-1.9242,-1.901,-1.8829,-1.8546,-1.8309,-1.8364,0.0,0.0,0.0,0.0,0.0,0.0,0.0,0.0,0.0,0.0,0.0,0.0,0.0,-1.6571,-1.6675,-1.684,-1.6918,-1.7002,0.0,-1.7247,-1.7308,-1.7356,-1.7356,-1.7295,-1.7295,-1.7135,-1.6882,-1.6663,-1.6399,-1.6032,-1.5308,-1.4534,-1.3832,-1.3258,-1.2458,-1.1631,-1.1572,-1.1488,-1.1379,-1.1401,-1.1551,-1.1723,-3.0323,0.0,-3.1401,0.0,-3.139,-3.1322,-3.1086,-3.1039,-3.0748,-2.9899,-2.9707,-2.9639,-2.9564,-2.9007,-2.8596,-2.8569,-2.8478,-2.8359,-2.8272,-2.809,-2.7869,-2.7613,-2.7552,0.0,-2.7901,-2.7815,-2.7963,-2.8381,-2.8356,-2.7955,-2.7275,-2.7205,-2.6722,0.0,-2.5889,-2.5787,-2.5616,-2.5616,-2.5616,-2.5616,-2.5725,-2.5836,-2.5926,-2.6035,-2.6123,-2.6168,-2.6063,-2.5954,-2.5738,-2.4778,-2.3922,-2.317,-2.275,-2.1654,-2.046,-2.0339,-2.0193,-2.0045,-1.9955,-1.9848,-1.9762,-1.9762,-1.9726,-1.9682,-1.9682,-1.969,-1.9589,-1.9376,-1.9116,-1.8896,-1.876,-1.8482,-1.8201,-1.8009,0.0,0.0,0.0,0.0,0.0,0.0,-1.708,-1.7038,-1.7002,0.0,0.0,0.0,0.0,-1.6571,-1.6675,-1.6803,-1.6882,-1.696,0.0,0.0,-1.7231,-1.7231,-1.7225,-1.7122,-1.708,-1.6918,-1.6626,-1.6349,-1.5909,-1.5359,-1.4641,-1.3857,-1.3115,-1.2454,-1.1793,-1.1099,-1.0926,-1.0919,-1.0955,-1.0925,-1.1041,-1.1243,-3.0323,-3.0883,-3.1401,-3.1401,-3.1409,-3.1122,-3.0351,-3.0208,-2.9927,-2.9118,-2.8948,-2.8863,-2.8728,-2.8712,-2.8658,-2.8515,-2.8426,-2.8341,-2.8209,-2.8072,-2.7871,0.0,0.0,-2.7365,-2.7012,-2.6993,-2.6928,-2.6716,0.0,0.0,-2.6522,-2.6295,-2.6079,-2.5885,-2.5917,-2.5787,-2.5616,-2.5616,-2.5616,-2.5616,-2.5824,-2.5889,-2.5926,-2.6132,-2.6212,-2.6168,-2.6063,-2.5954,-2.5746,-2.4758,-2.3839,-2.2972,-2.2152,-2.1261,-2.046,-2.0339,-2.0173,-1.9962,-1.9841,-1.9762,-1.9682,-1.9682,-1.9682,-1.9682,-1.9682,-1.9632,-1.9501,-1.9183,-1.8943,-1.8753,-1.8549,-1.8361,-1.8123,-1.7916,0.0,0.0,0.0,0.0,0.0,0.0,-1.7199,-1.7199,-1.7199,0.0,0.0,0.0,0.0,0.0,0.0,0.0,0.0,-1.6882,-1.6882,0.0,-1.6924,-1.6924,-1.6924,-1.6882,-1.6761,-1.662,-1.6472,-1.5901,-1.5175,-1.4399,-1.42,-1.3429,-1.2288,-1.2084,-1.1588,-1.0883,-1.0817,-1.0626,-1.0428,-1.0428,-1.0361,-1.0356,-2.9544,-2.9673,-2.9765,-2.9765,-2.976,-2.9683,-2.9407,-2.937,-2.9297,-2.9044,-2.8938,-2.8879,-2.8775,-2.873,-2.8658,0.0,-2.845,-2.8318,0.0,-2.7946,-2.7774,-2.754,-2.7369,-2.7213,-2.6994,-2.6959,-2.6843,-2.6691,0.0,0.0,-2.6507,-2.6308,-2.6079,-2.5885,-2.5885,-2.579,-2.5616,-2.5616,-2.5637,-2.568,-2.5754,-2.5836,-2.599,-2.6035,-2.6071,-2.6063,-2.5954,-2.5525,-2.4806,-2.3887,-2.3011,-2.2136,-2.1219,-2.068,-2.0331,-2.0138,-1.9998,-1.9841,-1.9762,-1.9726,-1.9682,-1.9682,-1.9682,-1.969,-1.964,-1.9494,-1.9339,-1.9139,-1.8943,-1.8753,-1.8549,-1.8361,-1.8083,-1.7801,-1.7618,0.0,-1.7295,0.0,0.0,0.0,-1.7199,-1.7157,-1.708,-1.696,0.0,0.0,0.0,0.0,0.0,0.0,0.0,0.0,-1.665,0.0,-1.665,-1.665,-1.6607,-1.6571,-1.6411,-1.6188,-1.5824,-1.5418,-1.4877,-1.4177,-1.3593,-1.291,-1.2121,-1.1513,-1.1094,-1.0883,-1.0611,-1.0462,-1.0385,-1.0351,-1.0317,-1.0303,-2.9209,-2.9093,-2.8994,-2.8994,-2.8994,-2.8994,-2.8994,-2.8994,-2.8994,-2.8994,-2.8938,-2.8864,-2.8821,-2.8705,0.0,-2.8478,-2.8407,-2.8281,-2.8093,-2.7876,-2.7698,-2.7504,-2.7307,-2.7149,-2.7004,-2.6918,0.0,-2.6691,-2.6674,-2.6605,-2.6499,-2.6338,-2.6123,-2.5941,-2.5958,-2.5835,-2.5707,-2.5728,-2.5741,-2.5791,-2.582,-2.5901,-2.6018,-2.6071,-2.6026,-2.5982,-2.5917,-2.5305,-2.4349,-2.345,-2.2571,-2.1676,-2.0712,-2.0304,-2.0166,-2.0041,-1.9919,-1.9805,-1.9726,-1.9682,-1.9682,-1.9682,-1.969,-1.9632,-1.9494,-1.9339,-1.9183,-1.9019,-1.8836,-1.8613,-1.8432,-1.8242,-1.8003,-1.7666,-1.7536,-1.7413,-1.724,0.0,-1.7199,0.0,0.0,0.0,0.0,-1.6882,-1.6754,0.0,0.0,0.0,0.0,0.0,-1.6399,-1.6399,-1.6349,-1.63,-1.63,-1.6256,-1.6225,-1.6182,-1.6007,-1.5691,-1.5271,-1.4817,-1.4299,-1.3643,-1.2899,-1.2206,-1.1611,-1.1084,-1.0807,-1.0692,-1.0495,-1.0385,-1.0351,-1.0317,-1.0283,-1.0283,-2.92,-2.9091,-2.8994,-2.8994,-2.8994,-2.8994,-2.8994,-2.8994,-2.8994,-2.8984,-2.8929,-2.8872,-2.8791,-2.8676,-2.8542,-2.8391,0.0,0.0,-2.7993,-2.7803,-2.7643,-2.75,-2.729,-2.7122,-2.7012,-2.6936,-2.6818,-2.6691,-2.664,-2.6563,-2.6501,-2.6355,-2.6203,-2.5999,-2.6018,-2.5967,-2.5897,-2.5914,-2.5889,-2.5926,-2.5982,-2.6018,-2.6026,-2.6123,-2.6123,-2.5982,-2.5868,-2.5188,-2.4277,-2.3323,-2.2386,-2.1459,-2.0566,-2.0166,-2.0005,-1.9998,-1.9884,-1.9762,-1.9726,-1.9682,-1.9682,-1.9682,-1.964,-1.9538,-1.9339,-1.9183,-1.9019,-1.8822,-1.862,-1.8439,-1.8242,-1.8043,-1.7794,-1.7523,-1.7426,-1.735,-1.7205,-1.7199,-1.7199,0.0,0.0,0.0,-1.7002,-1.6803,-1.662,0.0,0.0,0.0,0.0,0.0,-1.6156,-1.615,-1.6044,-1.5951,-1.5951,-1.5836,-1.5748,-1.5748,-1.5564,-1.5215,-1.4795,-1.4172,-1.352,-1.2888,-1.21,-1.1436,-1.0883,-1.0817,-1.0626,-1.038,-1.0385,-1.0351,-1.0283,-1.0283,-1.0283,-1.0283,0.0,0.0,-2.8994,-2.8994,-2.8994,-2.8994,-2.8994,-2.8994,-2.8975,-2.8929,-2.8874,-2.8808,-2.8728,-2.8587,-2.8474,-2.8336,-2.8263,-2.8116,-2.7853,-2.7704,-2.7552,-2.7417,-2.7172,-2.7045,-2.7012,-2.6826,-2.6716,-2.6691,-2.664,-2.6565,-2.6479,-2.6362,-2.6203,-2.5999,-2.5988,-2.5941,-2.5917,-2.5901,-2.5937,-2.5982,-2.5974,-2.6071,-2.6123,-2.6071,-2.5998,-2.5815,-2.509,-2.426,-2.3382,-2.2476,-2.1555,-2.0738,-2.0385,-2.0166,-1.9962,-1.9884,-1.9805,-1.9726,-1.9682,-1.9682,-1.969,-1.964,-1.9494,-1.9339,-1.9183,-1.9085,-1.8941,-1.862,-1.851,-1.84,-1.8043,-1.7922,-1.7801,-1.7474,-1.7398,-1.735,-1.7205,-1.7199,-1.7199,0.0,-1.708,-1.696,-1.6918,-1.6705,-1.6522,0.0,0.0,-1.5919,-1.583,-1.5614,-1.562,-1.5804,-1.5697,-1.5558,-1.5486,-1.5441,-1.53,-1.5091,-1.4966,-1.4586,-1.3989,-1.3696,-1.3054,-1.2074,-1.1785,-1.1318,-1.0817,-1.0577,-1.0462,-1.0385,-1.0351,-1.0322,-1.0283,-1.0283,-1.0283,-1.0283,-2.9203,-2.9098,-2.8994,-2.8994,-2.8994,-2.8994,-2.8994,-2.8994,-2.8975,-2.8911,-2.8845,-2.8761,-2.8658,-2.8533,-2.8412,-2.8281,-2.8182,-2.8044,-2.7766,-2.7635,-2.7469,-2.733,-2.7112,-2.6978,-2.6945,-2.6792,-2.6691,-2.6691,-2.6666,-2.6623,-2.6548,-2.6422,-2.6286,-2.6134,-2.611,-2.6074,-2.6026,-2.6026,-2.6071,-2.6079,-2.6079,-2.6123,-2.6134,-2.5716,-2.5469,-2.5236,-2.4359,-2.3428,-2.2526,-2.1998,-2.1166,-2.0365,-2.02,-2.0061,-1.9884,-1.9762,-1.9726,-1.9682,-1.9682,-1.9682,-1.9654,-1.9531,-1.9376,-1.9183,-1.9085,-1.8903,-1.8718,-1.8556,-1.8361,-1.8163,-1.7922,-1.776,-1.7604,-1.7446,-1.7356,-1.7295,-1.7199,-1.7199,-1.7199,-1.7122,-1.6996,-1.6876,-1.6742,-1.6565,-1.6349,-1.6132,-1.5925,0.0,-1.5474,-1.53,-1.53,-1.5492,-1.5334,-1.5193,-1.5108,-1.5028,-1.4891,-1.4686,-1.4326,-1.3948,-1.3509,-1.2888,-1.2288,-1.1687,-1.1309,-1.0921,-1.0621,-1.0462,-1.0385,-1.0351,-1.0322,-1.0283,-1.0283,-1.0283,-1.0283,-1.0283,-2.9191,-2.909,-2.8994,-2.8994,-2.8994,-2.8994,-2.8994,-2.8994,-2.8966,-2.8902,-2.8825,-2.8748,-2.8587,-2.8464,-2.8342,-2.82,-2.811,-2.7934,-2.7713,-2.7561,-2.74,-2.7172,-2.7057,-2.6971,-2.6911,-2.6775,-2.6691,-2.6691,-2.6691,-2.6674,-2.659,-2.6552,-2.6451,-2.6338,-2.6245,-2.6228,-2.622,-2.6212,-2.6212,-2.6203,-2.6079,-2.6029,-2.5919,-2.5122,-2.4704,-2.4422,-2.3568,-2.2708,-2.1864,-2.1599,-2.0976,-2.027,-2.0068,-1.9919,-1.9805,-1.9726,-1.9682,-1.9682,-1.9682,-1.969,-1.9617,-1.9406,-1.9228,-1.9078,-1.8948,-1.8718,-1.8478,-1.8439,-1.8123,-1.7882,-1.7842,-1.7604,-1.7398,-1.7356,-1.7253,-1.7199,-1.7199,0.0,-1.7157,-1.6996,-1.6918,-1.6784,-1.6522,-1.6436,-1.6225,-1.5836,-1.5748,-1.5519,-1.5108,-1.5062,-1.5068,-1.5176,-1.4971,-1.4869,-1.4817,-1.461,-1.4398,-1.4218,-1.3703,-1.3306,-1.3029,-1.2012,-1.153,-1.1447,-1.0821,-1.0505,-1.038,-1.0385,-1.0351,-1.0283,-1.0283,-1.0283,-1.0283,-1.0283,-1.0283,-1.0283,-2.9191,-2.909,-2.8994,-2.8994,-2.8994,-2.8994,-2.8994,-2.8994,-2.8957,-2.8838,-2.8798,-2.873,-2.8542,-2.8398,-2.8254,-2.8128,-2.7895,-2.7733,-2.7631,-2.7478,-2.7316,-2.7121,-2.7041,-2.6953,-2.6911,-2.6775,-2.6691,-2.6691,-2.6691,-2.6674,-2.6581,-2.659,-2.6536,-2.6474,-2.6347,-2.627,-2.627,-2.6228,-2.6212,-2.6154,-2.5511,-2.5227,-2.5101,-2.4221,-2.3823,-2.3586,-2.2645,-2.2147,-2.1793,-2.0947,-2.0519,-2.027,-2.0068,-1.9919,-1.9805,-1.9726,-1.9682,-1.9682,-1.9682,-1.9589,-1.9413,-1.9183,-1.9085,-1.8948,-1.8634,-1.8556,-1.84,-1.8043,-1.7922,-1.7801,-1.7522,-1.7446,-1.7356,-1.7253,-1.7199,-1.7199,-1.7199,0.0,-1.7157,-1.6996,-1.6918,-1.6784,-1.6522,-1.6362,-1.6106,-1.5836,-1.5531,-1.5306,-1.5108,-1.484,-1.4667,-1.4719,-1.4771,-1.4719,-1.4466,-1.4197,-1.3859,-1.3459,-1.3244,-1.2752,-1.2035,-1.1633,-1.1235,-1.0925,-1.0569,-1.0418,-1.038,-1.0351,-1.0322,-1.0283,-1.0283,-1.0283,-1.0283,-1.0283,-1.0283,-1.0283,-2.92,-2.9118,-2.9053,-2.9003,-2.8994,-2.8994,-2.8994,-2.8966,-2.8911,-2.8796,-2.8743,-2.8639,-2.8469,-2.8344,-2.8153,-2.7968,-2.7771,-2.7586,-2.7496,-2.7376,-2.723,-2.7037,-2.6967,-2.6911,-2.6792,-2.6716,-2.6691,-2.6691,-2.6691,-2.6674,-2.6657,-2.6632,-2.6573,-2.6545,-2.6435,-2.6179,-2.5755,-2.5705,-2.5417,-2.5051,-2.4642,-2.446,-2.4323,-2.3382,-2.2962,-2.2723,-2.1765,-2.1276,-2.1059,-2.0569,-2.027,-2.0103,-1.9955,-1.9841,-1.9726,-1.9726,-1.9682,-1.969,-1.9669,-1.9531,-1.9339,-1.9139,-1.8972,-1.8795,-1.8556,-1.8321,-1.8123,-1.7922,-1.776,-1.7563,-1.7446,-1.735,-1.7253,-1.7199,-1.7199,-1.7199,-1.7199,-1.7157,-1.708,-1.696,-1.684,-1.6669,-1.6362,-1.6237,-1.6057,-1.5653,-1.5519,-1.5255,-1.4949,-1.4771,-1.4632,-1.4477,-1.4477,-1.4384,-1.4197,-1.401,-1.3678,-1.3207,-1.2827,-1.2309,-1.1561,-1.1154,-1.0813,-1.0582,-1.0428,-1.0351,-1.0351,-1.0322,-1.0283,-1.0283,-1.0283,-1.0283,-1.0283,-1.0283,-1.0283,-1.0283,-2.9235,-2.9164,-2.9081,-2.9044,-2.9003,-2.8994,-2.8994,-2.8938,-2.8879,-2.8799,-2.8676,-2.8534,-2.8385,-2.8264,-2.8062,-2.7783,-2.7651,-2.7518,-2.7356,-2.7239,-2.7106,-2.6985,-2.6909,-2.6809,-2.6691,-2.6691,-2.6691,-2.6691,-2.6531,-2.643,-2.643,-2.6236,-2.6118,-2.6118,-2.6034,-2.5688,-2.5083,-2.4984,-2.4602,-2.406,-2.3828,-2.3703,-2.3526,-2.2598,-2.2166,-2.1914,-2.1091,-2.0662,-2.0494,-2.0339,-2.0173,-1.9962,-1.9841,-1.9762,-1.9682,-1.9682,-1.969,-1.9669,-1.9574,-1.9457,-1.9295,-1.9064,-1.8851,-1.8595,-1.8478,-1.8163,-1.7875,-1.7835,-1.7597,-1.7398,-1.7356,-1.726,-1.7199,-1.7199,0.0,-1.7199,-1.7199,-1.708,-1.696,-1.6924,-1.6761,-1.6553,-1.6237,-1.62,-1.6019,-1.5558,-1.5468,-1.5255,-1.4828,-1.4776,-1.4627,-1.4373,-1.4269,-1.414,-1.402,-1.3763,-1.3371,-1.2911,-1.2402,-1.1861,-1.1281,-1.0816,-1.0539,-1.0423,-1.0351,-1.0283,-1.0283,-1.0283,-1.0283,-1.0283,-1.0283,-1.0283,-1.0283,-1.0283,-1.0322,-1.0317,-2.9282,-2.9193,-2.9099,-2.909,-2.9053,-2.8994,-2.8994,-2.8938,-2.8887,-2.8823,-2.8676,-2.8537,-2.8326,-2.82,-2.8,-2.773,-2.7583,-2.7431,-2.7239,-2.7095,-2.701,-2.7012,-2.6809,-2.67,-2.6691,-2.6691,-2.6691,-2.6691,-2.6017,-2.5665,-2.5656,-2.4988,-2.4646,-2.4646,-2.4563,-2.4538,-2.4456,-2.427,-2.4163,-2.4032,-2.3294,-2.2902,-2.2683,-2.1797,-2.1352,-2.115,-2.09,-2.0662,-2.0494,-2.0339,-2.0173,-1.9962,-1.9841,-1.9762,-1.9682,-1.9682,-1.9669,-1.9574,-1.9457,-1.9258,-1.9064,-1.886,-1.8651,-1.8478,-1.8282,-1.8043,-1.7835,-1.7564,-1.7467,-1.7356,-1.7247,-1.7205,-1.7199,-1.7199,0.0,0.0,-1.7199,-1.708,-1.696,-1.6924,-1.6761,-1.6553,-1.6237,-1.62,-1.6019,-1.5558,-1.539,-1.5176,-1.4828,-1.4678,-1.4477,-1.4222,-1.4222,-1.414,-1.402,-1.3436,-1.289,-1.2344,-1.1887,-1.1395,-1.0933,-1.0679,-1.0577,-1.0577,-1.0395,-1.0283,-1.0283,-1.0283,-1.0283,-1.0283,-1.0283,-1.0283,-1.0283,-1.0283,-1.0351,-1.0385,-2.9303,-2.923,-2.916,-2.9113,-2.9053,-2.8994,-2.8994,-2.8911,-2.8827,-2.8808,-2.8596,-2.843,-2.8308,-2.8069,-2.7827,-2.7648,-2.7526,-2.7365,-2.7147,-2.7055,-2.6934,-2.6809,-2.6725,-2.6505,-2.6026,-2.6017,-2.5782,-2.5347,-2.5046,-2.491,-2.4902,-2.4628,-2.4496,-2.4496,-2.447,-2.4215,-2.3777,-2.3613,-2.3255,-2.2756,-2.232,-2.2094,-2.196,-2.1466,-2.1143,-2.0931,-2.0687,-2.0512,-2.0365,-2.0166,-1.999,-1.9848,-1.9762,-1.9726,-1.969,-1.9632,-1.9531,-1.9376,-1.9258,-1.9139,-1.9026,-1.8812,-1.8574,-1.8293,-1.8076,-1.7828,-1.7618,-1.7467,-1.7343,-1.7253,-1.7205,-1.7199,-1.7199,-1.7199,0.0,-1.7157,-1.708,-1.7002,-1.6882,-1.6803,-1.6669,-1.6491,-1.6237,-1.62,-1.6019,-1.5659,-1.5519,-1.5295,-1.4983,-1.4817,-1.4678,-1.4581,-1.4575,-1.4395,-1.402,-1.3496,-1.2936,-1.2436,-1.1912,-1.1373,-1.0833,-1.0746,-1.0621,-1.0457,-1.039,-1.0351,-1.0283,-1.0283,-1.0283,-1.0283,-1.0351,-1.0351,-1.0385,-1.0467,-1.0505,-1.05,-2.933,-2.9275,-2.9221,-2.9145,-2.9081,-2.9012,-2.8994,-2.8893,-2.879,-2.878,-2.8551,-2.835,-2.8263,-2.7984,-2.7733,-2.7569,-2.7438,-2.7264,-2.7086,-2.6983,-2.6835,-2.67,-2.6497,-2.6126,-2.5615,-2.5376,-2.5021,-2.4515,-2.4284,-2.4157,-2.4149,-2.3912,-2.3798,-2.3798,-2.3798,-2.3528,-2.3039,-2.29,-2.2495,-2.1981,-2.1773,-2.1625,-2.1505,-2.1275,-2.1063,-2.0834,-2.0595,-2.0418,-2.027,-2.0068,-1.9919,-1.9805,-1.9726,-1.9697,-1.9661,-1.9567,-1.9384,-1.9221,-1.9116,-1.8995,-1.8889,-1.8673,-1.8411,-1.8161,-1.7956,-1.7666,-1.7461,-1.7398,-1.7295,-1.7199,-1.7199,-1.7199,-1.7199,-1.7199,-1.7199,-1.7157,-1.6996,-1.6918,-1.684,-1.6725,-1.6577,-1.6436,-1.6275,-1.6237,-1.6063,-1.576,-1.5614,-1.543,-1.5108,-1.4937,-1.4817,-1.4782,-1.4782,-1.4638,-1.4255,-1.3538,-1.2973,-1.2515,-1.1857,-1.1277,-1.0909,-1.0827,-1.0703,-1.05,-1.0462,-1.0423,-1.0395,-1.0395,-1.0395,-1.0395,-1.0423,-1.0462,-1.0457,-1.0582,-1.0654,-1.0692,-2.9416,-2.936,-2.9286,-2.92,-2.9136,-2.9081,-2.9003,-2.8893,-2.8781,-2.8701,-2.8524,-2.8314,-2.812,-2.7911,-2.7726,-2.7532,-2.7308,-2.7138,-2.7012,-2.6798,-2.6683,-2.6683,-2.5992,-2.5598,-2.5581,-2.4885,-2.4493,-2.4493,-2.3755,-2.3388,-2.338,-2.2649,-2.231,-2.231,-2.231,-2.231,-2.2302,-2.2094,-2.201,-2.1981,-2.1773,-2.157,-2.1374,-2.1253,-2.1047,-2.0761,-2.0559,-2.0423,-2.027,-2.0068,-1.9919,-1.9805,-1.9726,-1.9661,-1.9574,-1.9457,-1.9258,-1.9071,-1.9024,-1.8757,-1.8517,-1.8517,-1.8254,-1.7962,-1.7916,-1.7645,-1.7404,-1.7404,-1.7295,-1.7199,-1.7199,-1.7199,-1.7199,-1.7199,-1.7199,-1.7157,-1.6989,-1.6954,-1.6833,-1.6705,-1.6565,-1.6472,-1.6392,-1.6275,-1.6106,-1.5836,-1.5754,-1.5531,-1.5108,-1.496,-1.488,-1.4828,-1.4834,-1.4782,-1.4782,-1.3624,-1.2875,-1.2589,-1.1596,-1.1087,-1.1087,-1.0909,-1.0784,-1.0779,-1.0659,-1.0582,-1.0582,-1.0582,-1.0582,-1.0582,-1.0582,-1.0582,-1.0582,-1.0582,-1.0731,-1.0916,-2.9409,-2.936,-2.9272,-2.9218,-2.9139,-2.9081,-2.9003,-2.8893,-2.8781,-2.8701,-2.8513,-2.8318,-2.8119,-2.7876,-2.7661,-2.75,-2.7273,-2.706,-2.6942,-2.6286,-2.5916,-2.5916,-2.5732,-2.511,-2.4066,-2.3842,-2.3476,-2.2952,-2.2725,-2.264,-2.2604,-2.2415,-2.231,-2.231,-2.231,-2.2257,-2.2223,-2.2085,-2.194,-2.1852,-2.1685,-2.1521,-2.1302,-2.1087,-2.0885,-2.0704,-2.0431,-2.0235,-2.0073,-1.9912,-1.9805,-1.9726,-1.9632,-1.9567,-1.942,-1.9221,-1.9116,-1.8979,-1.8718,-1.8595,-1.8471,-1.8365,-1.8135,-1.7868,-1.7652,-1.7508,-1.7356,-1.7295,-1.7247,-1.7199,-1.7199,-1.7199,-1.7199,-1.7199,-1.7199,-1.702,-1.6507,-1.6355,-1.6073,-1.5577,-1.5746,-1.5896,-1.579,-1.6138,-1.6275,-1.6106,-1.5887,-1.5659,-1.5373,-1.5328,-1.5334,-1.53,-1.53,-1.521,-1.5028,-1.3828,-1.309,-1.2858,-1.187,-1.1266,-1.1087,-1.1044,-1.0914,-1.0784,-1.0741,-1.0703,-1.0582,-1.0582,-1.0582,-1.0621,-1.0774,-1.0807,-1.0845,-1.098,-1.1061,-1.1136,-2.9457,-2.9398,-2.9303,-2.9219,-2.9165,-2.9099,-2.8975,-2.8874,-2.8763,-2.8646,-2.8479,-2.8281,-2.8093,-2.7831,-2.7617,-2.75,-2.6959,-2.6418,-2.5984,-2.5472,-2.5021,-2.4742,-2.4726,-2.4303,-2.3423,-2.3119,-2.2762,-2.231,-2.231,-2.231,-2.231,-2.231,-2.231,-2.231,-2.231,-2.2257,-2.2178,-2.2047,-2.1911,-2.1789,-2.1639,-2.1448,-2.123,-2.0998,-2.0775,-2.0585,-2.0397,-2.018,-1.9985,-1.9841,-1.9726,-1.9661,-1.9611,-1.9457,-1.9258,-1.9139,-1.901,-1.8834,-1.8556,-1.8439,-1.8354,-1.8175,-1.7989,-1.776,-1.7502,-1.7378,-1.7302,-1.7205,-1.7199,-1.7199,-1.7199,-1.7199,-1.7127,-1.6911,-1.6879,-1.6642,-1.5944,-1.5769,-1.5556,-1.5114,-1.5329,-1.5547,-1.5693,-1.5965,-1.6119,-1.6182,-1.6063,-1.5881,-1.5691,-1.5647,-1.5608,-1.5564,-1.5519,-1.5424,-1.5244,-1.4267,-1.3561,-1.312,-1.2025,-1.1416,-1.1271,-1.1163,-1.1071,-1.0942,-1.0942,-1.0904,-1.0822,-1.0822,-1.0822,-1.086,-1.0969,-1.105,-1.1093,-1.1223,-1.1346,-1.1421,-2.9506,-2.9455,-2.937,-2.9219,-2.9193,-2.9127,-2.8929,-2.8842,-2.8739,-2.8531,-2.8371,-2.8217,-2.8011,-2.7759,-2.7565,-2.7414,-2.64,-2.5413,-2.4556,-2.4431,-2.4108,-2.342,-2.3354,-2.3292,-2.3292,-2.2649,-2.231,-2.231,-2.231,-2.231,-2.231,-2.231,-2.231,-2.231,-2.2302,-2.2248,-2.2169,-2.2057,-2.1902,-2.1759,-2.1634,-2.1437,-2.1158,-2.0949,-2.0714,-2.0481,-2.0327,-2.0149,-1.9976,-1.9841,-1.9682,-1.9582,-1.9574,-1.9339,-1.9108,-1.9064,-1.8889,-1.8634,-1.8517,-1.8321,-1.8123,-1.7922,-1.776,-1.7645,-1.7446,-1.7302,-1.7199,-1.7199,-1.7199,-1.7199,-1.7199,-1.716,-1.6963,-1.6473,-1.6343,-1.6068,-1.5355,-1.5234,-1.5183,-1.5056,-1.5094,-1.5344,-1.5881,-1.584,-1.5899,-1.6201,-1.6237,-1.6188,-1.6044,-1.5919,-1.5792,-1.5709,-1.5608,-1.5558,-1.5513,-1.4853,-1.414,-1.3328,-1.2141,-1.1566,-1.1485,-1.1303,-1.1228,-1.1185,-1.1185,-1.1228,-1.1228,-1.1228,-1.1223,-1.1217,-1.1223,-1.1309,-1.1427,-1.1459,-1.1571,-1.1719,-2.9523,-2.9453,-2.937,-2.9219,-2.9193,-2.9127,-2.8929,-2.8837,-2.8726,-2.8524,-2.8371,-2.8215,-2.8035,-2.7769,-2.7339,-2.6696,-2.5614,-2.484,-2.4512,-2.3968,-2.3573,-2.3414,-2.2838,-2.2544,-2.2544,-2.2369,-2.231,-2.231,-2.231,-2.231,-2.231,-2.231,-2.231,-2.231,-2.2248,-2.2153,-2.2049,-2.1961,-2.1797,-2.163,-2.1505,-2.1325,-2.1101,-2.0837,-2.061,-2.0393,-2.0143,-1.9972,-1.9829,-1.9691,-1.956,-1.942,-1.9258,-1.9139,-1.9064,-1.8858,-1.8673,-1.8517,-1.8321,-1.8123,-1.7916,-1.7652,-1.7508,-1.7446,-1.7404,-1.7302,-1.7199,-1.7199,-1.7199,-1.7199,-1.7199,-1.6852,-1.6532,-1.6415,-1.5996,-1.5474,-1.4836,-1.4706,-1.4478,-1.4014,-1.4284,-1.4748,-1.5331,-1.6143,-1.6566,-1.6429,-1.6436,-1.6355,-1.6188,-1.615,-1.6063,-1.5957,-1.5907,-1.5824,-1.5665,-1.5099,-1.4362,-1.3516,-1.2788,-1.2112,-1.1485,-1.1448,-1.1335,-1.1185,-1.1185,-1.1266,-1.1346,-1.1346,-1.1405,-1.1458,-1.1565,-1.1613,-1.1645,-1.1754,-1.1816,-1.1889,-2.9542,-2.9483,-2.9407,-2.9228,-2.9193,-2.9118,-2.8893,-2.8788,-2.8685,-2.8487,-2.8317,-2.8134,-2.7939,-2.7379,-2.6516,-2.5169,-2.4485,-2.3921,-2.3485,-2.3073,-2.2892,-2.2892,-2.2499,-2.231,-2.231,-2.231,-2.231,-2.231,-2.231,-2.231,-2.231,-2.231,-2.231,-2.231,-2.2231,-2.2121,-2.1978,-2.1903,-2.1756,-2.1606,-2.1417,-2.1222,-2.0983,-2.0772,-2.0545,-2.0335,-2.008,-1.9863,-1.967,-1.9531,-1.9391,-1.9221,-1.9139,-1.8995,-1.8858,-1.8673,-1.851,-1.8372,-1.8175,-1.8016,-1.7895,-1.7557,-1.7488,-1.7419,-1.735,-1.7247,-1.7199,-1.7199,-1.7199,-1.7199,-1.7199,-1.6761,-1.6336,-1.6048,-1.5542,-1.498,-1.4402,-1.4261,-1.4156,-1.3841,-1.4003,-1.4462,-1.5302,-1.6371,-1.6954,-1.6735,-1.6699,-1.662,-1.6461,-1.6368,-1.6312,-1.6169,-1.6082,-1.5957,-1.583,-1.5479,-1.4908,-1.4204,-1.3253,-1.2404,-1.1703,-1.1671,-1.1597,-1.1485,-1.1485,-1.1528,-1.1602,-1.1623,-1.1675,-1.1695,-1.1833,-1.1918,-1.1943,-1.2077,-1.2216,-1.2288,-2.9542,-2.9483,-2.9416,-2.9228,-2.9184,-2.9099,-2.8847,-2.8734,-2.8632,-2.842,-2.821,-2.7982,-2.766,-2.6635,-2.5336,-2.3744,-2.3414,-2.3022,-2.2344,-2.231,-2.231,-2.231,-2.231,-2.231,-2.231,-2.231,-2.231,-2.231,-2.231,-2.231,-2.231,-2.231,-2.2302,-2.2265,-2.2206,-2.2106,-2.1973,-2.1852,-2.171,-2.1541,-2.1362,-2.1095,-2.0875,-2.0704,-2.0496,-2.0227,-2.001,-1.9788,-1.9524,-1.9398,-1.9242,-1.9071,-1.9026,-1.8851,-1.8634,-1.851,-1.8365,-1.8226,-1.8028,-1.7955,-1.7882,-1.7598,-1.7523,-1.7475,-1.7275,-1.724,-1.7205,-1.7247,-1.7247,-1.7247,-1.724,-1.6795,-1.6271,-1.5735,-1.5184,-1.463,-1.408,-1.4032,-1.4032,-1.4032,-1.4213,-1.4658,-1.5574,-1.6599,-1.7199,-1.7038,-1.696,-1.6882,-1.6725,-1.6571,-1.6479,-1.6399,-1.6169,-1.6044,-1.5994,-1.5836,-1.5447,-1.488,-1.3772,-1.285,-1.2073,-1.1926,-1.185,-1.185,-1.185,-1.185,-1.1881,-1.192,-1.1982,-1.2024,-1.2102,-1.2216,-1.2282,-1.2443,-1.2591,-1.278,-2.9542,-2.9407,-2.9293,-2.921,-2.9147,-2.9053,-2.8838,-2.8734,-2.8635,-2.8443,-2.8209,-2.7785,-2.6935,-2.5307,-2.4083,-2.3637,-2.2963,-2.2474,-2.2319,-2.231,-2.231,-2.231,-2.231,-2.231,-2.231,-2.231,-2.231,-2.231,-2.231,-2.231,-2.231,-2.231,-2.2257,-2.2215,-2.2094,-2.1985,-2.1893,-2.1764,-2.1593,-2.1404,-2.1205,-2.0991,-2.0769,-2.046,-2.025,-2.0101,-1.9826,-1.9568,-1.9315,-1.9175,-1.9085,-1.8986,-1.8788,-1.8634,-1.851,-1.8365,-1.8194,-1.8028,-1.7988,-1.7855,-1.772,-1.7672,-1.7577,-1.7475,-1.7475,-1.7317,-1.7247,-1.7356,-1.7356,-1.7391,-1.7441,-1.703,-1.6458,-1.5878,-1.5285,-1.4664,-1.408,-1.4111,-1.4157,-1.4157,-1.5023,-1.5707,-1.5838,-1.683,-1.7399,-1.7199,-1.7157,-1.6996,-1.6725,-1.6675,-1.6583,-1.6399,-1.6349,-1.6213,-1.5994,-1.5951,-1.5603,-1.4892,-1.4707,-1.3987,-1.2861,-1.2377,-1.2108,-1.2041,-1.2041,-1.2077,-1.2138,-1.2168,-1.2246,-1.2431,-1.2431,-1.2514,-1.2633,-1.2797,-1.2914,-1.3066,-2.954,-2.9403,-2.927,-2.9206,-2.9113,-2.8984,-2.8838,-2.8688,-2.8537,-2.838,-2.7788,-2.7178,-2.665,-2.4877,-2.3534,-2.3042,-2.2587,-2.2336,-2.231,-2.231,-2.231,-2.231,-2.231,-2.231,-2.231,-2.231,-2.231,-2.231,-2.231,-2.231,-2.231,-2.231,-2.2257,-2.2178,-2.2052,-2.1953,-2.1844,-2.1627,-2.145,-2.131,-2.1055,-2.0819,-2.0598,-2.0388,-2.0135,-1.9823,-1.9574,-1.9339,-1.9189,-1.9076,-1.8941,-1.8812,-1.8634,-1.851,-1.8365,-1.8194,-1.8068,-1.7995,-1.7929,-1.7875,-1.7801,-1.7726,-1.7672,-1.7618,-1.7618,-1.7543,-1.7461,-1.7461,-1.7461,-1.7454,-1.7475,-1.709,-1.67,-1.6483,-1.5728,-1.5053,-1.4876,-1.4581,-1.4492,-1.4881,-1.5667,-1.6286,-1.6525,-1.7268,-1.7618,-1.7399,-1.733,-1.7177,-1.6882,-1.684,-1.6761,-1.6577,-1.6442,-1.6349,-1.6213,-1.6138,-1.5941,-1.5623,-1.5326,-1.4443,-1.3086,-1.2863,-1.2562,-1.2264,-1.2294,-1.2324,-1.2389,-1.2508,-1.2579,-1.2691,-1.2803,-1.2943,-1.3082,-1.3151,-1.3248,-1.3329]},{"header":{"parameterUnit":"m.s-1","parameterCategory":1,"la1":30.6,"la2":28.766,"lo1":-90.7593,"lo2":-88.6598,"dx":0.0162,"dy":0.0183,"nx":116,"ny":114,"refTime":"2023-01-29T18:00:00:Z","depth":0,"parameterNumber":3,"parameterNumberName":"V-component_of_WINDS"},"data":[0.0,0.0,0.0,0.0,0.0,0.0,0.0,0.0,0.0,0.0,0.0,0.0,0.0,0.0,0.0,0.0,0.0,0.0,0.0,0.0,0.0,0.0,0.0,0.0,0.0,0.0,0.0,0.0,0.0,0.0,0.0,0.0,0.0,0.0,0.0,0.0,0.0,0.0,0.0,0.0,0.0,0.0,0.0,0.0,0.0,0.0,0.0,0.0,0.0,0.0,0.0,0.0,0.0,0.0,0.0,0.0,0.0,0.0,0.0,0.0,0.0,0.0,0.0,0.0,0.0,0.0,0.0,0.0,0.0,0.0,0.0,0.0,0.0,0.0,0.0,0.0,0.0,0.0,0.0,0.0,0.0,0.0,0.0,0.0,0.0,0.0,0.0,0.0,0.0,0.0,0.0,0.0,0.0,0.0,0.0,0.0,0.0,0.0,0.0,0.0,0.0,0.0,0.0,0.0,0.0,0.0,0.0,0.0,0.0,0.0,0.0,0.0,0.0,0.0,0.0,0.0,0.0,0.0,0.0,0.0,0.0,0.0,0.0,0.0,0.0,0.0,0.0,0.0,0.0,0.0,0.0,0.0,0.0,0.0,0.0,0.0,0.0,0.0,0.0,0.0,0.0,0.0,0.0,0.0,0.0,0.0,0.0,0.0,0.0,0.0,0.0,0.0,0.0,0.0,0.0,0.0,0.0,0.0,0.0,0.0,0.0,0.0,0.0,0.0,0.0,0.0,0.0,0.0,0.0,0.0,0.0,0.0,0.0,0.0,0.0,0.0,0.0,0.0,0.0,0.0,0.0,0.0,0.0,0.0,0.0,0.0,0.0,0.0,0.0,0.0,0.0,0.0,0.0,0.0,0.0,0.0,0.0,0.0,0.0,0.0,0.0,0.0,0.0,0.0,0.0,0.0,0.0,0.0,0.0,0.0,0.0,0.0,0.0,0.0,0.0,0.0,0.0,0.0,0.0,0.0,0.0,0.0,0.0,0.0,0.0,0.0,0.0,0.0,0.0,0.0,0.0,0.0,0.0,0.0,0.0,0.0,0.0,0.0,0.0,0.0,0.0,0.0,0.0,0.0,0.0,0.0,0.0,0.0,0.0,0.0,0.0,0.0,0.0,0.0,0.0,0.0,0.0,0.0,0.0,0.0,0.0,0.0,0.0,0.0,0.0,0.0,0.0,0.0,0.0,0.0,0.0,0.0,0.0,0.0,0.0,0.0,0.0,0.0,0.0,0.0,0.0,0.0,0.0,0.0,0.0,0.0,0.0,0.0,0.0,0.0,0.0,0.0,0.0,0.0,0.0,0.0,0.0,0.0,0.0,0.0,0.0,0.0,0.0,0.0,0.0,0.0,0.0,0.0,0.0,0.0,0.0,0.0,0.0,0.0,0.0,0.0,0.0,0.0,0.0,0.0,0.0,0.0,0.0,0.0,0.0,0.0,0.0,0.0,0.0,0.0,0.0,0.0,0.0,0.0,0.0,0.0,0.0,0.0,0.0,0.0,0.0,0.0,0.0,0.0,0.0,0.0,0.0,0.0,0.0,0.0,0.0,0.0,0.0,0.0,0.0,0.0,0.0,0.0,0.0,0.0,0.0,0.0,0.0,0.0,0.0,0.0,0.0,0.0,0.0,0.0,0.0,0.0,0.0,0.0,0.0,0.0,0.0,0.0,0.0,0.0,0.0,0.0,0.0,0.0,0.0,0.0,0.0,0.0,0.0,0.0,0.0,0.0,0.0,0.0,0.0,0.0,0.0,0.0,0.0,0.0,0.0,0.0,0.0,0.0,0.0,0.0,0.0,0.0,0.0,0.0,0.0,0.0,0.0,0.0,0.0,0.0,0.0,0.0,0.0,0.0,0.0,0.0,0.0,0.0,0.0,0.0,0.0,0.0,0.0,0.0,0.0,0.0,0.0,0.0,0.0,0.0,0.0,0.0,0.0,0.0,0.0,0.0,0.0,0.0,0.0,0.0,0.0,0.0,0.0,0.0,0.0,0.0,0.0,0.0,0.0,0.0,0.0,0.0,0.0,0.0,0.0,0.0,0.0,0.0,0.0,0.0,0.0,0.0,0.0,0.0,0.0,0.0,0.0,0.0,0.0,0.0,0.0,0.0,0.0,0.0,0.0,0.0,0.0,0.0,0.0,0.0,0.0,0.0,0.0,0.0,0.0,0.0,0.0,0.0,0.0,0.0,0.0,0.0,0.0,0.0,0.0,0.0,0.0,0.0,0.0,0.0,0.0,0.0,0.0,0.0,0.0,0.0,0.0,0.0,0.0,0.0,0.0,0.0,0.0,0.0,0.0,0.0,0.0,0.0,0.0,0.0,0.0,0.0,0.0,0.0,0.0,0.0,0.0,0.0,0.0,0.0,0.0,0.0,0.0,0.0,0.0,0.0,0.0,0.0,0.0,0.0,0.0,0.0,0.0,0.0,0.0,0.0,0.0,0.0,0.0,0.0,0.0,0.0,0.0,0.0,0.0,0.0,0.0,0.0,0.0,0.0,0.0,0.0,0.0,0.0,0.0,0.0,0.0,0.0,0.0,0.0,0.0,0.0,0.0,0.0,0.0,0.0,0.0,0.0,0.0,0.0,0.0,0.0,0.0,0.0,0.0,0.0,0.0,0.0,0.0,0.0,0.0,0.0,0.0,0.0,0.0,0.0,0.0,0.0,0.0,0.0,0.0,0.0,0.0,0.0,0.0,0.0,0.0,0.0,0.0,0.0,0.0,0.0,0.0,0.0,0.0,0.0,0.0,0.0,0.0,0.0,0.0,0.0,0.0,0.0,0.0,0.0,0.0,0.0,0.0,0.0,0.0,0.0,0.0,0.0,0.0,0.0,0.0,0.0,0.0,0.0,0.0,0.0,0.0,0.0,0.0,0.0,0.0,0.0,0.0,0.0,0.0,0.0,0.0,0.0,0.0,0.0,0.0,0.0,0.0,0.0,0.0,0.0,0.0,0.0,0.0,0.0,0.0,0.0,0.0,0.0,0.0,0.0,0.0,0.0,0.0,0.0,0.0,0.0,0.0,0.0,0.0,0.0,0.0,0.0,0.0,0.0,0.0,0.0,0.0,0.0,0.0,0.0,0.0,0.0,0.0,0.0,0.0,0.0,0.0,0.0,0.0,0.0,0.0,0.0,0.0,0.0,0.0,0.0,0.0,0.0,0.0,0.0,0.0,0.0,0.0,0.0,0.0,0.0,0.0,0.0,0.0,0.0,0.0,0.0,0.0,0.0,0.0,0.0,0.0,0.0,0.0,0.0,0.0,0.0,0.0,0.0,0.0,0.0,0.0,0.0,0.0,0.0,0.0,0.0,0.0,0.0,0.0,0.0,0.0,0.0,0.0,0.0,0.0,0.0,0.0,0.0,0.0,0.0,0.0,0.0,0.0,0.0,0.0,0.0,0.0,0.0,0.0,0.0,0.0,0.0,0.0,0.0,0.0,0.0,0.0,0.0,0.0,0.0,0.0,0.0,0.0,0.0,0.0,0.0,0.0,0.0,0.0,0.0,0.0,0.0,0.0,0.0,0.0,0.0,0.0,0.0,0.0,0.0,0.0,0.0,0.0,0.0,0.0,0.0,0.0,0.0,0.0,0.0,0.0,0.0,0.0,0.0,0.0,0.0,0.0,0.0,0.0,0.0,0.0,0.0,0.0,0.0,0.0,0.0,0.0,0.0,0.0,0.0,0.0,0.0,0.0,0.0,0.0,0.0,0.0,0.0,0.0,0.0,0.0,0.0,0.0,0.0,0.0,0.0,0.0,0.0,0.0,0.0,0.0,0.0,0.0,0.0,0.0,0.0,0.0,0.0,0.0,0.0,0.0,0.0,0.0,0.0,0.0,0.0,0.0,0.0,0.0,0.0,0.0,0.0,0.0,0.0,0.0,0.0,0.0,0.0,0.0,0.0,0.0,0.0,0.0,0.0,0.0,0.0,0.0,0.0,0.0,0.0,0.0,0.0,0.0,0.0,0.0,0.0,0.0,0.0,0.0,0.0,0.0,0.0,0.0,0.0,0.0,0.0,0.0,0.0,0.0,0.0,0.0,0.0,0.0,0.0,0.0,0.0,0.0,0.0,0.0,0.0,0.0,0.0,0.0,0.0,0.0,0.0,0.0,0.0,0.0,0.0,0.0,0.0,0.0,0.0,0.0,0.0,0.0,0.0,0.0,0.0,0.0,0.0,0.0,0.0,0.0,0.0,0.0,0.0,0.0,0.0,0.0,0.0,0.0,0.0,0.0,0.0,0.0,0.0,0.0,0.0,0.0,0.0,0.0,0.0,0.0,0.0,0.0,0.0,0.0,0.0,0.0,0.0,0.0,0.0,0.0,0.0,0.0,0.0,0.0,0.0,0.0,0.0,0.0,0.0,0.0,0.0,0.0,0.0,0.0,0.0,0.0,0.0,0.0,0.0,0.0,0.0,0.0,0.0,0.0,0.0,0.0,0.0,0.0,0.0,0.0,0.0,0.0,0.0,0.0,0.0,0.0,0.0,0.0,0.0,0.0,0.0,0.0,0.0,0.0,0.0,0.0,0.0,0.0,0.0,0.0,0.0,0.0,0.0,0.0,0.0,0.0,0.0,0.0,0.0,0.0,0.0,0.0,0.0,0.0,0.0,0.0,0.0,0.0,0.0,0.0,0.0,0.0,0.0,0.0,0.0,0.0,0.0,0.0,0.0,0.0,0.0,0.0,0.0,0.0,0.0,0.0,0.0,0.0,0.0,0.0,0.0,0.0,0.0,0.0,0.0,0.0,0.0,0.0,0.0,0.0,0.0,0.0,0.0,0.0,0.0,0.0,0.0,0.0,0.0,0.0,0.0,0.0,0.0,0.0,0.0,0.0,0.0,0.0,0.0,0.0,0.0,0.0,0.0,0.0,0.0,0.0,0.0,0.0,0.0,0.0,0.0,0.0,0.0,0.0,0.0,0.0,0.0,0.0,0.0,0.0,0.0,0.0,0.0,0.0,0.0,0.0,0.0,0.0,0.0,0.0,0.0,0.0,0.0,0.0,0.0,0.0,0.0,0.0,0.0,0.0,0.0,0.0,0.0,0.0,0.0,0.0,0.0,0.0,0.0,0.0,0.0,0.0,0.0,0.0,0.0,0.0,0.0,0.0,0.0,0.0,0.0,0.0,0.0,0.0,0.0,0.0,0.0,0.0,0.0,0.0,0.0,0.0,0.0,0.0,0.0,0.0,0.0,0.0,0.0,0.0,0.0,0.0,0.0,0.0,0.0,0.0,0.0,0.0,0.0,0.0,0.0,0.0,0.0,0.0,0.0,0.0,0.0,0.0,0.0,0.0,0.0,0.0,0.0,0.0,0.0,0.0,0.0,0.0,0.0,0.0,0.0,0.0,0.0,0.0,0.0,0.0,0.0,0.0,0.0,0.0,0.0,0.0,0.0,0.0,0.0,0.0,0.0,0.0,0.0,0.0,0.0,0.0,0.0,0.0,0.0,0.0,0.0,0.0,0.0,0.0,0.0,0.0,0.0,0.0,0.0,0.0,0.0,0.0,0.0,0.0,0.0,0.0,0.0,0.0,0.0,0.0,0.0,0.0,0.0,0.0,0.0,0.0,0.0,0.0,0.0,0.0,0.0,0.0,0.0,0.0,0.0,0.0,0.0,0.0,0.0,0.0,0.0,0.0,0.0,0.0,0.0,0.0,0.0,0.0,0.0,0.0,0.0,0.0,0.0,0.0,0.0,0.0,0.0,0.0,0.0,0.0,0.0,0.0,0.0,0.0,0.0,0.0,0.0,0.0,0.0,0.0,0.0,0.0,0.0,0.0,0.0,0.0,0.0,0.0,0.0,0.0,0.0,0.0,0.0,0.0,0.0,0.0,0.0,0.0,0.0,0.0,0.0,0.0,0.0,0.0,0.0,0.0,0.0,0.0,0.0,0.0,0.0,0.0,0.0,0.0,0.0,0.0,0.0,0.0,0.0,0.0,0.0,0.0,0.0,0.0,0.0,0.0,0.0,0.0,0.0,0.0,0.0,0.0,0.0,0.0,0.0,0.0,0.0,0.0,0.0,0.0,0.0,0.0,0.0,0.0,0.0,0.0,0.0,0.0,0.0,0.0,0.0,0.0,0.0,0.0,0.0,-1.9708,0.0,0.0,0.0,0.0,0.0,0.0,0.0,0.0,0.0,0.0,0.0,0.0,0.0,0.0,0.0,0.0,0.0,0.0,0.0,0.0,0.0,0.0,0.0,0.0,0.0,0.0,0.0,0.0,0.0,0.0,0.0,0.0,0.0,0.0,0.0,0.0,0.0,0.0,0.0,0.0,0.0,0.0,0.0,0.0,0.0,0.0,0.0,0.0,0.0,0.0,0.0,0.0,0.0,0.0,0.0,0.0,0.0,0.0,0.0,0.0,0.0,0.0,0.0,0.0,0.0,0.0,0.0,0.0,0.0,0.0,0.0,0.0,0.0,0.0,0.0,0.0,0.0,0.0,0.0,0.0,0.0,0.0,0.0,0.0,0.0,0.0,0.0,0.0,0.0,0.0,0.0,0.0,0.0,0.0,0.0,0.0,0.0,0.0,0.0,0.0,0.0,0.0,0.0,0.0,0.0,0.0,0.0,0.0,0.0,0.0,0.0,0.0,0.0,0.0,0.0,0.0,-1.9656,0.0,0.0,0.0,0.0,0.0,0.0,0.0,0.0,0.0,0.0,0.0,0.0,0.0,0.0,0.0,0.0,0.0,0.0,0.0,0.0,0.0,0.0,0.0,0.0,0.0,0.0,0.0,0.0,0.0,0.0,0.0,0.0,0.0,0.0,0.0,0.0,0.0,0.0,0.0,0.0,0.0,0.0,0.0,0.0,0.0,0.0,0.0,0.0,0.0,0.0,0.0,0.0,0.0,0.0,0.0,0.0,0.0,0.0,0.0,0.0,0.0,0.0,0.0,0.0,0.0,0.0,0.0,0.0,0.0,0.0,0.0,0.0,0.0,0.0,0.0,0.0,0.0,0.0,0.0,0.0,0.0,0.0,0.0,0.0,0.0,0.0,0.0,0.0,0.0,0.0,0.0,0.0,0.0,0.0,0.0,0.0,0.0,0.0,0.0,0.0,0.0,0.0,0.0,0.0,0.0,0.0,0.0,0.0,-1.7645,-1.759,-1.7595,-1.7689,-1.7793,-1.7848,-1.8596,-1.9087,-1.9316,-1.9733,0.0,0.0,0.0,0.0,0.0,0.0,0.0,0.0,0.0,0.0,0.0,0.0,0.0,0.0,0.0,0.0,0.0,0.0,0.0,0.0,0.0,0.0,0.0,0.0,0.0,0.0,0.0,0.0,0.0,0.0,0.0,0.0,0.0,0.0,0.0,0.0,0.0,0.0,0.0,0.0,0.0,0.0,0.0,0.0,0.0,0.0,0.0,0.0,0.0,0.0,0.0,0.0,0.0,0.0,0.0,0.0,0.0,0.0,0.0,0.0,0.0,0.0,0.0,0.0,0.0,0.0,0.0,0.0,0.0,0.0,0.0,0.0,0.0,0.0,0.0,0.0,0.0,0.0,0.0,0.0,0.0,0.0,0.0,0.0,0.0,0.0,-1.8199,-1.8199,0.0,0.0,0.0,0.0,0.0,0.0,0.0,0.0,0.0,0.0,0.0,0.0,0.0,-1.7848,-1.7639,-1.7579,-1.7479,-1.7384,-1.719,-1.7128,-1.7245,-1.7179,-1.7296,-1.7579,-1.781,0.0,-1.8905,-1.9316,0.0,0.0,0.0,0.0,0.0,0.0,0.0,0.0,0.0,0.0,0.0,0.0,0.0,0.0,0.0,0.0,0.0,0.0,0.0,0.0,0.0,0.0,0.0,0.0,0.0,0.0,0.0,0.0,0.0,0.0,0.0,0.0,0.0,0.0,0.0,0.0,0.0,0.0,0.0,0.0,0.0,0.0,0.0,0.0,0.0,0.0,0.0,0.0,0.0,0.0,0.0,0.0,0.0,0.0,0.0,0.0,0.0,0.0,0.0,0.0,0.0,0.0,0.0,0.0,0.0,0.0,0.0,0.0,0.0,0.0,0.0,0.0,0.0,0.0,0.0,0.0,0.0,0.0,0.0,0.0,0.0,0.0,0.0,0.0,0.0,-1.8247,-1.7969,-1.7969,-1.7969,-1.8018,0.0,0.0,0.0,0.0,0.0,0.0,0.0,0.0,0.0,-1.7683,-1.7584,-1.7473,-1.724,-1.7134,-1.7094,-1.7043,-1.692,-1.6915,-1.6976,-1.6915,-1.6971,-1.7145,-1.7379,-1.7767,-1.8253,-1.8845,-1.9263,-1.961,0.0,0.0,0.0,0.0,-2.1166,-2.1277,0.0,0.0,0.0,0.0,0.0,0.0,0.0,0.0,0.0,0.0,0.0,0.0,0.0,0.0,0.0,-2.2833,0.0,0.0,0.0,0.0,0.0,0.0,0.0,0.0,0.0,0.0,0.0,0.0,0.0,0.0,0.0,0.0,0.0,0.0,0.0,0.0,0.0,0.0,0.0,0.0,0.0,0.0,0.0,0.0,0.0,0.0,0.0,0.0,0.0,0.0,0.0,0.0,0.0,0.0,0.0,0.0,0.0,0.0,0.0,0.0,0.0,0.0,0.0,0.0,0.0,0.0,0.0,0.0,0.0,0.0,0.0,0.0,0.0,0.0,0.0,0.0,0.0,-1.8133,-1.7963,-1.7903,-1.7903,-1.7903,0.0,0.0,0.0,0.0,0.0,0.0,-1.7601,-1.754,-1.7479,-1.7312,-1.7206,-1.7043,-1.6853,-1.6756,-1.6648,-1.6586,-1.6586,-1.6586,-1.6586,-1.6586,-1.6643,-1.671,-1.7043,-1.7323,-1.7656,-1.8362,-1.8833,-1.9192,-1.9668,-2.0022,-2.0264,-2.061,-2.0766,-2.0934,0.0,0.0,0.0,0.0,0.0,0.0,0.0,0.0,0.0,0.0,0.0,0.0,0.0,0.0,-2.3111,-2.291,-2.2712,-2.2569,0.0,0.0,0.0,0.0,0.0,0.0,0.0,0.0,0.0,0.0,0.0,0.0,0.0,0.0,0.0,0.0,0.0,0.0,0.0,0.0,0.0,0.0,0.0,0.0,0.0,0.0,0.0,0.0,0.0,0.0,0.0,0.0,0.0,0.0,0.0,0.0,0.0,0.0,0.0,0.0,0.0,0.0,0.0,0.0,0.0,0.0,0.0,0.0,0.0,0.0,0.0,0.0,0.0,0.0,0.0,0.0,0.0,0.0,0.0,0.0,0.0,-1.7903,-1.7903,0.0,0.0,0.0,0.0,-1.7711,-1.759,-1.7423,-1.7334,-1.7139,-1.696,-1.6812,-1.6812,-1.671,-1.6431,-1.6431,-1.6264,-1.5977,-1.5977,-1.5977,-1.5977,-1.6066,-1.6244,-1.6436,-1.6705,-1.6987,-1.7384,-1.7926,-1.8458,-1.9046,-1.9316,-1.961,-1.9901,-2.0264,-2.0516,-2.0666,0.0,0.0,0.0,0.0,0.0,0.0,0.0,0.0,0.0,0.0,0.0,0.0,0.0,-2.3193,-2.3061,-2.291,-2.2712,-2.256,-2.2432,0.0,0.0,0.0,0.0,0.0,0.0,0.0,0.0,0.0,0.0,0.0,0.0,0.0,0.0,0.0,0.0,0.0,0.0,0.0,0.0,0.0,0.0,0.0,0.0,0.0,0.0,0.0,0.0,0.0,0.0,0.0,0.0,0.0,0.0,0.0,0.0,0.0,0.0,0.0,0.0,0.0,0.0,0.0,0.0,0.0,0.0,0.0,0.0,0.0,0.0,0.0,0.0,0.0,0.0,0.0,0.0,0.0,0.0,0.0,0.0,-1.7903,-1.7805,0.0,-1.7711,-1.7645,-1.754,-1.744,-1.7251,-1.7134,-1.6987,-1.6925,-1.6751,-1.6545,-1.654,-1.6374,-1.6087,-1.6087,-1.6034,-1.5919,-1.5919,-1.5919,-1.5919,-1.6066,-1.6119,-1.6239,-1.6524,-1.6858,-1.7134,-1.7529,-1.8084,-1.8625,-1.8993,-1.9356,-1.9708,-1.9907,-2.0163,-2.0372,0.0,0.0,0.0,0.0,0.0,0.0,0.0,0.0,0.0,0.0,0.0,-2.3439,-2.3289,-2.3168,-2.3045,-2.291,-2.2712,-2.2533,-2.2413,0.0,0.0,0.0,0.0,0.0,0.0,0.0,0.0,0.0,0.0,0.0,0.0,0.0,0.0,0.0,0.0,0.0,0.0,0.0,0.0,0.0,0.0,0.0,-1.881,0.0,0.0,0.0,0.0,0.0,0.0,0.0,0.0,0.0,0.0,0.0,0.0,0.0,0.0,0.0,0.0,0.0,0.0,0.0,0.0,0.0,0.0,0.0,0.0,0.0,0.0,0.0,0.0,0.0,0.0,0.0,0.0,0.0,0.0,0.0,-1.8018,-1.7903,-1.7755,-1.7651,-1.7651,-1.7473,-1.7301,-1.7206,-1.6965,-1.6797,-1.6648,-1.6581,-1.6472,-1.6264,-1.6207,-1.6092,-1.5856,-1.5856,-1.5798,-1.573,-1.573,-1.573,-1.5725,-1.5894,-1.6009,-1.6066,-1.641,-1.6689,-1.696,-1.7357,-1.7805,-1.8307,-1.8732,-1.9093,-1.9402,-1.9656,-1.9856,-2.0074,0.0,0.0,0.0,0.0,0.0,0.0,0.0,0.0,0.0,0.0,-2.3494,-2.3415,-2.3217,-2.3144,-2.3036,-2.2919,-2.2712,-2.2533,-2.2405,-2.2089,0.0,0.0,0.0,0.0,0.0,0.0,0.0,0.0,0.0,0.0,0.0,0.0,0.0,0.0,0.0,0.0,0.0,0.0,0.0,0.0,0.0,0.0,-1.868,0.0,0.0,0.0,0.0,0.0,0.0,0.0,0.0,0.0,0.0,0.0,0.0,0.0,0.0,0.0,0.0,0.0,0.0,0.0,0.0,0.0,0.0,0.0,0.0,0.0,0.0,0.0,0.0,0.0,0.0,0.0,0.0,0.0,-1.8476,-1.8427,-1.8307,-1.7958,-1.781,-1.7651,-1.7523,-1.7179,-1.7005,-1.7011,-1.6735,-1.6524,-1.6379,-1.6181,-1.6009,-1.5919,-1.5914,-1.5856,-1.5672,-1.5672,-1.5609,-1.541,-1.541,-1.541,-1.5415,-1.5609,-1.5793,-1.5919,-1.6264,-1.6545,-1.6812,-1.7312,-1.7634,-1.7958,-1.8572,-1.8899,-1.9046,-1.946,-1.9656,-1.9856,0.0,0.0,0.0,0.0,0.0,0.0,0.0,0.0,0.0,0.0,-2.3313,-2.3232,-2.3135,-2.3061,-2.2961,-2.2764,-2.2659,-2.2506,-2.2285,0.0,0.0,0.0,0.0,0.0,0.0,0.0,0.0,0.0,0.0,0.0,0.0,0.0,0.0,0.0,0.0,0.0,0.0,0.0,0.0,0.0,0.0,0.0,-1.8443,0.0,0.0,0.0,0.0,0.0,0.0,0.0,0.0,0.0,0.0,0.0,0.0,0.0,0.0,0.0,0.0,0.0,0.0,0.0,0.0,0.0,0.0,0.0,0.0,0.0,0.0,0.0,0.0,0.0,0.0,0.0,0.0,-1.9064,-1.8744,-1.853,-1.8367,-1.8253,-1.7926,-1.7651,-1.7523,-1.7179,-1.6899,-1.674,-1.6529,-1.6363,-1.6181,-1.6014,-1.5904,-1.5735,-1.5735,-1.5667,-1.5478,-1.5478,-1.5473,-1.541,-1.541,-1.541,-1.5415,-1.5609,-1.5793,-1.5914,-1.6072,-1.641,-1.6812,-1.7022,-1.7351,-1.781,-1.8404,-1.878,-1.9046,-1.9362,-1.961,-1.9798,0.0,0.0,0.0,0.0,0.0,0.0,0.0,0.0,0.0,0.0,-2.3135,-2.3086,-2.3011,-2.2936,-2.2842,-2.2712,-2.256,-2.236,-2.2138,0.0,0.0,0.0,0.0,0.0,0.0,0.0,0.0,0.0,0.0,0.0,0.0,0.0,0.0,0.0,0.0,0.0,0.0,0.0,0.0,0.0,0.0,0.0,-1.8411,-1.8549,-1.8924,-1.9473,-2.0165,-2.0918,-2.1699,-2.2416,0.0,0.0,0.0,0.0,0.0,0.0,0.0,0.0,0.0,0.0,0.0,0.0,0.0,0.0,0.0,0.0,0.0,0.0,0.0,0.0,0.0,0.0,0.0,0.0,-1.9322,-1.917,-1.8899,-1.8625,-1.8416,-1.8307,-1.7926,-1.7656,-1.7423,-1.7083,-1.6802,-1.6534,-1.6363,-1.6186,-1.5951,-1.5846,-1.573,-1.5604,-1.5546,-1.5541,-1.541,-1.541,-1.541,-1.541,-1.541,-1.541,-1.541,-1.5541,-1.5667,-1.5919,-1.5961,-1.6296,-1.6812,-1.7022,-1.7307,0.0,0.0,0.0,0.0,0.0,-1.9565,-1.9805,0.0,0.0,0.0,0.0,0.0,0.0,0.0,0.0,0.0,0.0,0.0,-2.2936,-2.2885,-2.2756,-2.2685,-2.2667,-2.2424,-2.2192,0.0,0.0,0.0,0.0,0.0,0.0,0.0,0.0,0.0,0.0,0.0,0.0,0.0,0.0,0.0,0.0,0.0,0.0,0.0,0.0,0.0,0.0,0.0,0.0,-1.8471,-1.8471,-1.8613,-1.8869,-1.9573,-2.0157,-2.0735,-2.1669,0.0,0.0,0.0,0.0,0.0,0.0,0.0,0.0,0.0,0.0,0.0,0.0,0.0,0.0,0.0,0.0,0.0,0.0,0.0,0.0,0.0,0.0,0.0,0.0,-1.942,-1.9316,-1.8993,-1.8774,-1.8506,-1.8199,-1.7877,-1.7601,-1.7267,-1.7035,-1.6784,-1.6451,-1.6309,-1.6098,-1.5879,0.0,0.0,0.0,0.0,-1.5537,-1.5483,-1.5483,-1.5459,-1.541,-1.541,-1.541,-1.541,-1.541,-1.5599,-1.5919,-1.5919,-1.6254,-1.6812,-1.7078,-1.7423,-1.7816,-1.8253,-1.8518,-1.8774,-1.9204,-1.9565,-1.9805,0.0,0.0,0.0,0.0,0.0,0.0,0.0,0.0,0.0,-2.291,-2.2859,-2.2808,-2.2738,-2.2667,-2.256,-2.2386,-2.2223,-2.194,0.0,0.0,0.0,0.0,0.0,0.0,0.0,0.0,0.0,0.0,0.0,0.0,0.0,0.0,0.0,0.0,0.0,0.0,0.0,0.0,0.0,0.0,0.0,0.0,-1.8358,-1.8464,-1.8613,-1.8908,-1.9692,-2.024,-2.0803,-2.2214,-2.3104,-2.3651,-2.4036,0.0,0.0,0.0,0.0,0.0,0.0,0.0,0.0,0.0,0.0,0.0,0.0,0.0,0.0,0.0,0.0,0.0,0.0,0.0,0.0,-1.9414,-1.942,-1.9269,-1.8899,-1.8673,-1.8512,-1.8362,-1.7981,-1.7534,-1.7078,-1.7263,-1.7206,-1.6788,-1.689,-1.6913,-1.6785,-1.6604,-1.6479,-1.6475,-1.6479,-1.6299,-1.5998,-1.5937,-1.5762,-1.541,0.0,0.0,-1.541,-1.541,-1.5599,-1.5919,-1.5919,-1.6254,-1.6812,-1.696,-1.7518,-1.8253,-1.8464,-1.8827,-1.9263,-1.9368,-1.9565,-1.9805,0.0,0.0,0.0,0.0,0.0,0.0,0.0,0.0,0.0,0.0,-2.2659,-2.2641,-2.2605,-2.2515,-2.2413,-2.231,-2.2011,0.0,0.0,0.0,0.0,0.0,0.0,0.0,0.0,0.0,0.0,0.0,0.0,0.0,0.0,0.0,0.0,0.0,0.0,0.0,0.0,0.0,0.0,0.0,0.0,0.0,-1.8496,-1.8588,-1.8697,-1.8865,-1.9274,-1.9691,-2.0096,-2.0777,-2.1413,-2.1979,-2.2201,-2.2163,-2.1648,0.0,0.0,0.0,0.0,0.0,0.0,0.0,0.0,0.0,0.0,0.0,0.0,0.0,0.0,-1.9984,0.0,0.0,-1.9708,-1.9414,-1.942,-1.9354,-1.9191,-1.8959,-1.8701,-1.8222,-1.803,-1.7793,-1.7325,-1.7471,-1.7449,-1.7017,-1.7039,-1.7039,-1.685,-1.6728,-1.667,-1.667,-1.667,-1.6626,-1.6396,-1.6396,-1.6172,-1.5737,-1.5737,-1.5625,-1.541,-1.5483,-1.5672,-1.5914,-1.6087,-1.6426,-1.6812,-1.7195,-1.7799,-1.8518,-1.8566,-1.8934,-1.942,-1.942,-1.9565,-1.9805,0.0,0.0,0.0,0.0,0.0,0.0,0.0,0.0,0.0,0.0,0.0,-2.246,-2.246,-2.2321,-2.2209,0.0,0.0,0.0,0.0,0.0,0.0,0.0,0.0,0.0,0.0,0.0,0.0,0.0,0.0,0.0,0.0,0.0,0.0,0.0,0.0,0.0,0.0,0.0,0.0,0.0,0.0,0.0,-1.8704,-1.8743,-1.8805,-1.8831,-1.888,-1.9064,-1.9351,-1.9345,-1.9744,-2.031,-2.0303,-2.0033,-1.9635,-1.9327,-1.9384,0.0,0.0,0.0,0.0,0.0,0.0,0.0,0.0,0.0,-2.0353,-2.0093,-2.0042,-1.9984,-1.9862,-1.9805,-1.9708,-1.9414,-1.946,-1.9514,-1.9493,-1.9323,-1.8902,-1.8193,-1.8213,-1.8114,-1.7653,-1.7784,-1.7682,-1.7362,-1.7306,-1.7165,-1.6977,-1.6982,-1.6982,-1.6982,-1.6982,-1.6943,-1.686,-1.686,-1.6636,-1.6191,-1.6164,-1.5879,-1.5537,-1.5649,-1.5793,-1.5919,-1.6316,-1.6705,-1.6976,-1.754,-1.8084,-1.8619,-1.8667,-1.8987,-1.942,-1.942,-1.9565,-1.9805,0.0,0.0,0.0,0.0,0.0,0.0,0.0,0.0,0.0,0.0,0.0,0.0,0.0,0.0,0.0,0.0,0.0,0.0,0.0,0.0,0.0,0.0,0.0,0.0,0.0,0.0,0.0,0.0,0.0,0.0,0.0,0.0,0.0,0.0,0.0,0.0,0.0,0.0,0.0,0.0,0.0,0.0,-1.8829,-1.8988,-1.899,-1.888,-1.8816,-1.8958,-1.9242,-1.9916,-2.0243,-2.0306,-2.028,-2.0005,-1.9709,-1.9639,0.0,-2.0218,-1.9885,-2.0158,-2.0481,-2.0199,-2.0404,-2.0623,0.0,0.0,-2.0233,-2.0188,-2.0086,-1.999,-1.9984,-1.9869,-1.9708,-1.9414,-1.9725,-1.9787,-1.9392,-1.9454,-1.9374,-1.8844,-1.8703,-1.8485,-1.8176,-1.8249,-1.8153,-1.783,-1.805,-1.8063,-1.7871,-1.7866,-1.7866,-1.7866,-1.7866,-1.7686,-1.7314,-1.731,-1.709,-1.6655,-1.6255,-1.6101,-1.6037,-1.5787,-1.5793,-1.5914,-1.6627,-1.7128,-1.7468,-1.7865,-1.8296,-1.8614,-1.8881,-1.9152,-1.942,-1.942,-1.9565,-1.9805,0.0,0.0,0.0,0.0,0.0,0.0,0.0,0.0,0.0,0.0,0.0,0.0,0.0,0.0,0.0,0.0,0.0,0.0,0.0,0.0,0.0,0.0,0.0,0.0,0.0,0.0,0.0,0.0,0.0,0.0,0.0,0.0,0.0,0.0,0.0,0.0,0.0,0.0,0.0,0.0,0.0,0.0,-1.8981,-1.9139,-1.9214,-1.9185,-1.9178,-1.9147,0.0,0.0,-2.0292,-2.0258,-2.0016,-1.9854,-1.9664,-1.9433,-1.9456,0.0,-1.9277,-1.9485,0.0,0.0,-2.0119,-2.0378,-2.0341,-2.0239,-2.0182,-2.0182,-2.0182,-2.0086,-1.999,-1.9926,-1.993,0.0,-1.9927,-2.0015,-2.003,-1.9887,-1.9705,-1.961,-1.92,-1.8781,-1.8333,-1.8407,-1.8349,-1.814,-1.8108,-1.8076,-1.8008,-1.8008,-1.8008,-1.8008,-1.8008,-1.7925,-1.7749,-1.7749,-1.7534,-1.7104,-1.666,-1.638,-1.6231,-1.5934,-1.6024,-1.6477,-1.6982,-1.7418,-1.7738,-1.803,-1.8356,-1.8738,-1.894,-1.9152,-1.942,-1.9466,-1.9662,-1.9805,0.0,0.0,0.0,0.0,0.0,0.0,0.0,0.0,0.0,0.0,0.0,0.0,0.0,0.0,0.0,0.0,0.0,0.0,0.0,0.0,0.0,0.0,0.0,0.0,0.0,0.0,0.0,0.0,0.0,0.0,0.0,0.0,0.0,0.0,0.0,0.0,0.0,0.0,0.0,0.0,0.0,0.0,-1.9183,-1.9339,-1.9376,-1.9383,-1.9389,-1.9409,0.0,0.0,-2.0223,-2.0108,-1.9878,-1.9725,-1.9571,-1.9266,-1.8983,-1.8768,-1.881,0.0,0.0,-1.9656,-1.9971,-2.0182,-2.0182,-2.0233,-2.0283,-2.0283,-2.0283,-2.0246,-2.0086,-1.9978,-2.0005,-2.0139,-2.0079,-2.0151,-2.0511,-2.0138,-1.9916,-1.9939,-1.9462,-1.8885,-1.8434,-1.843,-1.841,-1.8342,-1.8139,-1.8008,-1.8008,-1.8008,-1.8008,-1.8008,-1.8008,-1.8008,-1.8008,-1.8008,-1.7856,-1.7549,-1.7056,-1.6683,-1.6475,-1.6165,-1.6368,-1.6858,-1.7206,-1.7595,-1.7963,-1.8133,-1.8464,-1.8845,-1.9052,-1.9257,-1.9466,-1.961,-1.9708,-1.9805,0.0,0.0,0.0,0.0,0.0,0.0,0.0,0.0,0.0,0.0,0.0,0.0,0.0,0.0,0.0,0.0,0.0,0.0,0.0,0.0,0.0,0.0,0.0,0.0,0.0,0.0,0.0,0.0,0.0,0.0,0.0,0.0,0.0,0.0,0.0,0.0,0.0,0.0,0.0,0.0,0.0,0.0,-1.9339,-1.9538,-1.9493,-1.9383,-1.9389,0.0,0.0,0.0,-2.0035,-1.9747,-1.9931,-1.9771,0.0,-1.942,-1.8851,0.0,0.0,0.0,-1.9001,-1.9477,-1.9935,-2.0182,-2.0182,-2.0347,-2.0467,-2.0467,-2.0467,-2.041,-2.0233,-1.9965,-1.9837,-1.9988,-1.9981,-2.0076,-2.0392,-2.0241,-1.996,-1.9665,-1.9335,-1.8865,0.0,-1.8327,-1.8269,-1.8269,-1.8139,-1.8008,-1.8008,-1.8008,-1.8008,-1.8008,-1.8008,-1.8008,-1.8008,-1.8008,-1.8003,-1.7978,-1.7323,-1.6966,-1.6989,-1.6547,-1.6591,-1.7005,-1.7351,-1.7695,-1.8139,-1.8458,-1.8774,-1.8993,-1.9263,-1.9466,-1.961,-1.9753,-1.9805,-1.9805,0.0,0.0,0.0,0.0,0.0,0.0,0.0,0.0,0.0,0.0,0.0,0.0,0.0,0.0,0.0,0.0,0.0,0.0,0.0,0.0,0.0,0.0,0.0,0.0,0.0,0.0,0.0,0.0,0.0,0.0,0.0,0.0,0.0,0.0,0.0,0.0,0.0,0.0,0.0,0.0,0.0,0.0,-1.9494,-1.9516,-1.9566,-1.9588,0.0,0.0,0.0,0.0,0.0,0.0,-1.9624,0.0,0.0,-1.8745,0.0,0.0,0.0,0.0,-1.938,-1.9319,-1.9679,-2.0086,-2.0182,-2.0353,-2.0511,-2.0612,-2.0612,-2.0555,-2.0233,-2.0029,-2.0079,-2.0464,-2.0213,-2.0151,-2.0466,-2.0084,-1.9665,-1.9335,-1.887,0.0,0.0,0.0,0.0,-1.8144,-1.8008,-1.8008,-1.8008,-1.8008,-1.8008,-1.8008,-1.8008,-1.8008,-1.8008,-1.8008,-1.8076,-1.8197,-1.758,-1.7109,-1.6583,-1.6722,-1.6915,-1.7211,-1.77,-1.803,-1.8307,-1.8727,-1.8993,-1.917,-1.9414,-1.9565,-1.961,-1.9753,-1.9805,-1.9805,0.0,0.0,0.0,0.0,0.0,0.0,0.0,0.0,0.0,0.0,0.0,0.0,0.0,0.0,0.0,0.0,0.0,0.0,0.0,0.0,0.0,0.0,0.0,0.0,0.0,0.0,0.0,0.0,0.0,0.0,0.0,0.0,0.0,0.0,0.0,0.0,0.0,0.0,0.0,0.0,0.0,0.0,-1.9589,-1.959,-1.962,0.0,0.0,0.0,0.0,0.0,0.0,0.0,0.0,0.0,0.0,0.0,0.0,0.0,0.0,-1.9044,-1.9464,-1.9458,-1.9775,-2.0086,-2.0182,-2.0454,-2.0675,-2.0768,-2.0768,-2.0662,-2.0328,-2.0074,-2.0089,-2.0582,-2.0222,-1.9981,-2.0442,-1.9933,-1.9346,-1.9008,-1.8539,-1.8134,0.0,0.0,0.0,-1.8008,-1.8008,-1.8008,-1.8008,-1.8008,-1.8008,-1.8008,-1.8008,-1.8008,-1.8144,-1.8144,-1.8049,-1.7996,-1.7688,-1.7188,-1.6483,-1.692,-1.7256,-1.7495,-1.7926,-1.8253,-1.8583,-1.8887,-1.9105,-1.9275,-1.9512,-1.961,-1.9714,-1.9811,-1.9862,-1.9862,0.0,0.0,0.0,0.0,0.0,0.0,0.0,0.0,0.0,0.0,0.0,0.0,0.0,0.0,0.0,0.0,0.0,0.0,0.0,0.0,0.0,0.0,0.0,0.0,0.0,0.0,0.0,0.0,0.0,0.0,0.0,0.0,0.0,0.0,0.0,0.0,0.0,0.0,0.0,0.0,0.0,0.0,-1.9686,-1.9692,0.0,0.0,0.0,0.0,0.0,0.0,0.0,0.0,0.0,0.0,0.0,0.0,0.0,-1.8674,-1.9553,-1.9529,-1.9376,-1.9857,-2.0086,-2.0182,-2.0233,-2.0568,-2.0894,-2.0894,-2.0894,-2.0782,0.0,0.0,-1.9952,-2.04,-2.0006,-1.9769,-2.0267,-1.9747,-1.9147,0.0,0.0,0.0,0.0,0.0,0.0,-1.794,0.0,-1.8008,-1.8008,-1.8008,-1.8008,-1.8008,-1.8008,-1.8144,-1.8269,-1.8337,-1.8031,-1.7533,-1.7668,-1.7368,-1.6632,-1.7099,-1.744,-1.7767,-1.8035,-1.8416,-1.8798,-1.894,-1.9152,-1.942,-1.9565,-1.9708,-1.9811,-1.9926,-1.999,-1.999,0.0,0.0,0.0,0.0,0.0,0.0,0.0,0.0,0.0,0.0,0.0,0.0,0.0,0.0,0.0,0.0,0.0,0.0,0.0,0.0,0.0,0.0,0.0,0.0,0.0,0.0,0.0,0.0,0.0,0.0,0.0,0.0,0.0,0.0,0.0,0.0,0.0,0.0,0.0,0.0,0.0,0.0,-2.0587,0.0,0.0,0.0,0.0,0.0,0.0,0.0,0.0,0.0,0.0,0.0,-1.9605,0.0,0.0,-1.9474,-1.9468,-1.9658,-1.9813,-1.9959,-2.0086,-2.0233,-2.0398,-2.0675,-2.0894,-2.0894,-2.0894,-2.0782,0.0,0.0,0.0,-2.04,-1.9884,0.0,-1.9998,-1.9407,0.0,0.0,0.0,-1.772,-1.7598,-1.7647,0.0,0.0,-1.7935,-1.8008,-1.8008,-1.8008,-1.8008,-1.8008,-1.8139,-1.8269,-1.8269,-1.8669,-1.8489,-1.7668,-1.7961,-1.7711,-1.7105,-1.7373,-1.7645,-1.8035,-1.835,-1.8673,-1.8946,-1.9204,-1.9414,-1.9565,-1.9708,-1.9811,-1.9926,-1.999,-2.0035,-2.0182,0.0,0.0,0.0,0.0,0.0,0.0,0.0,0.0,0.0,0.0,0.0,0.0,0.0,0.0,0.0,0.0,0.0,0.0,0.0,0.0,0.0,0.0,0.0,0.0,0.0,0.0,0.0,0.0,0.0,0.0,0.0,0.0,0.0,0.0,0.0,0.0,0.0,0.0,0.0,0.0,0.0,0.0,0.0,0.0,0.0,0.0,0.0,0.0,0.0,0.0,0.0,-2.1213,-2.0628,-2.0201,-1.9877,-1.9836,0.0,-1.9713,-1.9744,-1.9838,-1.9926,-1.999,-2.0086,-2.0283,-2.0492,-2.0755,-2.0974,-2.1017,-2.0967,0.0,0.0,0.0,0.0,0.0,0.0,0.0,-1.9733,-1.9208,-1.8607,0.0,-1.7798,0.0,-1.7387,-1.752,-1.7588,0.0,-1.7867,-1.8008,-1.8008,-1.8071,-1.8139,-1.8139,-1.8274,-1.8472,-1.8669,-1.9003,-1.8919,-1.839,-1.8419,-1.8175,-1.7692,-1.7745,-1.7914,-1.8253,0.0,-1.8887,-1.9111,-1.9368,-1.9512,-1.961,-1.9817,-1.9926,-2.0042,-2.015,-2.029,-2.0422,0.0,0.0,0.0,0.0,0.0,0.0,0.0,0.0,0.0,0.0,0.0,0.0,0.0,0.0,0.0,0.0,0.0,0.0,0.0,0.0,0.0,0.0,0.0,0.0,0.0,0.0,0.0,0.0,0.0,0.0,0.0,0.0,0.0,0.0,0.0,0.0,0.0,0.0,0.0,0.0,0.0,0.0,0.0,0.0,0.0,0.0,0.0,0.0,0.0,0.0,-2.2091,-2.1282,-2.0618,-2.024,-2.003,-2.0228,-2.0007,-1.9742,-2.0111,-2.0016,-1.9862,-1.9978,-2.0137,-2.0283,-2.0573,-2.0835,-2.1039,-2.118,0.0,0.0,-2.0666,0.0,-1.9899,-2.0159,0.0,-1.9327,-1.9532,-1.9075,-1.8539,-1.8008,-1.7671,-1.7397,-1.7235,-1.7392,-1.7539,-1.7534,-1.7876,-1.8008,-1.8008,-1.8207,-1.8337,-1.8405,-1.8544,-1.8741,-1.9136,-1.9341,-1.9371,-1.9208,-1.8916,-1.8614,-1.8308,-1.8208,-1.8253,-1.8476,-1.8839,-1.9105,-1.9275,-1.9519,-1.961,-1.9668,-1.9933,-2.0042,-2.0093,-2.0404,-2.0592,-2.0679,0.0,0.0,0.0,0.0,0.0,0.0,0.0,0.0,0.0,0.0,0.0,0.0,0.0,0.0,0.0,0.0,0.0,0.0,0.0,0.0,0.0,0.0,0.0,0.0,0.0,0.0,0.0,0.0,0.0,0.0,0.0,0.0,0.0,0.0,0.0,0.0,0.0,0.0,0.0,0.0,0.0,0.0,0.0,0.0,0.0,0.0,0.0,0.0,0.0,0.0,-2.241,-2.2262,-2.1822,-2.1442,-2.109,-2.0902,-2.0492,-2.0111,-2.0156,-2.0016,-1.9856,-2.0074,-2.0182,-2.029,-2.0775,-2.0911,0.0,0.0,0.0,-2.0934,-2.0666,-2.015,0.0,-2.0159,0.0,0.0,0.0,0.0,-1.8279,0.0,0.0,0.0,0.0,0.0,0.0,0.0,0.0,-1.8269,-1.8269,-1.8269,-1.8467,-1.8942,-1.9008,-1.9142,-1.9539,-1.9786,-1.9743,-1.9345,-1.9282,-1.9086,-1.8766,-1.849,-1.8577,-1.8887,-1.8993,0.0,-1.9512,-1.9558,-1.972,-1.9939,-1.9984,-2.0144,-2.041,-2.0529,-2.0692,-2.0875,0.0,0.0,0.0,0.0,0.0,0.0,0.0,0.0,0.0,0.0,0.0,0.0,0.0,0.0,0.0,0.0,0.0,0.0,0.0,0.0,0.0,0.0,0.0,0.0,0.0,0.0,0.0,0.0,0.0,0.0,0.0,0.0,0.0,0.0,0.0,0.0,0.0,0.0,0.0,0.0,0.0,0.0,0.0,0.0,0.0,0.0,0.0,0.0,0.0,0.0,-2.2558,-2.2516,-2.2037,-2.1657,-2.1375,-2.1089,-2.0692,-2.0353,-2.0353,-2.0188,-2.0067,-2.0296,-2.0353,-2.0454,-2.0861,0.0,0.0,0.0,0.0,-2.0934,-2.0666,0.0,0.0,0.0,0.0,0.0,0.0,0.0,0.0,0.0,0.0,0.0,0.0,0.0,0.0,0.0,0.0,-1.8269,-1.8269,-1.8534,-1.8875,-1.9208,-1.9407,-1.96,-1.9851,-2.0118,-2.0267,-2.0351,-1.9774,-1.9516,-1.9489,-1.8985,-1.8833,-1.8987,-1.9198,-1.9402,-1.961,-1.9656,-1.9817,-1.999,-2.0086,-2.0283,-2.0586,-2.0699,-2.0911,-2.12,0.0,0.0,0.0,0.0,0.0,0.0,0.0,0.0,0.0,0.0,0.0,0.0,0.0,0.0,0.0,0.0,0.0,0.0,0.0,0.0,0.0,0.0,0.0,0.0,0.0,0.0,0.0,0.0,0.0,0.0,0.0,0.0,0.0,0.0,0.0,0.0,0.0,0.0,0.0,0.0,0.0,0.0,0.0,0.0,0.0,0.0,0.0,0.0,0.0,0.0,-2.2608,-2.2516,-2.199,-2.1657,-2.1375,-2.1089,-2.0749,-2.0505,-2.0511,-2.0347,-2.0239,-2.0454,-2.0511,-2.0605,-2.0941,-2.1039,0.0,0.0,-2.118,-2.0934,-2.0666,0.0,0.0,0.0,0.0,0.0,0.0,0.0,0.0,0.0,0.0,0.0,0.0,0.0,0.0,0.0,0.0,-1.8467,-1.8467,-1.8936,-1.9274,-1.9468,-1.9802,-2.0053,-2.0296,-2.0453,-2.0786,-2.121,-2.0251,-1.9878,-2.0134,-1.9371,-1.9046,-1.9146,-1.9454,-1.961,-1.9656,-1.9811,-1.992,-2.0035,-2.0233,-2.0429,-2.0679,-2.0918,-2.1151,-2.1416,0.0,0.0,0.0,0.0,0.0,0.0,0.0,0.0,0.0,0.0,0.0,0.0,0.0,0.0,0.0,0.0,0.0,0.0,0.0,0.0,0.0,0.0,0.0,0.0,0.0,0.0,0.0,0.0,0.0,0.0,0.0,0.0,0.0,0.0,0.0,0.0,0.0,0.0,0.0,0.0,0.0,0.0,0.0,0.0,0.0,0.0,0.0,0.0,0.0,0.0,0.0,-2.2516,-2.199,-2.1705,-2.1513,-2.1089,0.0,0.0,-2.0511,-2.0347,-2.0239,-2.0454,-2.0542,-2.0666,-2.0941,0.0,0.0,0.0,-2.118,-2.0934,-2.0666,-2.015,0.0,0.0,0.0,0.0,0.0,0.0,0.0,0.0,0.0,0.0,0.0,0.0,0.0,0.0,0.0,-1.9008,-1.9008,-1.9335,-1.9731,-2.0036,-2.0036,-2.0302,-2.0833,-2.1031,-2.1221,-2.1382,-2.0587,-2.0332,-2.0429,-1.9546,-1.9322,-1.9558,-1.9558,-1.9656,0.0,-1.9926,-2.008,-2.0233,-2.0466,-2.0692,-2.0931,-2.1242,-2.1375,-2.1465,0.0,0.0,0.0,0.0,0.0,0.0,0.0,0.0,0.0,0.0,0.0,0.0,0.0,0.0,0.0,0.0,0.0,0.0,0.0,0.0,0.0,0.0,0.0,0.0,0.0,0.0,0.0,0.0,0.0,0.0,0.0,0.0,0.0,0.0,0.0,0.0,0.0,0.0,0.0,0.0,0.0,0.0,0.0,0.0,0.0,0.0,0.0,0.0,0.0,0.0,0.0,0.0,-2.1942,-2.1657,0.0,0.0,-2.0898,-2.0762,-2.0655,-2.0555,-2.0498,-2.0605,-2.0712,-2.0812,-2.0947,0.0,0.0,-2.1277,-2.1131,-2.0885,-2.0516,-2.0112,-1.9772,0.0,0.0,0.0,0.0,0.0,0.0,0.0,0.0,0.0,0.0,0.0,0.0,0.0,-1.9396,-1.9715,-1.9715,-1.9846,-2.0053,-2.0253,-2.0571,-2.0892,-2.1094,-2.1365,-2.146,-2.1359,-2.0688,-2.04,-2.0299,-1.9711,-1.9519,-1.961,-1.9708,-1.9817,0.0,-1.9984,-2.0144,-2.0398,-2.0516,-2.0779,-2.1109,-2.1326,-2.1609,-2.1895,0.0,0.0,0.0,0.0,0.0,0.0,0.0,0.0,0.0,0.0,0.0,0.0,0.0,0.0,0.0,0.0,0.0,0.0,0.0,0.0,0.0,0.0,0.0,0.0,0.0,0.0,0.0,0.0,0.0,0.0,0.0,0.0,0.0,0.0,0.0,0.0,0.0,0.0,0.0,0.0,0.0,0.0,0.0,0.0,0.0,0.0,0.0,0.0,0.0,0.0,0.0,0.0,0.0,0.0,0.0,0.0,-2.0961,-2.0888,-2.0762,-2.0705,-2.0705,-2.0705,-2.0775,-2.0938,0.0,0.0,-2.1131,-2.118,-2.1095,-2.0848,-2.0479,-2.0055,-1.9716,0.0,0.0,0.0,0.0,0.0,0.0,0.0,0.0,0.0,0.0,0.0,0.0,0.0,-1.9977,-2.0302,-2.0431,-2.049,-2.0501,-2.0658,-2.1031,-2.1285,-2.1417,-2.1528,-2.1515,-2.1362,-2.0728,-2.0372,-2.0255,-1.9812,-1.961,-1.9656,-1.9753,-1.9869,0.0,-2.0035,-2.0246,-2.0549,-2.0679,-2.0921,-2.1277,-2.1513,-2.1737,-2.191,0.0,0.0,0.0,0.0,0.0,0.0,0.0,0.0,0.0,0.0,0.0,0.0,0.0,0.0,0.0,0.0,0.0,0.0,0.0,0.0,0.0,0.0,0.0,0.0,0.0,0.0,0.0,0.0,0.0,0.0,0.0,0.0,0.0,0.0,0.0,0.0,0.0,0.0,0.0,0.0,0.0,0.0,0.0,0.0,0.0,0.0,0.0,0.0,0.0,0.0,0.0,0.0,0.0,0.0,0.0,0.0,-2.0961,-2.0888,-2.0762,-2.0705,-2.0705,-2.0705,-2.0775,-2.0938,0.0,0.0,-2.1039,-2.118,-2.1066,-2.0782,-2.0479,-2.0055,-1.9656,-1.9099,0.0,0.0,0.0,0.0,0.0,0.0,0.0,0.0,0.0,0.0,0.0,0.0,-2.0372,0.0,-2.1164,-2.1331,-2.1336,-2.1227,-2.1336,-2.1531,-2.1868,-2.1523,-2.1374,-2.1606,-2.0648,-2.028,-2.0351,-1.9859,-1.9656,-1.9805,-1.9805,-1.9869,0.0,-2.0131,-2.0372,-2.0616,-2.0878,-2.118,-2.1465,-2.1848,-2.1653,-2.1278,0.0,0.0,0.0,0.0,0.0,0.0,0.0,0.0,0.0,0.0,0.0,0.0,0.0,0.0,0.0,0.0,0.0,0.0,0.0,0.0,0.0,0.0,0.0,0.0,0.0,0.0,0.0,0.0,0.0,0.0,0.0,0.0,0.0,0.0,0.0,0.0,0.0,0.0,0.0,0.0,0.0,0.0,0.0,0.0,0.0,0.0,0.0,0.0,0.0,0.0,0.0,0.0,0.0,0.0,0.0,0.0,0.0,0.0,-2.0762,-2.0705,-2.0705,-2.0705,-2.0775,-2.0894,-2.0938,0.0,-2.0997,-2.1023,-2.0855,-2.0636,-2.0328,-1.9914,-1.9506,-1.9093,-1.9148,0.0,0.0,0.0,0.0,0.0,0.0,0.0,0.0,0.0,0.0,-2.0635,-2.095,-2.1267,-2.1531,-2.1794,-2.1806,-2.1567,-2.1812,-2.1814,-2.1499,-2.1572,-2.1351,-2.0779,-2.0489,-2.0225,-2.0003,-1.9834,-1.9753,-1.9805,-1.992,-2.0029,-2.0131,-2.0372,-2.0586,-2.0818,-2.1138,-2.1416,-2.1657,-2.1523,-2.1523,-2.1576,0.0,0.0,0.0,0.0,0.0,0.0,0.0,0.0,0.0,0.0,0.0,0.0,0.0,0.0,0.0,0.0,0.0,0.0,0.0,0.0,0.0,0.0,0.0,0.0,0.0,0.0,0.0,0.0,0.0,0.0,0.0,0.0,0.0,0.0,0.0,0.0,0.0,0.0,0.0,0.0,0.0,0.0,0.0,0.0,0.0,0.0,0.0,0.0,0.0,0.0,0.0,0.0,0.0,0.0,0.0,0.0,0.0,0.0,0.0,-2.0705,-2.0705,-2.0705,-2.0768,0.0,0.0,0.0,0.0,-2.0812,-2.0649,-2.0479,-2.0188,-1.9823,-1.9506,-1.9139,-1.9067,0.0,0.0,0.0,0.0,0.0,0.0,0.0,0.0,0.0,0.0,-2.121,-2.1276,-2.1425,-2.1677,-2.1747,-2.1698,-2.1518,-2.1831,-2.1801,-2.1191,-2.121,-2.0995,-2.0424,-2.0266,-2.0032,-1.9805,-1.9805,-1.9811,-1.9869,-1.9984,-2.0131,0.0,-2.0516,-2.0779,-2.1115,-2.1333,-2.1472,-2.1553,-2.1359,-2.1189,-2.1073,0.0,0.0,0.0,0.0,0.0,0.0,0.0,0.0,0.0,0.0,0.0,0.0,0.0,0.0,0.0,0.0,0.0,0.0,0.0,0.0,0.0,0.0,0.0,0.0,0.0,0.0,0.0,0.0,-2.064,-2.0329,-1.9736,0.0,0.0,0.0,0.0,0.0,0.0,0.0,0.0,0.0,0.0,0.0,0.0,0.0,0.0,0.0,0.0,0.0,0.0,0.0,0.0,0.0,0.0,0.0,0.0,0.0,0.0,0.0,0.0,0.0,0.0,0.0,0.0,0.0,0.0,0.0,0.0,0.0,0.0,-2.036,-2.0035,-1.9778,-1.9506,-1.9239,0.0,0.0,0.0,0.0,0.0,0.0,0.0,0.0,0.0,0.0,-2.1409,-2.1602,-2.1403,-2.1373,-2.1628,-2.1256,-2.1069,-2.1188,-2.1576,-2.1479,-2.0981,-2.063,-2.0412,-2.0362,-1.9997,-1.9798,-1.9798,-1.9798,-1.9914,0.0,-2.0042,-2.0226,-2.061,-2.061,-2.0963,-2.1416,-2.1376,-2.1299,-2.1212,-2.1299,-2.0734,-2.0045,0.0,0.0,0.0,0.0,0.0,0.0,0.0,0.0,0.0,0.0,0.0,0.0,0.0,0.0,0.0,0.0,0.0,0.0,0.0,0.0,0.0,0.0,0.0,0.0,0.0,0.0,0.0,-2.0029,-2.0003,-1.9722,-1.9205,-1.9215,0.0,0.0,0.0,0.0,0.0,0.0,0.0,0.0,0.0,0.0,0.0,0.0,0.0,0.0,-2.1416,-2.1326,0.0,0.0,0.0,0.0,0.0,0.0,0.0,0.0,-2.0283,0.0,0.0,0.0,0.0,0.0,0.0,0.0,0.0,0.0,0.0,0.0,0.0,0.0,0.0,0.0,0.0,0.0,0.0,0.0,0.0,0.0,0.0,0.0,0.0,0.0,0.0,0.0,-2.083,-2.1116,-2.1225,-2.1341,-2.165,-2.1587,-2.1422,-2.1148,-2.1215,-2.1106,-2.0853,-2.0895,-2.0663,-2.007,-2.0086,-2.0074,-1.9984,-2.008,-2.0125,-2.0182,-2.0303,-2.0492,-2.061,-2.0921,-2.1173,-2.1376,-2.1296,-2.13,-2.1285,-2.0568,-2.0266,-2.0097,0.0,0.0,0.0,0.0,0.0,0.0,0.0,0.0,0.0,0.0,0.0,0.0,0.0,0.0,0.0,0.0,0.0,0.0,0.0,0.0,0.0,0.0,0.0,0.0,0.0,0.0,0.0,0.0,0.0,-1.8881,0.0,0.0,0.0,0.0,0.0,0.0,0.0,0.0,0.0,0.0,0.0,0.0,0.0,0.0,0.0,0.0,-2.118,-2.1095,0.0,-2.0885,-2.0749,-2.0669,0.0,0.0,0.0,0.0,-2.0137,-2.008,-2.0016,0.0,0.0,0.0,0.0,0.0,0.0,0.0,0.0,0.0,0.0,0.0,0.0,0.0,0.0,0.0,0.0,0.0,0.0,0.0,0.0,0.0,0.0,0.0,0.0,0.0,-2.0974,-2.1275,-2.1187,-2.1214,-2.1511,-2.1309,-2.112,-2.0959,-2.0952,-2.0798,-2.0538,-2.0648,-2.0501,-2.0086,-2.0182,-2.0182,-2.0086,-2.0182,-2.0277,-2.0372,-2.0485,-2.0679,-2.0921,-2.118,-2.1267,-2.1279,-2.1216,-2.1008,-2.0641,-2.0193,-1.9948,-1.9809,0.0,0.0,0.0,0.0,0.0,0.0,0.0,0.0,0.0,0.0,0.0,0.0,0.0,0.0,0.0,0.0,0.0,0.0,0.0,0.0,0.0,0.0,0.0,0.0,0.0,0.0,0.0,0.0,0.0,0.0,0.0,0.0,0.0,0.0,0.0,0.0,0.0,0.0,0.0,0.0,0.0,0.0,0.0,0.0,0.0,0.0,0.0,0.0,0.0,-2.0579,-2.0485,-2.0404,-2.0239,0.0,0.0,0.0,0.0,0.0,-1.9811,-1.992,-2.0131,0.0,0.0,0.0,0.0,0.0,0.0,0.0,0.0,0.0,0.0,0.0,0.0,0.0,0.0,0.0,0.0,0.0,0.0,0.0,0.0,0.0,0.0,-2.094,-2.1168,-2.153,-2.1166,-2.1049,-2.1277,-2.0891,-2.0759,-2.0908,-2.0901,-2.0716,-2.0385,-2.0328,-2.0277,-2.0277,-2.0283,-2.0283,-2.0277,-2.0283,-2.0435,-2.066,-2.066,0.0,-2.1094,-2.1281,-2.1184,-2.098,-2.0988,-2.0564,-1.9908,-1.9904,-1.9726,-1.9457,0.0,0.0,0.0,0.0,0.0,0.0,0.0,0.0,0.0,0.0,0.0,0.0,0.0,0.0,0.0,0.0,0.0,0.0,0.0,0.0,0.0,0.0,0.0,0.0,0.0,0.0,0.0,0.0,0.0,0.0,-1.8087,-1.8187,-1.8525,0.0,0.0,0.0,0.0,0.0,0.0,0.0,0.0,0.0,0.0,0.0,0.0,0.0,0.0,0.0,0.0,-2.0283,-2.0226,-2.0233,-2.0093,0.0,0.0,0.0,0.0,0.0,-1.9662,-1.9662,-1.9714,0.0,0.0,0.0,0.0,0.0,0.0,0.0,0.0,0.0,0.0,0.0,0.0,0.0,0.0,0.0,0.0,0.0,0.0,0.0,0.0,0.0,-1.9957,-2.0224,-2.0489,-2.0732,-2.0793,-2.0947,-2.1215,-2.1129,-2.118,-2.1313,-2.1319,-2.1222,-2.1033,-2.0934,-2.0779,-2.0566,-2.0712,-2.0712,-2.0566,-2.0712,-2.0868,-2.0934,0.0,-2.094,-2.0623,-2.0949,-2.0823,-2.0399,-2.0172,-2.004,-1.9947,-1.9609,-1.9538,-1.9574,0.0,0.0,0.0,0.0,0.0,0.0,0.0,0.0,0.0,0.0,0.0,0.0,0.0,0.0,0.0,0.0,0.0,0.0,0.0,0.0,0.0,0.0,0.0,0.0,0.0,0.0,0.0,0.0,0.0,-1.8228,-1.8115,-1.8299,-1.8614,-1.8987,0.0,0.0,0.0,0.0,0.0,0.0,0.0,0.0,0.0,0.0,0.0,0.0,0.0,0.0,0.0,0.0,-2.0086,-2.0086,-1.992,0.0,0.0,0.0,0.0,0.0,-1.961,-1.9466,-1.9368,0.0,0.0,0.0,0.0,0.0,0.0,0.0,0.0,0.0,0.0,0.0,0.0,0.0,0.0,0.0,0.0,0.0,0.0,0.0,0.0,-1.9926,-2.0213,-2.0409,-2.0616,-2.0921,-2.1118,-2.1313,-2.1416,-2.1465,-2.1561,-2.1609,-2.1609,-2.1609,-2.1513,-2.1465,-2.1222,-2.0828,-2.0904,-2.0904,-2.0822,-2.1003,-2.1102,-2.1215,0.0,-2.0886,-2.0811,-2.0691,-2.0364,-1.999,-1.9943,-1.981,-1.9622,-1.9531,-1.9567,-1.9669,0.0,0.0,0.0,0.0,0.0,0.0,0.0,0.0,0.0,0.0,0.0,0.0,0.0,0.0,0.0,0.0,0.0,0.0,0.0,0.0,0.0,0.0,0.0,0.0,0.0,0.0,0.0,-1.8608,-1.8323,-1.813,-1.8124,-1.8435,-1.8673,0.0,0.0,0.0,0.0,0.0,0.0,0.0,0.0,0.0,0.0,0.0,0.0,0.0,0.0,0.0,0.0,0.0,0.0,0.0,0.0,0.0,0.0,0.0,-1.9708,-1.961,-1.9565,-1.9368,-1.9176,0.0,0.0,0.0,0.0,0.0,0.0,0.0,0.0,0.0,0.0,0.0,0.0,0.0,0.0,0.0,0.0,0.0,0.0,0.0,-2.0074,-2.0283,-2.0666,-2.0858,-2.1055,-2.1326,-2.1561,-2.1705,-2.18,-2.1895,-2.1942,-2.199,-2.199,-2.199,-2.1942,-2.1942,-2.1657,-2.1131,-2.1131,-2.1131,-2.1131,-2.1229,-2.1375,-2.1527,-2.1026,-2.0879,-2.0899,-2.0436,-1.9968,-1.9573,-1.9795,-1.9651,-1.9384,-1.9567,-1.9669,-1.9682,0.0,0.0,0.0,0.0,0.0,0.0,0.0,0.0,0.0,0.0,0.0,0.0,0.0,0.0,0.0,0.0,0.0,0.0,0.0,0.0,0.0,0.0,0.0,0.0,0.0,-1.9075,-1.8875,-1.8602,-1.8458,-1.8302,-1.8078,-1.8307,-1.8464,0.0,0.0,0.0,0.0,0.0,0.0,0.0,0.0,0.0,0.0,0.0,0.0,0.0,0.0,0.0,0.0,0.0,0.0,0.0,0.0,0.0,0.0,0.0,-1.9708,-1.9565,-1.9466,-1.9322,-1.9123,-1.8905,0.0,0.0,0.0,0.0,0.0,0.0,0.0,0.0,0.0,0.0,0.0,0.0,0.0,0.0,0.0,0.0,0.0,0.0,-2.0466,-2.0673,-2.0934,-2.1229,-2.1465,-2.1752,-2.1895,-2.2084,-2.2324,-2.237,-2.2417,-2.2562,-2.2562,-2.247,-2.237,-2.237,-2.2084,-2.1561,-2.1561,-2.1561,-2.1561,-2.1561,-2.1705,-2.1915,-2.1387,-2.0941,-2.05,-2.0191,-1.9662,-1.9166,-1.9368,-1.9502,-1.9574,-1.9661,-1.969,-1.9682,0.0,0.0,0.0,0.0,0.0,0.0,0.0,0.0,0.0,0.0,0.0,0.0,0.0,0.0,0.0,0.0,0.0,0.0,0.0,0.0,0.0,0.0,0.0,-1.9414,-1.9257,-1.8999,-1.8786,-1.8614,-1.8356,-1.8199,-1.809,-1.8313,0.0,0.0,0.0,0.0,0.0,0.0,0.0,0.0,0.0,0.0,0.0,0.0,0.0,0.0,0.0,0.0,0.0,0.0,0.0,0.0,0.0,0.0,0.0,0.0,0.0,-1.9466,-1.942,-1.9263,0.0,0.0,0.0,0.0,0.0,0.0,0.0,0.0,0.0,0.0,0.0,0.0,0.0,0.0,0.0,0.0,0.0,0.0,-2.0218,-2.0061,-2.0204,-2.0251,-2.0127,-2.0409,-2.0833,-2.1443,-2.1654,-2.1967,-2.2495,-2.2516,-2.2562,-2.2608,-2.2608,-2.2562,-2.2516,-2.2516,-2.2417,-2.2231,-2.2037,-2.199,-2.199,-2.2037,-2.1927,-2.1619,-2.116,-2.0662,-2.017,-1.9725,-1.9515,-1.942,-1.9596,-1.9741,-1.9856,-1.9884,-1.9884,-1.9884,0.0,0.0,0.0,0.0,0.0,0.0,0.0,0.0,0.0,0.0,0.0,0.0,0.0,0.0,0.0,0.0,0.0,0.0,0.0,0.0,0.0,0.0,0.0,-1.9269,-1.9117,-1.8958,-1.8786,-1.8614,-1.8242,-1.809,-1.809,0.0,0.0,0.0,0.0,0.0,0.0,0.0,0.0,0.0,0.0,0.0,0.0,0.0,0.0,0.0,0.0,0.0,0.0,0.0,0.0,0.0,0.0,0.0,0.0,0.0,0.0,0.0,-1.942,-1.9204,0.0,0.0,0.0,0.0,0.0,0.0,0.0,0.0,0.0,0.0,0.0,0.0,0.0,0.0,0.0,0.0,0.0,0.0,-1.9927,-1.9719,-1.9854,-1.9918,-1.9819,-2.0041,-2.0433,-2.1109,-2.1326,-2.1614,-2.2133,-2.2386,-2.2532,-2.2532,-2.2727,-2.2828,-2.2828,-2.2828,-2.2828,-2.2828,-2.2438,-2.2264,-2.231,-2.2264,-2.1981,-2.1518,-2.0894,-2.0451,-2.0118,-1.9634,-1.9552,-1.972,-1.9812,-1.9919,-2.0005,-2.0005,-2.0005,-2.0005,0.0,0.0,0.0,0.0,0.0,0.0,0.0,0.0,0.0,0.0,0.0,0.0,0.0,0.0,0.0,0.0,0.0,0.0,0.0,0.0,0.0,0.0,0.0,-1.9117,-1.8993,-1.8993,-1.8887,-1.8614,-1.8242,-1.809,-1.809,0.0,0.0,0.0,0.0,0.0,0.0,0.0,0.0,0.0,0.0,0.0,0.0,0.0,0.0,0.0,0.0,0.0,0.0,0.0,0.0,0.0,0.0,0.0,0.0,0.0,-1.961,-1.942,-1.942,0.0,0.0,0.0,0.0,0.0,0.0,0.0,0.0,0.0,0.0,0.0,0.0,0.0,0.0,0.0,0.0,0.0,0.0,-1.9109,-1.9042,-1.9474,-1.9557,-1.9772,-2.0244,-2.0287,-2.0451,-2.0773,-2.0934,-2.1039,-2.1177,-2.188,-2.2295,-2.2295,-2.2921,-2.3297,-2.3297,-2.3297,-2.3297,-2.329,-2.2604,-2.2382,-2.2579,-2.2045,-2.1823,-2.1809,-2.0677,-2.0294,-2.0442,-1.9922,-1.9805,-2.0005,-1.9998,-1.9998,-1.9998,-1.9998,-1.9998,-1.9998,0.0,0.0,0.0,0.0,0.0,0.0,0.0,0.0,0.0,0.0,0.0,0.0,0.0,0.0,0.0,0.0,0.0,0.0,0.0,0.0,0.0,0.0,0.0,0.0,0.0,0.0,-1.8667,-1.8614,-1.8242,-1.809,0.0,0.0,0.0,-1.8024,0.0,0.0,0.0,0.0,0.0,0.0,0.0,0.0,0.0,0.0,0.0,0.0,0.0,0.0,0.0,0.0,0.0,0.0,0.0,0.0,0.0,-1.9805,-1.961,-1.942,-1.942,0.0,0.0,0.0,0.0,0.0,0.0,0.0,0.0,0.0,0.0,0.0,0.0,0.0,0.0,0.0,0.0,0.0,-1.9011,-1.9054,-1.902,-1.8953,-1.9094,-1.9134,-1.9053,-1.9265,-1.9649,-2.0248,-2.0397,-2.0666,-2.1248,-2.1487,-2.159,-2.159,-2.1774,-2.1912,-2.1912,-2.1912,-2.1912,-2.1912,-2.1679,-2.188,-2.236,-2.1724,-2.1259,-2.0892,-2.0672,-2.0355,-2.001,-2.0094,-2.0193,-2.0285,-2.0331,-2.0365,-2.0365,-2.0365,-2.0365,-2.0365,0.0,0.0,0.0,0.0,0.0,0.0,0.0,0.0,0.0,0.0,0.0,0.0,0.0,0.0,0.0,0.0,0.0,0.0,0.0,0.0,0.0,0.0,0.0,0.0,0.0,-1.8619,-1.8518,0.0,0.0,0.0,0.0,0.0,0.0,-1.7805,0.0,0.0,0.0,0.0,0.0,0.0,0.0,0.0,0.0,0.0,0.0,0.0,0.0,0.0,0.0,0.0,0.0,0.0,0.0,0.0,0.0,-1.9805,-1.9656,-1.9466,0.0,0.0,0.0,0.0,0.0,0.0,0.0,0.0,0.0,0.0,0.0,0.0,0.0,0.0,0.0,0.0,0.0,-1.8423,-1.8507,-1.8579,-1.8604,-1.85,-1.8686,-1.8777,-1.8715,-1.8903,-1.9252,-1.9759,-1.9888,-2.0172,-2.0602,-2.0907,-2.1048,-2.1048,-2.1339,-2.1472,-2.1472,-2.1472,-2.1472,-2.1472,-2.1206,-2.1312,-2.1691,-2.1265,-2.088,-2.0578,-2.0535,-2.0334,-2.0053,-2.0339,-2.0483,-2.0525,-2.0595,-2.0628,-2.0628,-2.0628,-2.0595,-2.0569,0.0,0.0,0.0,0.0,0.0,0.0,0.0,0.0,0.0,0.0,0.0,0.0,0.0,0.0,0.0,0.0,0.0,0.0,0.0,0.0,0.0,0.0,0.0,0.0,0.0,0.0,0.0,0.0,0.0,0.0,0.0,0.0,-1.7805,-1.7656,0.0,0.0,0.0,0.0,0.0,0.0,0.0,0.0,0.0,0.0,0.0,0.0,0.0,0.0,0.0,0.0,0.0,0.0,0.0,0.0,0.0,-1.9805,-1.9708,0.0,0.0,0.0,0.0,0.0,0.0,0.0,0.0,0.0,0.0,0.0,0.0,0.0,0.0,0.0,0.0,0.0,-1.846,-1.7933,-1.7976,-1.7959,-1.7963,-1.8202,-1.84,-1.8634,-1.8986,-1.9085,-1.9183,-1.9339,-1.9501,-1.9618,-1.9611,-2.0258,-2.0617,-2.0625,-2.1208,-2.1515,-2.1562,-2.1515,-2.1515,-2.1547,-2.1001,-2.0737,-2.0737,-2.0648,-2.0663,-2.0663,-2.0434,-2.0373,-2.0457,-2.0652,-2.0726,-2.0752,-2.0802,-2.0835,-2.0835,-2.0835,-2.0777,-2.076,0.0,0.0,0.0,0.0,0.0,0.0,0.0,0.0,0.0,0.0,0.0,0.0,0.0,0.0,0.0,0.0,0.0,0.0,0.0,0.0,0.0,0.0,0.0,0.0,0.0,0.0,0.0,0.0,0.0,0.0,0.0,0.0,0.0,-1.7384,0.0,-1.7027,0.0,0.0,0.0,0.0,0.0,0.0,0.0,-1.8566,-1.8827,0.0,0.0,0.0,0.0,0.0,0.0,0.0,0.0,-1.9708,-1.9805,-1.9805,-1.9708,0.0,0.0,0.0,0.0,0.0,0.0,0.0,0.0,0.0,0.0,0.0,0.0,0.0,0.0,0.0,0.0,0.0,-1.8065,-1.7508,-1.786,-1.7923,-1.8043,-1.84,-1.8556,-1.8788,-1.904,-1.9183,-1.9339,-1.9538,-1.9582,-1.9647,-1.9733,-1.9912,-2.0031,-2.0146,-2.0202,-2.0241,-2.0358,-2.0278,-2.0278,-2.0358,-2.0243,-2.0175,-2.0175,-2.0146,-2.0254,-2.038,-2.0545,-2.0644,-2.0736,-2.0819,-2.0909,-2.1006,-2.1038,-2.1038,-2.1038,-2.1038,-2.1038,-2.1006,0.0,0.0,0.0,0.0,0.0,0.0,0.0,0.0,0.0,0.0,0.0,0.0,0.0,0.0,0.0,0.0,0.0,0.0,0.0,0.0,0.0,0.0,0.0,0.0,0.0,0.0,0.0,0.0,0.0,0.0,0.0,0.0,0.0,-1.7043,0.0,-1.6864,0.0,0.0,0.0,0.0,0.0,0.0,0.0,-1.8296,-1.8566,-1.8827,-1.8827,0.0,0.0,0.0,0.0,0.0,0.0,0.0,-1.9708,-1.9708,0.0,0.0,0.0,0.0,0.0,0.0,0.0,0.0,0.0,0.0,0.0,0.0,0.0,0.0,0.0,0.0,0.0,-1.8864,-1.8143,-1.7625,-1.7882,-1.8083,-1.8282,-1.8556,-1.8781,-1.8965,-1.9183,-1.9369,-1.9516,-1.9632,-1.9756,-1.982,-1.9884,-1.9884,-1.9927,-2.0005,-1.9927,-1.9927,-2.0005,-1.9927,-1.9927,-2.0005,-2.0103,-2.0173,-2.0235,-2.0166,-2.0304,-2.0535,-2.0677,-2.0843,-2.1006,-2.1047,-2.1151,-2.1238,-2.131,-2.1349,-2.1349,-2.1349,-2.131,-2.1262,0.0,0.0,0.0,0.0,0.0,0.0,0.0,0.0,0.0,0.0,0.0,0.0,0.0,0.0,0.0,0.0,0.0,0.0,0.0,0.0,0.0,0.0,0.0,0.0,0.0,0.0,0.0,0.0,0.0,0.0,0.0,0.0,0.0,0.0,0.0,0.0,0.0,0.0,0.0,0.0,0.0,0.0,0.0,0.0,-1.8242,-1.8506,-1.8506,-1.8667,-1.8934,-1.8934,0.0,0.0,0.0,0.0,-1.961,0.0,0.0,0.0,0.0,0.0,0.0,0.0,0.0,0.0,0.0,0.0,0.0,0.0,0.0,0.0,0.0,0.0,0.0,-1.8996,-1.8408,-1.7922,-1.8003,-1.8314,-1.8588,-1.8743,-1.9003,-1.9183,-1.9369,-1.9581,-1.9726,-1.9762,-1.9919,-2.0033,-2.0033,-2.0068,-2.0068,-2.0068,-2.0068,-2.0033,-2.0033,-2.0033,-2.0076,-2.0068,-2.027,-2.0433,-2.0561,-2.0467,-2.0569,-2.0794,-2.086,-2.0998,-2.1238,-2.1325,-2.1371,-2.1456,-2.155,-2.1589,-2.1589,-2.1589,-2.1542,-2.1456,0.0,0.0,0.0,0.0,0.0,0.0,0.0,0.0,0.0,0.0,0.0,0.0,0.0,0.0,0.0,0.0,0.0,0.0,0.0,0.0,0.0,0.0,0.0,0.0,0.0,0.0,0.0,0.0,0.0,0.0,0.0,0.0,0.0,0.0,0.0,0.0,0.0,0.0,0.0,0.0,0.0,0.0,0.0,0.0,-1.7926,-1.8199,-1.8199,-1.8404,-1.8667,-1.8667,-1.8827,0.0,0.0,0.0,0.0,0.0,0.0,0.0,0.0,0.0,0.0,0.0,0.0,0.0,0.0,0.0,0.0,0.0,0.0,0.0,0.0,0.0,0.0,-1.9474,-1.8613,-1.8003,-1.8361,-1.8528,-1.8707,-1.9026,-1.9183,-1.9369,-1.9617,-1.969,-1.9762,-1.9962,-2.0053,-2.0158,-2.0235,-2.032,-2.0354,-2.0354,-2.0277,-2.027,-2.027,-2.027,-2.0277,-2.0354,-2.0551,-2.0677,-2.0761,-2.0811,-2.0811,-2.0827,-2.1119,-2.1254,-2.1285,-2.1481,-2.1581,-2.1581,-2.1581,-2.1589,-2.1589,-2.1589,-2.1581,-2.1581,0.0,0.0,0.0,0.0,0.0,0.0,0.0,0.0,0.0,0.0,0.0,0.0,0.0,0.0,0.0,0.0,0.0,0.0,0.0,0.0,0.0,0.0,0.0,0.0,0.0,0.0,0.0,0.0,0.0,0.0,0.0,-1.6952,-1.6717,0.0,0.0,0.0,0.0,0.0,0.0,0.0,0.0,0.0,0.0,0.0,0.0,0.0,-1.7871,-1.8024,0.0,0.0,0.0,0.0,0.0,0.0,0.0,0.0,0.0,0.0,0.0,0.0,0.0,0.0,0.0,0.0,0.0,0.0,0.0,0.0,0.0,0.0,0.0,0.0,0.0,-1.9618,-1.9104,-1.8703,-1.8577,-1.8753,-1.8981,-1.9221,-1.9406,-1.9589,-1.9726,-1.9947,-2.0088,-2.0166,-2.0262,-2.035,-2.0399,-2.0433,-2.0475,-2.0475,-2.0433,-2.0392,-2.0392,-2.0392,-2.0467,-2.0644,-2.0761,-2.0876,-2.0982,-2.1095,-2.1111,-2.1087,-2.1254,-2.1379,-2.1534,-2.1603,-2.1694,-2.1716,-2.1716,-2.1716,-2.1716,-2.1716,-2.1716,-2.1716,0.0,0.0,0.0,0.0,0.0,0.0,0.0,0.0,0.0,0.0,0.0,0.0,0.0,0.0,0.0,0.0,0.0,0.0,0.0,0.0,0.0,0.0,0.0,0.0,0.0,0.0,0.0,0.0,0.0,0.0,-1.7554,-1.7205,-1.6865,0.0,-1.6431,0.0,0.0,0.0,0.0,0.0,0.0,0.0,0.0,0.0,0.0,0.0,0.0,0.0,0.0,0.0,0.0,0.0,0.0,0.0,0.0,0.0,0.0,0.0,0.0,0.0,0.0,0.0,0.0,0.0,0.0,0.0,0.0,0.0,0.0,0.0,0.0,0.0,0.0,-2.0079,-1.9725,-1.935,-1.9027,-1.912,-1.928,-1.9442,-1.9654,-1.9826,-1.9912,-2.0166,-2.0346,-2.0415,-2.0501,-2.0587,-2.0587,-2.0628,-2.0636,-2.0587,-2.0587,-2.0579,-2.0595,-2.0579,-2.0687,-2.0876,-2.0942,-2.1055,-2.1167,-2.1302,-2.1388,-2.1411,-2.1411,-2.1503,-2.1686,-2.1716,-2.1768,-2.1789,-2.1789,-2.1789,-2.1789,-2.1789,-2.1789,-2.1789,0.0,0.0,0.0,0.0,0.0,0.0,0.0,0.0,0.0,0.0,0.0,0.0,0.0,0.0,0.0,0.0,0.0,0.0,0.0,0.0,0.0,0.0,0.0,0.0,0.0,0.0,0.0,0.0,0.0,0.0,-1.8288,-1.744,-1.6971,-1.693,-1.6565,-1.6379,-1.6379,0.0,0.0,0.0,0.0,0.0,0.0,0.0,0.0,0.0,0.0,0.0,0.0,0.0,0.0,0.0,0.0,0.0,0.0,0.0,0.0,0.0,0.0,0.0,0.0,0.0,0.0,0.0,0.0,0.0,0.0,0.0,0.0,0.0,0.0,0.0,0.0,-2.1125,-2.0295,-1.9675,-1.9973,-1.9714,-1.9522,-1.969,-1.9932,-2.0143,-2.0262,-2.0346,-2.0483,-2.066,-2.0736,-2.0819,-2.0869,-2.1014,-2.1022,-2.0861,-2.0861,-2.0844,-2.0794,-2.0844,-2.0958,-2.1078,-2.1238,-2.1277,-2.1285,-2.1481,-2.1612,-2.1686,-2.1686,-2.1694,-2.1716,-2.1768,-2.1797,-2.1789,-2.1789,-2.1789,-2.1789,-2.1789,-2.1789,-2.1789,0.0,0.0,0.0,0.0,0.0,0.0,0.0,0.0,0.0,0.0,0.0,0.0,0.0,0.0,0.0,0.0,0.0,0.0,0.0,0.0,0.0,0.0,0.0,0.0,0.0,0.0,0.0,0.0,0.0,-1.8546,-1.8366,-1.7766,-1.7265,-1.6966,-1.6581,-1.6379,-1.6379,-1.6379,0.0,0.0,0.0,0.0,0.0,0.0,0.0,0.0,0.0,0.0,0.0,0.0,0.0,0.0,0.0,0.0,0.0,0.0,0.0,0.0,0.0,0.0,0.0,0.0,0.0,0.0,0.0,0.0,0.0,0.0,0.0,0.0,0.0,0.0,0.0,-2.1389,-2.1241,-2.1113,-2.1009,-2.0599,-2.037,-2.0693,-2.0418,-2.0296,-2.0551,-2.061,-2.0695,-2.0819,-2.0966,-2.1071,-2.1095,-2.1167,-2.1199,-2.1143,-2.1119,-2.1063,-2.1079,-2.1119,-2.1206,-2.1285,-2.1419,-2.1481,-2.1489,-2.1603,-2.1664,-2.1686,-2.1746,-2.1759,-2.1768,-2.1789,-2.1789,-2.1789,-2.1789,-2.1759,-2.1746,-2.1746,-2.1716,-2.1664,0.0,0.0,0.0,0.0,0.0,0.0,0.0,0.0,0.0,0.0,0.0,0.0,0.0,0.0,0.0,0.0,0.0,0.0,0.0,0.0,0.0,0.0,0.0,0.0,0.0,0.0,0.0,0.0,0.0,0.0,0.0,0.0,-1.7508,-1.7188,-1.6648,0.0,0.0,0.0,0.0,-1.6379,0.0,0.0,-1.6306,0.0,0.0,0.0,0.0,0.0,0.0,0.0,0.0,0.0,0.0,0.0,0.0,0.0,0.0,0.0,0.0,0.0,0.0,0.0,0.0,0.0,0.0,0.0,0.0,0.0,0.0,0.0,0.0,0.0,0.0,-2.1962,-2.2011,-2.2036,-2.1917,-2.1511,-2.1334,-2.1616,-2.1123,-2.0878,-2.1057,-2.0977,-2.0958,-2.1039,-2.1183,0.0,-2.1333,-2.1388,-2.1388,-2.1388,-2.1364,-2.1333,-2.1333,-2.1388,-2.1411,-2.1464,-2.1573,-2.1634,-2.1642,-2.1716,-2.1738,-2.1738,-2.1776,-2.1797,-2.1789,-2.1768,-2.1768,-2.1759,-2.1738,-2.1724,-2.1672,-2.1672,-2.1642,-2.1589,0.0,0.0,0.0,0.0,0.0,0.0,0.0,0.0,0.0,0.0,0.0,0.0,0.0,0.0,0.0,0.0,0.0,0.0,0.0,0.0,0.0,0.0,0.0,0.0,0.0,0.0,0.0,0.0,0.0,0.0,0.0,0.0,-1.7729,0.0,-1.6782,-1.6436,-1.6436,0.0,-1.6379,-1.6379,0.0,-1.6114,-1.6114,0.0,0.0,0.0,-1.6061,-1.6244,0.0,0.0,0.0,0.0,0.0,0.0,0.0,0.0,0.0,0.0,0.0,0.0,0.0,0.0,0.0,0.0,0.0,0.0,0.0,0.0,0.0,0.0,0.0,0.0,0.0,-2.2889,-2.2607,-2.2424,-2.2697,-2.2513,-2.2317,-2.2355,-2.2038,-2.1826,-2.1861,-2.1486,-2.1271,-2.1349,-2.1371,-2.1464,-2.1589,-2.162,-2.162,-2.162,-2.1612,-2.1612,-2.1612,-2.1612,-2.1612,-2.162,-2.1664,-2.1716,-2.1724,-2.1768,-2.1797,-2.1789,-2.1716,-2.1738,-2.1789,-2.1708,-2.1694,-2.1694,-2.1612,-2.1581,-2.1581,-2.1589,-2.1589,-2.1589,0.0,0.0,0.0,0.0,0.0,0.0,0.0,0.0,0.0,0.0,0.0,0.0,0.0,0.0,0.0,0.0,0.0,0.0,0.0,0.0,0.0,0.0,0.0,0.0,0.0,0.0,0.0,0.0,0.0,0.0,0.0,0.0,0.0,0.0,-1.7053,-1.6648,-1.6529,-1.6431,0.0,0.0,-1.6176,-1.6114,0.0,0.0,0.0,0.0,0.0,-1.6119,0.0,0.0,-1.6965,-1.729,0.0,0.0,0.0,0.0,0.0,0.0,-2.0182,0.0,0.0,0.0,0.0,0.0,0.0,0.0,0.0,0.0,0.0,0.0,0.0,0.0,0.0,0.0,-2.3237,-2.3333,-2.3686,-2.3312,-2.3134,-2.3404,-2.2941,-2.2702,-2.2991,-2.2457,-2.2143,0.0,-2.1868,-2.1648,-2.1738,-2.1789,-2.1789,-2.1746,-2.1686,-2.1664,-2.1664,-2.1664,-2.1694,-2.1738,-2.1759,-2.1768,-2.1768,-2.1738,-2.1746,-2.1708,-2.1672,-2.1642,-2.1664,-2.1642,-2.1642,-2.1612,-2.1495,-2.1433,-2.1388,-2.1333,-2.1286,-2.1263,0.0,0.0,0.0,0.0,0.0,0.0,0.0,0.0,0.0,0.0,0.0,0.0,0.0,0.0,0.0,0.0,0.0,0.0,0.0,0.0,0.0,-1.7555,0.0,0.0,0.0,0.0,0.0,0.0,0.0,0.0,0.0,0.0,0.0,0.0,0.0,0.0,0.0,0.0,0.0,0.0,-1.6129,0.0,0.0,-1.5778,-1.5667,0.0,0.0,0.0,-1.6124,-1.6643,-1.7032,0.0,0.0,0.0,0.0,0.0,0.0,0.0,0.0,0.0,0.0,0.0,0.0,0.0,-2.118,-2.1277,-2.1416,0.0,0.0,0.0,0.0,0.0,0.0,0.0,-2.3574,-2.3824,-2.4071,-2.3956,-2.3958,-2.4319,-2.3816,-2.357,-2.39,-2.332,-2.3006,-2.3194,-2.2599,-2.209,-2.1857,-2.192,-2.1911,-2.189,-2.1819,-2.1789,-2.1789,-2.1776,-2.1768,-2.1789,-2.1789,-2.1797,-2.1776,-2.1716,-2.1686,-2.1664,-2.1542,-2.1481,-2.1458,-2.1404,-2.1435,-2.145,-2.1325,-2.1262,-2.1215,-2.1183,-2.1135,-2.1111,0.0,0.0,0.0,0.0,0.0,0.0,0.0,0.0,0.0,0.0,0.0,0.0,0.0,0.0,0.0,0.0,0.0,0.0,0.0,0.0,0.0,-1.7451,-1.7808,-1.8008,0.0,0.0,0.0,0.0,0.0,0.0,0.0,0.0,0.0,0.0,0.0,0.0,0.0,0.0,0.0,-1.6379,-1.6087,-1.5914,0.0,0.0,-1.541,0.0,-1.5793,-1.5919,-1.5972,-1.6586,-1.72,0.0,0.0,0.0,0.0,0.0,-1.9558,0.0,0.0,0.0,0.0,0.0,0.0,0.0,-2.1144,-2.118,-2.1326,-2.1705,-2.18,0.0,0.0,0.0,0.0,0.0,-2.3668,-2.4017,-2.412,-2.4418,-2.471,-2.5013,-2.4613,-2.4409,-2.4604,-2.4139,-2.3867,-2.4,-2.3331,-2.2662,-2.207,-2.2011,-2.199,-2.199,-2.194,-2.1899,-2.189,-2.184,-2.1797,-2.1789,-2.1789,-2.1768,-2.1694,-2.1664,-2.1634,-2.1559,-2.1356,-2.1254,-2.1254,-2.1127,-2.1143,-2.1246,-2.1127,-2.107,-2.1046,-2.1038,-2.1038,-2.1046,0.0,0.0,0.0,0.0,0.0,0.0,0.0,0.0,0.0,0.0,0.0,0.0,0.0,0.0,0.0,0.0,0.0,0.0,0.0,0.0,-1.7111,-1.7451,-1.7808,-1.8008,0.0,0.0,0.0,0.0,0.0,0.0,0.0,0.0,0.0,0.0,0.0,0.0,0.0,0.0,0.0,-1.6524,-1.6181,0.0,-1.5856,-1.5735,-1.5541,-1.5415,-1.5793,-1.5919,-1.6024,0.0,-1.7301,-1.7761,0.0,0.0,0.0,0.0,0.0,0.0,0.0,0.0,0.0,0.0,0.0,0.0,-2.0924,-2.1102,-2.1277,0.0,0.0,0.0,0.0,0.0,0.0,0.0,-2.3668,-2.4067,-2.4219,-2.4467,-2.4759,-2.5209,-2.5166,-2.5185,-2.5452,-2.4925,-2.4622,-2.4717,-2.3619,-2.294,-2.2872,-2.2325,-2.199,-2.199,-2.194,-2.1861,-2.1819,-2.1819,-2.1759,-2.1716,-2.1716,-2.1686,-2.1612,-2.1442,-2.1379,-2.1356,-2.1183,-2.1079,-2.0966,-2.0893,-2.0893,-2.0966,-2.0893,-2.0818,-2.076,-2.0677,-2.0685,-2.0801,0.0,0.0,0.0,0.0,0.0,0.0,0.0,0.0,0.0,0.0,0.0,0.0,0.0,0.0,0.0,0.0,0.0,0.0,0.0,0.0,0.0,0.0,-1.7808,-1.8008,0.0,0.0,0.0,0.0,0.0,0.0,0.0,0.0,0.0,0.0,0.0,0.0,0.0,0.0,-1.6904,-1.6694,-1.6358,0.0,-1.5956,-1.5793,-1.5672,-1.5662,-1.5851,-1.6082,-1.642,-1.6842,-1.7301,0.0,0.0,-1.8524,-1.8786,0.0,-1.9466,-1.9565,0.0,0.0,0.0,-2.0296,0.0,0.0,0.0,-2.0941,-2.118,-2.1416,0.0,0.0,0.0,0.0,0.0,0.0,-2.353,-2.3875,-2.417,-2.4418,-2.4759,-2.5092,-2.5248,-2.5402,-2.5621,-2.5399,-2.5168,-2.4913,-2.439,-2.3781,-2.3101,-2.2722,-2.2375,-2.2007,-2.194,-2.189,-2.184,-2.1789,-2.1738,-2.1686,-2.1587,-2.1534,-2.1458,-2.1294,-2.1191,-2.1103,-2.0998,-2.0876,-2.0794,-2.0687,-2.0662,-2.0662,-2.0662,-2.0636,-2.061,-2.0527,-2.0569,-2.0685,0.0,0.0,0.0,0.0,0.0,0.0,0.0,0.0,0.0,0.0,0.0,0.0,0.0,0.0,0.0,0.0,0.0,0.0,0.0,0.0,0.0,0.0,0.0,-1.8008,0.0,0.0,0.0,0.0,0.0,0.0,0.0,0.0,0.0,0.0,0.0,0.0,0.0,0.0,0.0,-1.6756,0.0,-1.6306,-1.6056,-1.5841,-1.5851,-1.5914,-1.5977,-1.6368,-1.6807,-1.7016,0.0,-1.7767,-1.8253,-1.8518,0.0,0.0,0.0,0.0,0.0,0.0,0.0,0.0,0.0,-2.0454,0.0,0.0,0.0,0.0,0.0,0.0,0.0,0.0,0.0,0.0,0.0,0.0,0.0,-2.4328,0.0,-2.4966,-2.5131,-2.5333,-2.5532,-2.5621,-2.5509,-2.51,-2.5117,-2.4572,-2.3258,-2.3134,-2.2739,-2.2015,-2.194,-2.189,-2.1869,-2.1768,-2.1656,-2.1625,-2.1464,-2.1332,-2.1214,-2.1135,-2.103,-2.0877,-2.0794,-2.0703,-2.0626,-2.0543,-2.0441,-2.0388,-2.0433,-2.046,-2.046,-2.0467,-2.0577,-2.0652,0.0,0.0,0.0,0.0,0.0,0.0,0.0,0.0,0.0,0.0,0.0,0.0,0.0,0.0,0.0,0.0,0.0,0.0,-1.6363,0.0,0.0,0.0,0.0,0.0,-1.8008,-1.8008,0.0,0.0,0.0,0.0,0.0,0.0,0.0,0.0,-1.7695,0.0,0.0,0.0,-1.719,0.0,-1.6756,-1.6467,0.0,-1.6061,-1.6014,-1.5919,-1.6264,-1.654,-1.6869,0.0,-1.7584,-1.7816,0.0,-1.8614,-1.8667,0.0,0.0,0.0,0.0,0.0,0.0,0.0,-2.0042,0.0,0.0,0.0,0.0,-2.1124,0.0,0.0,0.0,0.0,0.0,0.0,0.0,0.0,-2.3645,-2.4036,-2.4515,-2.4934,-2.5005,-2.5131,-2.5325,-2.5486,-2.5642,-2.5774,-2.5258,-2.4645,-2.3909,-2.3333,-2.2657,-2.1936,-2.189,-2.184,-2.1708,-2.1716,-2.1595,-2.1348,-2.1309,-2.1175,-2.0934,-2.0885,-2.0802,-2.0718,-2.0603,-2.0509,-2.0423,-2.0423,-2.0381,-2.0312,-2.0388,-2.0381,-2.0339,-2.0381,-2.0475,-2.0561,0.0,0.0,0.0,0.0,0.0,0.0,0.0,0.0,0.0,0.0,0.0,0.0,0.0,0.0,0.0,0.0,0.0,-1.5891,0.0,0.0,0.0,0.0,0.0,0.0,0.0,0.0,0.0,0.0,-1.8482,0.0,0.0,0.0,0.0,0.0,-1.7567,0.0,-1.7529,0.0,0.0,0.0,0.0,0.0,0.0,-1.6171,-1.6061,-1.6072,-1.642,-1.6643,-1.6869,0.0,-1.759,0.0,0.0,0.0,0.0,0.0,0.0,0.0,0.0,0.0,0.0,0.0,0.0,0.0,-2.0201,0.0,-2.0666,0.0,0.0,0.0,0.0,0.0,0.0,0.0,-2.3068,0.0,0.0,0.0,-2.4177,0.0,0.0,0.0,-2.5154,-2.5355,-2.5554,-2.5712,-2.5513,-2.4906,-2.3876,-2.3547,-2.2887,-2.1749,-2.1716,-2.1686,-2.1634,-2.1542,-2.1402,-2.1317,-2.1087,-2.095,-2.0852,-2.0687,-2.0569,-2.0483,-2.0441,-2.0365,-2.0227,-2.0304,-2.0346,-2.0304,-2.0381,-2.0388,-2.0346,-2.0388,-2.0483,-2.0644,0.0,0.0,0.0,0.0,0.0,0.0,0.0,0.0,0.0,0.0,0.0,0.0,-1.2123,-1.3623,0.0,0.0,0.0,-1.6013,0.0,0.0,-1.707,0.0,0.0,0.0,0.0,0.0,0.0,0.0,0.0,0.0,0.0,0.0,0.0,0.0,0.0,-1.7529,-1.7529,0.0,0.0,-1.696,-1.6864,-1.6699,-1.6524,-1.6296,-1.6176,-1.6239,-1.6519,-1.6694,-1.6869,-1.7318,-1.754,0.0,-1.8205,0.0,0.0,0.0,0.0,0.0,-1.9322,0.0,0.0,0.0,0.0,0.0,0.0,0.0,0.0,0.0,0.0,0.0,0.0,0.0,0.0,0.0,0.0,0.0,0.0,0.0,0.0,0.0,0.0,0.0,0.0,-2.5185,-2.5355,-2.544,-2.5389,-2.4834,-2.3674,-2.3447,-2.2818,-2.163,-2.155,-2.155,-2.152,-2.1356,-2.1222,-2.1159,-2.086,-2.0695,-2.0669,-2.0486,-2.0331,-2.0208,-2.0285,-2.0235,-2.0108,-2.0227,-2.027,-2.0304,-2.0381,-2.0423,-2.0449,-2.0483,-2.0585,-2.0744,0.0,-1.2813,0.0,0.0,0.0,0.0,0.0,0.0,0.0,0.0,0.0,0.0,0.0,0.0,0.0,0.0,0.0,-1.6135,-1.6818,0.0,-1.7033,0.0,0.0,-1.7784,0.0,0.0,0.0,0.0,0.0,0.0,0.0,0.0,0.0,0.0,0.0,-1.7706,-1.7706,-1.7706,-1.7373,-1.6812,-1.6812,-1.6653,-1.6436,0.0,-1.6379,-1.6436,-1.6524,0.0,0.0,-1.7217,-1.749,0.0,0.0,0.0,0.0,0.0,0.0,0.0,0.0,0.0,0.0,-1.9565,0.0,0.0,0.0,0.0,-2.0277,0.0,0.0,0.0,0.0,0.0,0.0,0.0,0.0,0.0,0.0,0.0,0.0,0.0,0.0,0.0,0.0,-2.4934,-2.5045,-2.5099,-2.4706,-2.4152,-2.346,-2.2857,-2.2239,-2.1614,-2.1464,-2.1371,-2.1317,-2.1159,-2.0998,-2.0827,-2.0595,-2.0426,-2.0304,-2.0177,-2.0088,-2.0005,-1.9998,-2.0061,-2.0108,-2.0108,-2.0185,-2.0304,-2.0381,-2.0441,-2.0527,-2.0652,-2.0752,-2.0827,0.0,0.0,0.0,0.0,0.0,0.0,0.0,-1.1761,0.0,0.0,0.0,0.0,0.0,0.0,-1.4633,0.0,0.0,-1.5889,-1.6184,-1.663,0.0,0.0,0.0,-1.7671,0.0,0.0,0.0,0.0,0.0,0.0,0.0,0.0,0.0,0.0,0.0,-1.759,0.0,0.0,0.0,0.0,0.0,-1.6534,-1.6379,0.0,-1.6379,-1.6431,-1.6524,-1.6694,0.0,-1.7166,-1.7434,-1.7584,-1.7854,-1.8078,-1.8253,-1.8476,-1.8685,-1.8905,0.0,0.0,-1.9328,-1.942,0.0,0.0,0.0,0.0,0.0,0.0,0.0,0.0,0.0,0.0,0.0,0.0,0.0,0.0,0.0,0.0,0.0,0.0,0.0,0.0,0.0,0.0,-2.4759,-2.4886,-2.4387,-2.3792,-2.3191,-2.2555,-2.1931,-2.1287,-2.1223,-2.1135,-2.1039,-2.0958,-2.0794,-2.0595,-2.0426,-2.0296,-2.015,-2.0088,-1.9955,-1.9884,-1.9962,-1.999,-2.0025,-2.008,-2.0227,-2.0381,-2.0441,-2.0561,-2.0695,-2.0736,-2.0827,-2.0909,-1.1747,0.0,0.0,0.0,0.0,0.0,0.0,0.0,0.0,0.0,-1.3521,0.0,-1.3473,0.0,-1.4601,0.0,-1.5367,-1.5818,-1.5803,-1.6508,0.0,-1.6927,-1.7157,0.0,0.0,0.0,0.0,0.0,0.0,-1.8665,0.0,0.0,0.0,0.0,0.0,0.0,0.0,0.0,-1.7301,0.0,0.0,-1.6483,0.0,0.0,-1.6379,-1.6436,0.0,-1.6643,-1.6751,-1.7043,-1.7267,-1.7484,-1.7744,-1.7914,-1.8078,-1.8313,-1.853,-1.8691,-1.8744,-1.8911,0.0,-1.9269,-1.942,0.0,-1.9708,0.0,0.0,0.0,0.0,0.0,0.0,0.0,0.0,0.0,0.0,0.0,0.0,0.0,0.0,0.0,0.0,0.0,0.0,0.0,-2.4415,-2.4262,-2.3755,-2.3169,-2.2576,-2.1948,-2.1418,-2.1014,-2.0965,-2.0884,-2.0771,-2.0662,-2.0527,-2.0331,-2.015,-2.0018,-1.9904,-1.9812,-1.9784,-1.9741,-1.9827,-1.9899,-1.9998,-2.0061,-2.02,-2.0423,-2.0543,-2.0662,-2.0786,-2.0819,-2.0909,-2.1103,0.0,0.0,0.0,0.0,-1.1709,0.0,0.0,0.0,-1.3508,0.0,-1.3475,-1.3484,-1.3462,-1.4164,-1.4544,-1.4573,-1.5266,0.0,-1.5805,-1.6426,0.0,0.0,-1.6927,-1.7207,-1.7979,0.0,0.0,0.0,0.0,0.0,0.0,0.0,0.0,0.0,-1.7876,0.0,-1.7473,-1.7473,-1.7195,-1.6761,-1.6488,-1.6379,-1.6379,-1.6379,-1.6379,-1.6379,-1.6379,-1.6477,-1.6632,-1.6751,-1.7043,-1.7329,-1.7601,-1.7755,-1.7958,-1.8278,-1.8333,-1.8435,-1.8679,-1.8744,-1.881,-1.9081,-1.9303,0.0,0.0,0.0,-2.0042,0.0,0.0,0.0,0.0,0.0,0.0,0.0,0.0,0.0,0.0,0.0,0.0,0.0,0.0,0.0,0.0,-2.4185,-2.4033,-2.3356,-2.2855,-2.2327,0.0,-2.107,-2.0711,-2.0794,-2.0711,-2.0618,-2.0486,-2.0365,-2.0166,-1.9962,-1.9805,-1.9669,-1.9582,-1.9457,-1.9457,-1.9618,-1.9618,-1.9756,-2.0005,-1.9998,-2.0173,-2.0415,-2.0626,-2.0744,-2.0819,-2.0909,-2.1103,-2.1371,-1.1125,-1.1241,-1.1388,0.0,-1.1498,-1.1943,0.0,0.0,0.0,0.0,-1.3531,-1.3484,-1.3462,-1.3662,-1.4023,-1.4565,-1.478,0.0,0.0,0.0,0.0,-1.6871,-1.6904,-1.7093,-1.7442,-1.7745,0.0,-1.8337,0.0,0.0,-1.9126,0.0,0.0,0.0,0.0,0.0,-1.7329,-1.7329,-1.7155,-1.6761,-1.6488,-1.6379,0.0,0.0,-1.6379,-1.6379,-1.6379,-1.6477,-1.6632,-1.6751,-1.6915,-1.7134,-1.7473,-1.7645,-1.7743,-1.7543,-1.7646,-1.7769,-1.7525,-1.7849,-1.8289,-1.8551,-1.901,-1.9414,0.0,0.0,0.0,0.0,0.0,0.0,0.0,0.0,0.0,0.0,0.0,0.0,0.0,0.0,0.0,0.0,0.0,0.0,-2.3839,-2.3975,-2.3785,-2.3115,-2.2632,-2.2105,-2.1425,0.0,-2.0543,-2.0509,-2.0491,-2.0381,-2.0204,-2.0131,-1.9998,-1.9762,-1.9669,-1.9567,-1.9457,-1.942,-1.9457,-1.9618,-1.9618,-1.9756,-1.9998,-2.0045,-2.022,-2.0494,-2.0703,-2.0933,-2.1183,-2.1183,-2.1394,-2.167,-1.0874,0.0,0.0,-1.1212,0.0,0.0,-1.2794,0.0,0.0,-1.343,-1.351,0.0,-1.3477,-1.3517,-1.3806,-1.4525,-1.4569,0.0,-1.5242,0.0,0.0,-1.6394,-1.6704,-1.6968,-1.7111,-1.7598,0.0,-1.8167,0.0,0.0,-1.8998,0.0,0.0,0.0,0.0,-1.76,0.0,-1.7099,-1.6987,-1.6761,-1.6488,0.0,0.0,-1.6379,-1.6379,-1.6379,-1.6379,-1.6431,-1.6534,-1.6756,-1.6864,-1.6928,-1.7159,-1.731,-1.728,-1.7001,-1.7065,-1.7206,-1.7053,-1.7331,-1.7701,-1.7956,-1.8386,-1.8764,-1.8852,-1.8996,-1.9227,0.0,-1.9774,-2.0038,0.0,0.0,0.0,0.0,0.0,0.0,0.0,0.0,0.0,0.0,0.0,0.0,-2.3696,-2.3839,-2.3489,-2.2536,-2.2277,-2.1758,-2.0786,0.0,-2.0262,-2.0216,-2.0173,-2.0088,-1.9932,-1.9848,-1.9705,-1.9435,-1.945,-1.9384,-1.9242,-1.9272,-1.9376,-1.9501,-1.9501,-1.9712,-2.0005,-2.008,-2.0281,-2.061,-2.0901,-2.1191,-2.145,-2.1495,-2.1639,-2.1819,0.0,0.0,0.0,0.0,0.0,0.0,0.0,-1.2298,0.0,-1.3371,0.0,-1.3495,-1.3495,-1.3473,-1.3771,-1.4396,0.0,-1.4613,-1.4613,-1.5334,-1.5775,-1.583,-1.6482,-1.6904,-1.6922,-1.7373,0.0,0.0,0.0,0.0,0.0,0.0,0.0,0.0,0.0,0.0,0.0,-1.6915,-1.6812,-1.6761,-1.6545,-1.6431,-1.6379,-1.6379,-1.6379,-1.6379,-1.6379,-1.6379,-1.6436,-1.6705,-1.6812,-1.684,-1.6882,-1.688,-1.6826,-1.6586,-1.6587,-1.6729,-1.6789,-1.6971,-1.7182,-1.743,-1.7671,-1.7852,-1.7983,-1.8097,-1.839,-1.8959,-1.9194,-1.9529,-2.0204,0.0,0.0,0.0,0.0,0.0,0.0,0.0,0.0,0.0,0.0,0.0,-2.3348,-2.3523,-2.3156,-2.1873,-2.1825,-2.1318,-2.0031,0.0,-1.9962,-1.9962,-1.9848,-1.9733,-1.9654,-1.9567,-1.9384,-1.9101,-1.9228,-1.916,-1.8986,-1.9078,-1.9221,-1.942,-1.9413,-1.9632,-2.0005,-2.0088,-2.0303,-2.0659,-2.1119,-2.1354,-2.148,-2.1726,-2.1819,-2.1848,0.0,0.0,0.0,0.0,0.0,-1.2058,-1.2294,-1.2301,-1.2558,-1.3396,-1.3525,-1.3495,-1.3495,-1.3473,-1.3524,-1.3708,-1.4274,0.0,0.0,0.0,0.0,-1.579,-1.6531,-1.6875,-1.6922,-1.7558,-1.7944,0.0,-1.809,-1.823,-1.8549,0.0,0.0,0.0,0.0,0.0,-1.7211,-1.7022,0.0,-1.6818,-1.6637,-1.6477,-1.6379,-1.6379,-1.6379,-1.6379,-1.6379,-1.6379,-1.6436,-1.6705,-1.6812,-1.6784,-1.6737,-1.6785,-1.6754,-1.612,-1.6057,-1.6161,-1.5966,-1.6242,-1.6604,-1.689,-1.7372,-1.7852,-1.7983,-1.8097,-1.8229,-1.8371,-1.8592,-1.8819,-1.905,0.0,0.0,0.0,0.0,0.0,0.0,0.0,0.0,0.0,0.0,0.0,0.0,0.0,-2.2566,-2.1787,-2.1287,-2.0662,-1.9886,0.0,-1.9805,0.0,-1.9676,-1.9574,0.0,-1.9295,-1.9139,-1.9101,-1.9055,-1.9024,-1.8993,-1.9198,-1.9302,-1.942,-1.9589,-1.9769,-2.0005,-2.0243,-2.0274,-2.0216,-2.1066,-2.1097,-2.0783,-2.1595,-2.192,-2.1978,0.0,0.0,0.0,0.0,0.0,0.0,0.0,-1.2275,0.0,-1.3404,-1.348,-1.3509,-1.3494,-1.3494,-1.3526,-1.3491,-1.4196,-1.4576,-1.4579,-1.4936,-1.5347,-1.5801,-1.6531,0.0,-1.6908,-1.7605,-1.8007,-1.8032,-1.8027,-1.8024,0.0,0.0,0.0,0.0,0.0,-1.7469,0.0,0.0,0.0,-1.6915,-1.6689,-1.6581,-1.6477,-1.6431,-1.6379,-1.6379,-1.6379,-1.6431,-1.6534,-1.6756,-1.6709,-1.6536,-1.6475,-1.6395,-1.6241,-1.5705,-1.5724,-1.5849,-1.5736,-1.5927,-1.6236,-1.6435,-1.6772,-1.7099,-1.7177,-1.728,-1.7413,-1.7787,-1.7988,-1.8319,-1.893,-1.9416,0.0,0.0,0.0,0.0,0.0,0.0,0.0,0.0,0.0,0.0,0.0,0.0,0.0,0.0,0.0,-2.0445,-1.9742,0.0,-1.9632,0.0,0.0,0.0,-1.9258,0.0,-1.8995,-1.8943,-1.8979,-1.8993,-1.8993,-1.9198,-1.9376,-1.9501,-1.9625,-1.9869,-2.0143,-2.0128,-1.9925,-1.9629,-2.0158,-2.0451,-2.066,-2.1233,-2.1722,-2.2106,0.0,-1.148,0.0,0.0,-1.2301,0.0,-1.2301,-1.2278,-1.2507,-1.3142,-1.3389,-1.3419,-1.3156,-1.3081,-1.307,-1.3118,-1.3648,-1.4008,-1.4164,-1.4173,-1.4486,-1.5256,-1.6025,-1.6412,-1.6402,-1.7322,-1.7873,0.0,-1.7974,-1.7813,-1.7501,0.0,0.0,0.0,0.0,0.0,0.0,0.0,-1.7016,-1.6955,-1.674,-1.6637,-1.6575,-1.6431,-1.6379,-1.6379,-1.6379,-1.6477,-1.6632,-1.6807,-1.6604,-1.6352,-1.623,-1.6039,-1.5726,-1.5451,-1.5531,-1.5709,-1.5754,-1.5919,-1.6088,-1.6194,-1.6318,-1.6436,-1.6479,-1.6515,-1.6641,-1.7207,-1.7485,-1.7847,-1.874,-1.9121,0.0,0.0,0.0,0.0,0.0,0.0,0.0,0.0,0.0,0.0,0.0,0.0,0.0,0.0,0.0,-2.0236,-1.9641,-1.9574,-1.9501,-1.9376,-1.9302,-1.9221,-1.9101,0.0,-1.8941,-1.8836,-1.8941,-1.8993,-1.9024,-1.9272,-1.9457,-1.9647,-1.9769,-1.9962,-2.0177,-1.9996,-1.9557,-1.901,-1.9298,-1.9759,-2.0276,-2.0613,-2.1158,-2.1751,0.0,0.0,0.0,0.0,0.0,0.0,-1.2274,-1.2308,-1.2298,-1.2405,-1.3082,-1.3086,-1.1897,-1.1767,-1.1807,-1.1786,-1.1839,-1.2122,-1.2717,-1.2768,-1.3057,-1.3676,-1.4334,-1.4707,-1.4705,-1.6244,-1.7332,0.0,-1.7989,-1.7813,-1.7478,-1.7141,0.0,0.0,0.0,0.0,0.0,-1.7278,-1.7145,-1.7011,-1.6858,-1.6699,-1.6575,-1.6431,-1.6379,-1.6379,-1.6379,-1.6477,-1.6627,-1.6904,-1.6748,-1.6437,-1.6282,-1.6039,-1.5774,-1.5531,-1.5608,-1.5836,-1.5957,-1.605,-1.6194,-1.6355,-1.6399,-1.6436,-1.6479,-1.6515,-1.654,-1.6739,-1.7037,-1.7332,-1.7635,-1.7923,-1.8432,0.0,0.0,0.0,0.0,0.0,0.0,0.0,0.0,0.0,0.0,-1.9671,0.0,0.0,-1.9758,-1.9728,-1.9626,-1.9494,-1.9384,-1.9302,-1.9183,-1.9101,-1.9101,-1.9017,-1.8986,-1.8986,-1.8986,-1.9017,-1.9108,-1.942,-1.9603,-1.9726,-2.0088,-2.0043,-1.9775,-1.9939,-1.9268,-1.8286,-1.9138,-1.9157,-1.8799,-1.9611,-1.9999,-2.0219,0.0,0.0,0.0,0.0,0.0,0.0,0.0,-1.1686,-1.1293,-1.1248,-1.1888,-1.2193,-1.1661,-1.1613,-1.1571,-1.1625,-1.1589,-1.1853,-1.2571,-1.2624,-1.2896,-1.3472,-1.4121,-1.4511,-1.4519,-1.5512,-1.6158,0.0,0.0,-1.6384,-1.6267,-1.6682,-1.6968,0.0,0.0,-1.6987,-1.7278,-1.7278,-1.7273,-1.7145,-1.6965,-1.6853,-1.6699,-1.6586,-1.6483,-1.6436,-1.6477,-1.6586,-1.6708,-1.6687,-1.6486,-1.6216,-1.6384,-1.6066,-1.5648,-1.5668,-1.5786,-1.5957,-1.6094,-1.6231,-1.6318,-1.6399,-1.6436,-1.6479,-1.6479,-1.6515,-1.6565,-1.6797,-1.7099,-1.7343,-1.7482,-1.7754,-1.815,-1.8606,0.0,0.0,0.0,0.0,0.0,0.0,0.0,0.0,0.0,0.0,0.0,0.0,0.0,-1.9661,-1.9611,-1.9457,-1.9376,-1.9302,0.0,-1.9071,-1.9055,-1.9024,-1.9024,-1.904,-1.904,-1.9198,-1.942,-1.9596,-1.9805,-2.0065,-1.995,-1.9641,-1.9126,-1.8935,-1.8383,-1.7656,-1.8078,-1.8385,-1.866,-1.9068,-1.9513,-2.0001,-1.0738,0.0,-1.229,0.0,-1.2049,-1.1789,-1.1777,-1.1144,-1.0587,-1.0588,-1.1033,-1.1377,-1.1571,-1.1573,-1.1626,-1.1615,-1.1578,-1.1892,-1.2587,-1.2801,-1.307,-1.3468,-1.4114,0.0,-1.4524,-1.5102,-1.5421,-1.541,-1.5396,-1.5416,-1.5431,-1.6346,-1.6779,0.0,-1.6812,-1.6987,-1.7278,-1.7278,-1.7278,-1.7278,-1.7027,-1.6858,-1.6756,-1.6586,-1.6483,-1.6431,-1.6524,-1.6694,-1.6794,-1.6634,-1.6365,-1.6149,-1.6303,-1.595,-1.5558,-1.5748,-1.5919,-1.6088,-1.6231,-1.6362,-1.6436,-1.6436,-1.6479,-1.6515,-1.6515,-1.6522,-1.6656,-1.6918,-1.7212,-1.7467,-1.757,-1.7848,-1.8121,-1.8326,0.0,0.0,0.0,0.0,0.0,0.0,-1.9221,-1.9258,-1.9302,0.0,0.0,0.0,0.0,-1.9661,-1.9611,-1.9501,-1.942,-1.9339,0.0,0.0,-1.9137,-1.9137,-1.913,-1.9183,-1.9221,-1.9376,-1.964,-1.9833,-2.0001,-2.0108,-1.9877,-1.9337,-1.8558,-1.8291,-1.7818,-1.7338,-1.7401,-1.7819,-1.8413,-1.8454,-1.8839,-1.9376,-1.0738,-1.1624,-1.229,-1.229,-1.1354,-1.064,-1.0599,-1.0623,-1.0598,-1.0598,-1.0608,-1.0863,-1.1534,-1.16,-1.1578,-1.1593,-1.1629,-1.1885,-1.256,-1.3165,-1.3518,0.0,0.0,-1.4474,-1.4514,-1.5117,-1.539,-1.5425,0.0,0.0,-1.539,-1.6114,-1.6534,-1.6729,-1.6751,-1.6987,-1.7278,-1.7278,-1.7278,-1.7278,-1.6931,-1.6812,-1.6756,-1.6488,-1.6379,-1.6431,-1.6524,-1.6694,-1.68,-1.6699,-1.6538,-1.6311,-1.5947,-1.5661,-1.5558,-1.5748,-1.5975,-1.6237,-1.6355,-1.6436,-1.6515,-1.6515,-1.6515,-1.6515,-1.6515,-1.662,-1.6803,-1.7122,-1.7358,-1.7564,-1.7835,-1.8043,-1.8282,-1.8471,0.0,0.0,0.0,0.0,0.0,0.0,-1.9101,-1.9101,-1.9101,0.0,0.0,0.0,0.0,0.0,0.0,0.0,0.0,-1.942,-1.942,0.0,-1.9384,-1.9384,-1.9384,-1.942,-1.9538,-1.9632,-1.9718,-2.017,-2.0137,-1.9728,-1.9908,-1.9268,-1.8133,-1.8257,-1.7929,-1.7416,-1.748,-1.7597,-1.7704,-1.7704,-1.7766,-1.7938,-1.0245,-1.0727,-1.1129,-1.1129,-1.0832,-1.0584,-1.0631,-1.0617,-1.0591,-1.0571,-1.0604,-1.0654,-1.0902,-1.1317,-1.1578,0.0,-1.2003,-1.2386,0.0,-1.318,-1.3472,-1.3507,-1.4172,-1.4469,-1.4505,-1.5098,-1.542,-1.541,0.0,0.0,-1.6085,-1.628,-1.6534,-1.6729,-1.689,-1.707,-1.7278,-1.7278,-1.7211,-1.7078,-1.6965,-1.6858,-1.6637,-1.6586,-1.6529,-1.6524,-1.6694,-1.6655,-1.6575,-1.6417,-1.6188,-1.5936,-1.5701,-1.5655,-1.5742,-1.6019,-1.6194,-1.6355,-1.6436,-1.6479,-1.6515,-1.6515,-1.6515,-1.6522,-1.6626,-1.6797,-1.696,-1.7157,-1.7358,-1.7564,-1.7835,-1.8043,-1.8321,-1.8595,-1.8728,0.0,-1.904,0.0,0.0,0.0,-1.9101,-1.9139,-1.9221,-1.9339,0.0,0.0,0.0,0.0,0.0,0.0,0.0,0.0,-1.9581,0.0,-1.9581,-1.9581,-1.9617,-1.9661,-1.982,-1.999,-2.0254,-2.0553,-2.0383,-1.9876,-1.9594,-1.8961,-1.814,-1.7814,-1.7583,-1.7416,-1.7572,-1.7673,-1.7718,-1.7749,-1.778,-1.7845,-0.9773,-1.0231,-1.0624,-1.0624,-1.0624,-1.0624,-1.0624,-1.0624,-1.0624,-1.0624,-1.0604,-1.072,-1.0919,-1.138,0.0,-1.1578,-1.2205,-1.2591,-1.2581,-1.3147,-1.3584,-1.3863,-1.4291,-1.4588,-1.4815,-1.523,0.0,-1.541,-1.54,-1.575,-1.6398,-1.6378,-1.6483,-1.6606,-1.6777,-1.7019,-1.7177,-1.711,-1.7038,-1.6909,-1.6848,-1.674,-1.6575,-1.6529,-1.6581,-1.6632,-1.6751,-1.667,-1.6501,-1.6344,-1.61,-1.5821,-1.5678,-1.5792,-1.5969,-1.6156,-1.6275,-1.6399,-1.6479,-1.6515,-1.6515,-1.6515,-1.6522,-1.662,-1.6797,-1.696,-1.7122,-1.7275,-1.7488,-1.774,-1.7956,-1.8163,-1.84,-1.8697,-1.8805,-1.892,-1.9064,0.0,-1.9101,0.0,0.0,0.0,0.0,-1.942,-1.9531,0.0,0.0,0.0,0.0,0.0,-1.9805,-1.9805,-1.9833,-1.9861,-1.9861,-1.9897,-1.9947,-1.9983,-2.0123,-2.0357,-2.0638,-2.0583,-2.0233,-1.9667,-1.9123,-1.8528,-1.7879,-1.7567,-1.7464,-1.7534,-1.7641,-1.7718,-1.7749,-1.778,-1.7811,-1.7811,-0.9488,-1.0088,-1.0624,-1.0624,-1.0624,-1.0624,-1.0624,-1.0624,-1.0624,-1.0621,-1.0601,-1.0867,-1.156,-1.1586,-1.1604,-1.1688,0.0,0.0,-1.2683,-1.3187,-1.3782,-1.4469,-1.451,-1.4803,-1.5361,-1.5395,-1.5405,-1.541,-1.5381,-1.5725,-1.632,-1.6389,-1.6374,-1.6404,-1.6575,-1.6782,-1.6979,-1.6828,-1.6812,-1.6756,-1.6632,-1.6575,-1.6581,-1.6483,-1.6483,-1.6632,-1.6719,-1.6671,-1.6452,-1.6407,-1.619,-1.5951,-1.5852,-1.5969,-1.62,-1.6194,-1.6318,-1.6436,-1.6479,-1.6515,-1.6515,-1.6515,-1.6626,-1.6761,-1.696,-1.7122,-1.7275,-1.7475,-1.7747,-1.7963,-1.8163,-1.8361,-1.8588,-1.8791,-1.8934,-1.9017,-1.9108,-1.9101,-1.9101,0.0,0.0,0.0,-1.9302,-1.9501,-1.9632,0.0,0.0,0.0,0.0,0.0,-2.0041,-2.0033,-2.008,-2.0143,-2.0143,-2.027,-2.0339,-2.0339,-2.0467,-2.0656,-2.0838,-2.0334,-1.9763,-1.9107,-1.8633,-1.8038,-1.7416,-1.748,-1.7597,-1.771,-1.7718,-1.7749,-1.7811,-1.7811,-1.7811,-1.7811,0.0,0.0,-1.0624,-1.0624,-1.0624,-1.0624,-1.0624,-1.0624,-1.0618,-1.0601,-1.0581,-1.0843,-1.1534,-1.1622,-1.1794,-1.2321,-1.251,-1.2813,-1.3285,-1.3437,-1.3812,-1.4501,-1.4524,-1.4761,-1.5361,-1.541,-1.5425,-1.541,-1.5381,-1.5492,-1.5675,-1.6155,-1.6374,-1.6404,-1.6477,-1.6606,-1.6751,-1.674,-1.6684,-1.6632,-1.6627,-1.6529,-1.6483,-1.6529,-1.6643,-1.6765,-1.6607,-1.6441,-1.622,-1.6032,-1.5805,-1.5627,-1.5784,-1.5969,-1.6237,-1.6318,-1.6399,-1.6479,-1.6515,-1.6515,-1.6522,-1.6626,-1.6797,-1.696,-1.7122,-1.726,-1.7432,-1.7747,-1.7875,-1.8003,-1.8361,-1.8478,-1.8595,-1.8903,-1.8986,-1.9017,-1.9108,-1.9101,-1.9101,0.0,-1.9221,-1.9339,-1.9376,-1.956,-1.969,0.0,0.0,-2.0193,-2.0262,-2.0441,-2.0449,-2.032,-2.0365,-2.046,-2.0551,-2.0585,-2.0677,-2.0771,-2.0885,-2.0735,-2.0354,-2.0305,-1.963,-1.8592,-1.8499,-1.8112,-1.748,-1.7604,-1.7673,-1.7718,-1.7749,-1.7789,-1.7811,-1.7811,-1.7811,-1.7811,-0.9913,-1.0304,-1.0624,-1.0624,-1.0624,-1.0624,-1.0624,-1.0624,-1.0618,-1.0594,-1.0856,-1.1185,-1.1578,-1.16,-1.1841,-1.2518,-1.2621,-1.2854,-1.3467,-1.3778,-1.4148,-1.4455,-1.4492,-1.4801,-1.54,-1.5391,-1.541,-1.541,-1.5395,-1.5371,-1.5405,-1.6112,-1.6425,-1.641,-1.6394,-1.6451,-1.6581,-1.6581,-1.6529,-1.6534,-1.6534,-1.6483,-1.641,-1.6304,-1.6382,-1.6545,-1.6276,-1.6102,-1.5994,-1.5909,-1.5805,-1.5697,-1.5925,-1.61,-1.6318,-1.6436,-1.6479,-1.6515,-1.6515,-1.6515,-1.6565,-1.6754,-1.6918,-1.7122,-1.726,-1.7474,-1.7686,-1.7842,-1.8043,-1.8242,-1.8478,-1.8634,-1.8795,-1.8955,-1.9024,-1.904,-1.9101,-1.9101,-1.9101,-1.9183,-1.9295,-1.9413,-1.9516,-1.9654,-1.9833,-2.001,-2.02,0.0,-2.0535,-2.0677,-2.0677,-2.0559,-2.0628,-2.072,-2.0794,-2.0876,-2.0974,-2.1071,-2.0845,-2.0582,-2.0313,-1.9751,-1.9104,-1.8434,-1.8186,-1.7909,-1.7589,-1.7673,-1.7718,-1.7749,-1.7789,-1.7811,-1.7811,-1.7811,-1.7811,-1.7811,-1.0481,-1.0588,-1.0624,-1.0624,-1.0624,-1.0624,-1.0624,-1.0624,-1.0614,-1.0591,-1.1209,-1.1615,-1.1622,-1.1717,-1.1958,-1.2556,-1.2662,-1.2952,-1.3442,-1.4119,-1.4492,-1.4524,-1.4615,-1.4874,-1.5381,-1.5381,-1.541,-1.541,-1.541,-1.54,-1.5429,-1.5954,-1.6289,-1.6378,-1.64,-1.6389,-1.6384,-1.6379,-1.6379,-1.6374,-1.6296,-1.6265,-1.6275,-1.5928,-1.5966,-1.6165,-1.5897,-1.5753,-1.5812,-1.591,-1.5879,-1.5836,-1.6106,-1.6275,-1.6399,-1.6479,-1.6515,-1.6515,-1.6515,-1.6522,-1.6607,-1.6869,-1.7086,-1.7253,-1.7439,-1.7686,-1.7922,-1.7963,-1.8282,-1.8517,-1.8556,-1.8795,-1.8986,-1.9024,-1.9078,-1.9101,-1.9101,0.0,-1.9139,-1.9295,-1.9376,-1.9479,-1.969,-1.9762,-1.9947,-2.027,-2.0339,-2.0501,-2.0794,-2.0827,-2.0835,-2.0793,-2.0893,-2.0942,-2.0966,-2.1159,-2.1245,-2.1178,-2.0606,-2.0295,-2.016,-1.9037,-1.8452,-1.8319,-1.7833,-1.7658,-1.771,-1.7718,-1.7749,-1.7811,-1.7811,-1.7811,-1.7811,-1.7811,-1.7811,-1.7811,-1.0481,-1.0588,-1.0624,-1.0624,-1.0624,-1.0624,-1.0624,-1.0624,-1.0611,-1.0567,-1.1199,-1.1608,-1.1604,-1.2127,-1.2506,-1.2597,-1.3082,-1.3377,-1.3476,-1.4152,-1.4524,-1.4496,-1.4989,-1.5327,-1.5381,-1.5381,-1.541,-1.541,-1.541,-1.54,-1.5424,-1.5507,-1.5866,-1.6382,-1.6383,-1.6415,-1.6415,-1.6389,-1.6379,-1.6343,-1.5786,-1.5687,-1.5761,-1.5579,-1.5619,-1.5834,-1.5637,-1.5652,-1.5761,-1.5642,-1.5674,-1.5836,-1.6106,-1.6275,-1.6399,-1.6479,-1.6515,-1.6515,-1.6515,-1.6656,-1.6876,-1.7122,-1.726,-1.7439,-1.776,-1.7842,-1.8003,-1.8361,-1.8478,-1.8595,-1.8872,-1.8955,-1.9024,-1.9078,-1.9101,-1.9101,-1.9101,0.0,-1.9139,-1.9295,-1.9376,-1.9479,-1.969,-1.9848,-2.0068,-2.027,-2.0517,-2.0685,-2.0794,-2.0998,-2.1143,-2.1119,-2.1095,-2.1119,-2.1246,-2.145,-2.124,-2.0626,-2.0591,-1.992,-1.871,-1.8617,-1.8244,-1.7655,-1.7677,-1.7687,-1.771,-1.7749,-1.7789,-1.7811,-1.7811,-1.7811,-1.7811,-1.7811,-1.7811,-1.7811,-1.0484,-1.0598,-1.0575,-1.0628,-1.0624,-1.0624,-1.0624,-1.0614,-1.0594,-1.0623,-1.1178,-1.1571,-1.1575,-1.2178,-1.2756,-1.3042,-1.3321,-1.3679,-1.401,-1.4327,-1.4478,-1.4528,-1.5102,-1.5381,-1.5391,-1.5425,-1.541,-1.541,-1.541,-1.54,-1.5391,-1.5376,-1.5575,-1.5871,-1.5884,-1.6042,-1.6408,-1.6376,-1.6427,-1.6346,-1.6079,-1.5658,-1.5199,-1.533,-1.5415,-1.5472,-1.5311,-1.5458,-1.5654,-1.5641,-1.5836,-1.6063,-1.6231,-1.6355,-1.6479,-1.6479,-1.6515,-1.6522,-1.6577,-1.6754,-1.696,-1.7157,-1.7385,-1.7604,-1.7842,-1.8083,-1.8282,-1.8478,-1.8634,-1.8834,-1.8955,-1.9017,-1.9078,-1.9101,-1.9101,-1.9101,-1.9101,-1.9139,-1.9221,-1.9339,-1.9457,-1.9603,-1.9848,-1.9962,-2.0096,-2.0399,-2.0501,-2.0711,-2.0957,-2.1095,-2.1191,-2.1262,-2.1262,-2.1325,-2.145,-2.1573,-2.1264,-2.0533,-2.0231,-1.9508,-1.8501,-1.8202,-1.7907,-1.7612,-1.7704,-1.7749,-1.7749,-1.7789,-1.7811,-1.7811,-1.7811,-1.7811,-1.7811,-1.7811,-1.7811,-1.7811,-1.0209,-1.0471,-1.0585,-1.0571,-1.0628,-1.0624,-1.0624,-1.0604,-1.0654,-1.0839,-1.1296,-1.1674,-1.183,-1.229,-1.2862,-1.3476,-1.3636,-1.3945,-1.4469,-1.4483,-1.4565,-1.4728,-1.5147,-1.54,-1.541,-1.541,-1.541,-1.541,-1.5395,-1.5413,-1.5413,-1.5377,-1.5385,-1.5385,-1.5412,-1.5665,-1.6134,-1.5763,-1.5673,-1.5774,-1.5771,-1.5247,-1.4558,-1.4957,-1.5092,-1.5132,-1.5114,-1.5289,-1.5513,-1.5748,-1.5975,-1.6237,-1.6355,-1.6436,-1.6515,-1.6515,-1.6522,-1.6577,-1.6718,-1.684,-1.6996,-1.724,-1.7502,-1.7801,-1.7922,-1.8242,-1.851,-1.8549,-1.8788,-1.8986,-1.9024,-1.9085,-1.9101,-1.9101,0.0,-1.9101,-1.9101,-1.9221,-1.9339,-1.9384,-1.9538,-1.9727,-1.9962,-2.0005,-2.0138,-2.046,-2.0527,-2.0711,-2.1078,-2.1103,-2.1183,-2.1309,-2.1355,-2.1464,-2.1589,-2.15,-2.1089,-2.0363,-1.9657,-1.8982,-1.8319,-1.7825,-1.7627,-1.7695,-1.7749,-1.7811,-1.7811,-1.7811,-1.7811,-1.7811,-1.7811,-1.7811,-1.7811,-1.7811,-1.7789,-1.778,-0.9585,-1.0123,-1.0591,-1.0588,-1.0575,-1.0624,-1.0624,-1.0604,-1.08,-1.1427,-1.1586,-1.1821,-1.2464,-1.2556,-1.2834,-1.345,-1.4054,-1.4432,-1.4483,-1.4483,-1.4742,-1.5282,-1.54,-1.5415,-1.541,-1.541,-1.541,-1.541,-1.5402,-1.5421,-1.5416,-1.5388,-1.5401,-1.5401,-1.5423,-1.5408,-1.5356,-1.3801,-1.3394,-1.3805,-1.379,-1.3761,-1.3765,-1.4291,-1.4675,-1.4947,-1.5046,-1.5289,-1.5513,-1.5748,-1.5975,-1.6237,-1.6355,-1.6436,-1.6515,-1.6515,-1.6577,-1.6718,-1.684,-1.7038,-1.724,-1.7434,-1.77,-1.7922,-1.8123,-1.8361,-1.8549,-1.8753,-1.8896,-1.9024,-1.9071,-1.9108,-1.9101,-1.9101,0.0,0.0,-1.9101,-1.9221,-1.9339,-1.9384,-1.9538,-1.9727,-1.9962,-2.0005,-2.0138,-2.046,-2.061,-2.0793,-2.1078,-2.1159,-2.1262,-2.1386,-2.1386,-2.1464,-2.1589,-2.099,-2.033,-1.9659,-1.8931,-1.8236,-1.7581,-1.7599,-1.7604,-1.7604,-1.7735,-1.7811,-1.7811,-1.7811,-1.7811,-1.7811,-1.7811,-1.7811,-1.7811,-1.7811,-1.7749,-1.7718,-0.9521,-0.9709,-1.004,-1.0524,-1.0575,-1.0624,-1.0624,-1.0594,-1.085,-1.1493,-1.1626,-1.1849,-1.253,-1.294,-1.3273,-1.3485,-1.4101,-1.4474,-1.451,-1.4843,-1.5161,-1.54,-1.543,-1.538,-1.5407,-1.5402,-1.5415,-1.5381,-1.5423,-1.4894,-1.3874,-1.3863,-1.3859,-1.3859,-1.3845,-1.384,-1.3797,-1.3157,-1.3157,-1.3606,-1.3611,-1.3606,-1.3655,-1.4208,-1.4667,-1.5068,-1.5238,-1.5457,-1.5697,-1.5969,-1.6188,-1.6362,-1.6436,-1.6479,-1.6522,-1.662,-1.6754,-1.6918,-1.7038,-1.7157,-1.7282,-1.7543,-1.7781,-1.8055,-1.8314,-1.8542,-1.8728,-1.8896,-1.901,-1.9078,-1.9108,-1.9101,-1.9101,-1.9101,0.0,-1.9139,-1.9221,-1.9302,-1.942,-1.9501,-1.9603,-1.9741,-1.9962,-2.0005,-2.0138,-2.0407,-2.0501,-2.0669,-2.0909,-2.1062,-2.1159,-2.1215,-2.1207,-2.1341,-2.1589,-2.0882,-2.0208,-1.952,-1.8788,-1.8112,-1.7505,-1.7536,-1.7589,-1.7664,-1.7726,-1.7749,-1.7811,-1.7811,-1.7811,-1.7811,-1.7749,-1.7749,-1.7718,-1.7681,-1.7658,-1.765,-0.953,-0.9512,-0.9706,-1.0464,-1.0585,-1.0631,-1.0624,-1.0588,-1.0836,-1.1482,-1.1608,-1.1888,-1.251,-1.3123,-1.3601,-1.3821,-1.4207,-1.4497,-1.4478,-1.5034,-1.5415,-1.5415,-1.5375,-1.539,-1.5391,-1.4873,-1.4592,-1.4585,-1.4591,-1.4018,-1.2908,-1.2916,-1.2921,-1.2921,-1.2921,-1.2908,-1.2903,-1.2891,-1.3185,-1.3602,-1.3605,-1.3711,-1.3899,-1.4283,-1.468,-1.5137,-1.5379,-1.5597,-1.5836,-1.6106,-1.6275,-1.6399,-1.6479,-1.6528,-1.6571,-1.6712,-1.6924,-1.708,-1.7212,-1.733,-1.7461,-1.772,-1.7935,-1.8161,-1.8432,-1.8697,-1.8889,-1.8986,-1.904,-1.9101,-1.9101,-1.9101,-1.9101,-1.9101,-1.9101,-1.9139,-1.9295,-1.9376,-1.9457,-1.9582,-1.9669,-1.9762,-1.9919,-1.9962,-2.0103,-2.0354,-2.0441,-2.0569,-2.0794,-2.0941,-2.1062,-2.1111,-2.1111,-2.1199,-2.1435,-2.0551,-1.9882,-1.9457,-1.8522,-1.7873,-1.7458,-1.7497,-1.7551,-1.765,-1.7673,-1.7695,-1.7735,-1.7735,-1.7735,-1.7735,-1.7695,-1.7673,-1.7664,-1.7612,-1.7557,-1.7534,-0.9487,-0.9469,-0.9728,-1.0484,-1.0605,-1.0585,-1.0628,-1.0588,-1.0832,-1.1523,-1.1597,-1.1873,-1.252,-1.3164,-1.3748,-1.4409,-1.452,-1.4506,-1.4514,-1.5085,-1.5405,-1.5405,-1.5387,-1.5381,-1.5371,-1.3723,-1.2886,-1.2886,-1.2898,-1.2898,-1.2893,-1.2879,-1.2881,-1.2881,-1.2881,-1.2881,-1.2876,-1.2885,-1.316,-1.3602,-1.3605,-1.3941,-1.4417,-1.4403,-1.4669,-1.5153,-1.5492,-1.5671,-1.5836,-1.6106,-1.6275,-1.6399,-1.6479,-1.6571,-1.6718,-1.684,-1.7038,-1.7247,-1.7356,-1.7645,-1.7882,-1.7882,-1.8095,-1.8358,-1.8471,-1.8757,-1.8993,-1.8993,-1.904,-1.9101,-1.9101,-1.9101,-1.9101,-1.9101,-1.9101,-1.9139,-1.9288,-1.9332,-1.945,-1.956,-1.9654,-1.9718,-1.9797,-1.9919,-2.0068,-2.027,-2.0346,-2.0517,-2.0794,-2.0877,-2.0958,-2.1078,-2.1086,-2.1111,-2.1111,-1.9822,-1.9268,-1.9386,-1.8028,-1.7403,-1.7403,-1.7458,-1.7512,-1.7504,-1.7566,-1.7612,-1.7612,-1.7612,-1.7612,-1.7612,-1.7612,-1.7612,-1.7612,-1.7612,-1.7511,-1.7384,-0.9414,-0.9469,-0.9582,-0.9776,-1.0247,-1.0585,-1.0628,-1.0588,-1.0832,-1.1523,-1.203,-1.2386,-1.2593,-1.3147,-1.3791,-1.4469,-1.4501,-1.4692,-1.5088,-1.533,-1.5419,-1.5419,-1.5385,-1.4865,-1.3686,-1.3148,-1.288,-1.2919,-1.2923,-1.2875,-1.2919,-1.2876,-1.2881,-1.2881,-1.2881,-1.2915,-1.2895,-1.288,-1.3183,-1.3588,-1.3616,-1.3909,-1.4436,-1.4765,-1.4966,-1.5181,-1.582,-1.6023,-1.6038,-1.6269,-1.6399,-1.6479,-1.662,-1.6712,-1.6882,-1.708,-1.7212,-1.7391,-1.7686,-1.7801,-1.7916,-1.7969,-1.8214,-1.8503,-1.8683,-1.8858,-1.9024,-1.904,-1.9071,-1.9101,-1.9101,-1.9101,-1.9101,-1.9101,-1.9101,-1.8986,-1.8658,-1.8649,-1.8571,-1.8238,-1.8683,-1.9029,-1.9155,-1.9577,-1.9919,-2.0068,-2.0243,-2.0407,-2.0587,-2.062,-2.0628,-2.0677,-2.0677,-2.0744,-2.0876,-1.9657,-1.9135,-1.9244,-1.7849,-1.7265,-1.7403,-1.7419,-1.7466,-1.7512,-1.7527,-1.7551,-1.7612,-1.7612,-1.7612,-1.7589,-1.7496,-1.7464,-1.744,-1.7402,-1.7362,-1.7314,-0.9359,-0.9481,-0.9521,-0.9494,-1.0114,-1.0591,-1.0618,-1.0581,-1.0825,-1.1501,-1.2162,-1.2591,-1.2581,-1.3126,-1.3769,-1.4469,-1.4714,-1.5023,-1.5382,-1.5381,-1.5108,-1.4429,-1.442,-1.3961,-1.2917,-1.2881,-1.2878,-1.2881,-1.2881,-1.2881,-1.2881,-1.2881,-1.2881,-1.2881,-1.2881,-1.2915,-1.2934,-1.3117,-1.3362,-1.3615,-1.3852,-1.4129,-1.4455,-1.4908,-1.5233,-1.5441,-1.5864,-1.6124,-1.6256,-1.6355,-1.6479,-1.6571,-1.6675,-1.684,-1.7038,-1.7157,-1.7343,-1.7563,-1.7842,-1.7963,-1.8036,-1.8175,-1.8386,-1.8634,-1.8851,-1.8965,-1.9048,-1.9108,-1.9101,-1.9101,-1.9101,-1.9101,-1.9021,-1.8782,-1.8745,-1.8564,-1.8022,-1.7981,-1.7895,-1.7618,-1.7948,-1.8365,-1.8702,-1.9111,-1.9554,-1.9983,-2.0103,-2.0235,-2.0357,-2.0392,-2.0433,-2.0467,-2.0501,-2.0561,-2.0695,-1.9727,-1.9188,-1.909,-1.7745,-1.7166,-1.7273,-1.7355,-1.7378,-1.7426,-1.7426,-1.745,-1.7489,-1.7489,-1.7489,-1.7465,-1.7385,-1.7345,-1.733,-1.7281,-1.7224,-1.7174,-0.9303,-0.9429,-0.9472,-0.9494,-1.0123,-1.0601,-1.0601,-1.064,-1.0888,-1.1527,-1.2189,-1.2637,-1.2692,-1.3166,-1.3743,-1.4423,-1.4936,-1.5195,-1.5195,-1.5192,-1.4485,-1.2982,-1.2879,-1.2911,-1.2911,-1.2879,-1.2881,-1.2881,-1.2881,-1.2881,-1.2881,-1.2881,-1.2881,-1.2881,-1.2876,-1.291,-1.2929,-1.3385,-1.3619,-1.3663,-1.4184,-1.4392,-1.4474,-1.4943,-1.5398,-1.5787,-1.581,-1.6099,-1.6467,-1.6355,-1.6515,-1.6725,-1.6718,-1.696,-1.7205,-1.724,-1.7461,-1.776,-1.7882,-1.8083,-1.8282,-1.8478,-1.8634,-1.8757,-1.8955,-1.9048,-1.9101,-1.9101,-1.9101,-1.9101,-1.9101,-1.9058,-1.884,-1.8296,-1.815,-1.7924,-1.7356,-1.7294,-1.7313,-1.732,-1.7364,-1.7652,-1.835,-1.8629,-1.9116,-1.9917,-1.9962,-1.999,-2.008,-2.0193,-2.0304,-2.0381,-2.0433,-2.046,-2.0494,-1.989,-1.9373,-1.8946,-1.7748,-1.7147,-1.7108,-1.724,-1.7289,-1.7306,-1.7306,-1.7289,-1.7289,-1.7289,-1.7281,-1.7273,-1.7281,-1.7248,-1.7182,-1.7149,-1.7074,-1.6972,-0.8675,-0.9145,-0.9472,-0.9494,-1.0123,-1.0601,-1.0601,-1.1069,-1.146,-1.1597,-1.2189,-1.2784,-1.3222,-1.3394,-1.378,-1.442,-1.3835,-1.3417,-1.3448,-1.3423,-1.3269,-1.2912,-1.2921,-1.2885,-1.2885,-1.2915,-1.2881,-1.2881,-1.2881,-1.2881,-1.2881,-1.2881,-1.2881,-1.2881,-1.291,-1.2919,-1.2923,-1.3392,-1.3621,-1.3648,-1.4167,-1.4384,-1.4435,-1.4932,-1.539,-1.579,-1.5808,-1.6101,-1.6492,-1.6596,-1.6705,-1.6882,-1.7038,-1.7157,-1.724,-1.7508,-1.772,-1.7882,-1.8083,-1.8282,-1.8471,-1.8683,-1.8858,-1.8955,-1.8993,-1.9048,-1.9101,-1.9101,-1.9101,-1.9101,-1.9101,-1.8716,-1.8361,-1.823,-1.7766,-1.7185,-1.655,-1.6549,-1.6437,-1.5909,-1.636,-1.6966,-1.7637,-1.8652,-1.9396,-1.9754,-1.9762,-1.9841,-1.999,-2.0033,-2.0103,-2.015,-2.0177,-2.0254,-2.0415,-1.9766,-1.9233,-1.8776,-1.8012,-1.746,-1.7108,-1.7133,-1.7207,-1.7306,-1.7306,-1.7265,-1.7224,-1.7224,-1.715,-1.7067,-1.7066,-1.7056,-1.7023,-1.6865,-1.6797,-1.6746,-0.8471,-0.9014,-0.9484,-0.9497,-1.0123,-1.0598,-1.0588,-1.1195,-1.1589,-1.1582,-1.2166,-1.2821,-1.3401,-1.3502,-1.3438,-1.3383,-1.3088,-1.2921,-1.2884,-1.2922,-1.2886,-1.2886,-1.2925,-1.2881,-1.2881,-1.2881,-1.2881,-1.2881,-1.2881,-1.2881,-1.2881,-1.2881,-1.2881,-1.2881,-1.29,-1.303,-1.3271,-1.3488,-1.3595,-1.3632,-1.4176,-1.4518,-1.476,-1.5022,-1.5412,-1.5816,-1.6044,-1.6374,-1.6726,-1.6829,-1.6931,-1.708,-1.7157,-1.733,-1.7508,-1.772,-1.7875,-1.7975,-1.8175,-1.8333,-1.845,-1.8745,-1.8836,-1.8927,-1.9017,-1.9071,-1.9101,-1.9101,-1.9101,-1.9101,-1.9101,-1.8615,-1.8064,-1.7745,-1.711,-1.642,-1.5718,-1.5701,-1.5585,-1.5238,-1.5552,-1.6203,-1.722,-1.8504,-1.9332,-1.9508,-1.9552,-1.9632,-1.9792,-1.9856,-1.9876,-1.9967,-2.0038,-2.015,-2.0262,-1.9991,-1.9605,-1.9022,-1.8158,-1.747,-1.6948,-1.6981,-1.7032,-1.7108,-1.7108,-1.7091,-1.704,-1.6991,-1.6908,-1.6858,-1.6821,-1.6785,-1.6743,-1.6623,-1.6509,-1.6455,-0.8471,-0.9014,-0.9487,-0.9497,-1.012,-1.0591,-1.0571,-1.1174,-1.1641,-1.1772,-1.2266,-1.2826,-1.3416,-1.3353,-1.2979,-1.2295,-1.2647,-1.2893,-1.29,-1.2881,-1.2881,-1.2881,-1.2881,-1.2881,-1.2881,-1.2881,-1.2881,-1.2881,-1.2881,-1.2881,-1.2881,-1.2881,-1.2876,-1.292,-1.2885,-1.3152,-1.3597,-1.3588,-1.3632,-1.3789,-1.4206,-1.4702,-1.5097,-1.5181,-1.5445,-1.5875,-1.6349,-1.6678,-1.6972,-1.7012,-1.7099,-1.7247,-1.7282,-1.7502,-1.776,-1.7875,-1.7969,-1.8068,-1.8266,-1.8351,-1.8436,-1.8707,-1.8791,-1.8822,-1.9019,-1.9064,-1.9108,-1.9071,-1.9071,-1.9071,-1.9064,-1.8571,-1.7913,-1.7172,-1.6498,-1.5827,-1.5098,-1.4982,-1.4982,-1.4982,-1.5175,-1.5788,-1.6922,-1.8274,-1.9101,-1.9258,-1.9339,-1.942,-1.9582,-1.9661,-1.9726,-1.9805,-1.9967,-2.008,-2.0108,-2.027,-2.004,-1.9392,-1.8443,-1.7606,-1.6926,-1.6875,-1.6845,-1.6845,-1.6845,-1.6845,-1.6811,-1.6712,-1.6644,-1.6625,-1.6581,-1.6509,-1.6448,-1.6363,-1.6262,-1.6139,-0.8471,-0.9061,-0.9518,-0.9491,-1.0107,-1.0575,-1.0567,-1.1174,-1.1788,-1.2367,-1.256,-1.2809,-1.3429,-1.2756,-1.2404,-1.2767,-1.286,-1.291,-1.2886,-1.2881,-1.2881,-1.2881,-1.2881,-1.2881,-1.2881,-1.2881,-1.2881,-1.2881,-1.2881,-1.2881,-1.2881,-1.2881,-1.2915,-1.289,-1.2885,-1.3145,-1.3614,-1.36,-1.3889,-1.4302,-1.437,-1.4698,-1.5159,-1.5558,-1.575,-1.5846,-1.6343,-1.6786,-1.7164,-1.719,-1.726,-1.7398,-1.7597,-1.776,-1.7875,-1.7969,-1.8114,-1.8266,-1.8305,-1.8489,-1.8673,-1.8704,-1.8767,-1.8822,-1.8822,-1.8981,-1.9071,-1.9024,-1.9024,-1.8979,-1.8867,-1.8342,-1.7727,-1.7027,-1.6391,-1.5795,-1.5098,-1.4935,-1.4918,-1.4918,-1.59,-1.6624,-1.6836,-1.8048,-1.8905,-1.9101,-1.9139,-1.9295,-1.9582,-1.9611,-1.9676,-1.9805,-1.9833,-1.9932,-2.0108,-2.0143,-1.9882,-1.9408,-1.9254,-1.8562,-1.738,-1.6803,-1.6588,-1.6649,-1.6649,-1.6623,-1.6554,-1.652,-1.6474,-1.6348,-1.6348,-1.6309,-1.6242,-1.6088,-1.6019,-1.5921,-0.8961,-0.9271,-0.9652,-1.0056,-1.0381,-1.0621,-1.0567,-1.1156,-1.1821,-1.2487,-1.2591,-1.2818,-1.3433,-1.2675,-1.2317,-1.2838,-1.2909,-1.2895,-1.2881,-1.2881,-1.2881,-1.2881,-1.2881,-1.2881,-1.2881,-1.2881,-1.2881,-1.2881,-1.2881,-1.2881,-1.2881,-1.2881,-1.2915,-1.2934,-1.3185,-1.3387,-1.3583,-1.358,-1.393,-1.4441,-1.4674,-1.5057,-1.5521,-1.5715,-1.5944,-1.6269,-1.6718,-1.7035,-1.7203,-1.7328,-1.7432,-1.7543,-1.776,-1.7875,-1.7969,-1.8114,-1.8226,-1.8312,-1.8404,-1.851,-1.8595,-1.868,-1.8704,-1.8728,-1.8728,-1.8812,-1.8889,-1.8889,-1.8889,-1.8882,-1.8822,-1.8247,-1.7675,-1.7369,-1.643,-1.5656,-1.527,-1.4903,-1.4812,-1.5143,-1.6013,-1.6718,-1.7112,-1.8038,-1.8728,-1.8905,-1.8995,-1.916,-1.942,-1.9457,-1.9538,-1.9669,-1.9769,-1.9833,-1.9932,-2.0018,-1.9951,-1.9729,-1.9354,-1.857,-1.7444,-1.7147,-1.6823,-1.6498,-1.6463,-1.6429,-1.6367,-1.6301,-1.6246,-1.6171,-1.6095,-1.5983,-1.587,-1.5812,-1.5718,-1.5675]}]]